GFSGL_925_spd_000.txt.gz
Wind_Speed
15 12 11 9 7 6 8 11 15 17 20 22 23 24 26 28 27 28 29 31 31 33 35 36 37 37 36 34 33 31 31 29 16 27 28 26 20 16 21 26 16 30 38
12 11 10 6 5 8 12 15 17 20 21 23 24 26 28 28 28 28 30 31 31 33 34 36 38 38 40 38 36 34 32 32 30 19 28 26 23 20 19 25 26 24 27
9 9 7 8 9 11 14 18 20 21 22 24 25 27 28 28 29 29 31 32 33 35 36 36 38 38 38 37 38 35 34 35 34 30 27 28 23 19 16 19 23 26 24
9 9 10 9 10 13 16 19 20 21 23 25 26 28 29 30 30 30 31 33 34 33 34 35 37 37 35 36 37 37 35 33 32 31 29 27 25 18 16 16 16 21 24
9 12 10 9 11 15 18 21 22 23 25 26 28 29 29 30 30 29 29 31 31 32 32 34 35 37 37 35 32 33 33 29 29 29 25 25 24 21 17 13 14 17 15
12 11 7 8 13 17 19 22 24 25 26 27 29 30 31 31 30 28 30 30 31 32 32 34 34 35 36 37 40 39 33 24 27 26 26 22 27 26 21 19 13 8 3
11 8 7 11 15 18 21 23 25 27 29 30 30 29 31 32 31 31 31 31 31 31 32 32 32 32 32 33 33 38 42 40 41 31 27 29 29 27 25 19 17 17 9
7 5 9 13 17 20 22 24 26 27 28 30 30 30 32 33 33 33 33 33 33 34 34 34 34 33 32 32 31 31 33 35 42 43 43 33 31 28 27 23 21 14 10
4 6 11 15 18 21 23 24 26 27 28 29 30 31 32 34 33 34 34 32 30 31 32 33 34 34 34 35 34 32 31 31 29 37 41 41 33 24 14 23 21 21 4
4 7 11 15 18 21 23 25 26 27 29 29 32 31 31 33 36 34 33 30 28 27 28 30 32 36 37 36 35 32 29 30 27 21 30 37 35 31 26 18 26 22 10
5 9 12 15 18 20 22 24 27 27 28 28 29 30 31 31 33 33 34 33 28 26 25 25 26 31 38 42 41 35 34 31 27 26 24 23 27 33 29 27 19 30 22
6 10 13 15 17 19 22 24 25 25 25 25 27 28 28 29 27 25 24 24 25 22 22 22 23 23 28 35 42 39 39 31 26 22 24 22 21 25 29 28 25 24 30
8 11 14 16 17 19 21 22 23 24 23 23 23 25 27 24 25 22 25 23 21 18 19 20 26 29 35 34 39 39 39 31 25 24 18 22 23 24 25 22 22 25 19
10 12 14 15 17 18 19 19 21 22 22 22 23 23 26 26 24 26 24 23 18 16 15 18 18 20 11 8 14 33 30 28 26 23 23 21 19 19 22 23 21 26 25
9 12 13 14 16 18 18 18 21 20 20 24 23 24 25 24 27 29 21 20 17 15 15 11 10 11 10 9 8 17 23 24 23 23 13 17 16 16 16 21 27 26 17
9 11 12 14 15 17 19 21 18 18 22 22 22 24 25 24 26 19 16 17 13 10 7 10 11 13 13 12 10 9 17 19 18 16 20 18 18 17 14 15 20 22 24
7 10 12 13 15 16 18 20 22 23 19 18 19 24 22 24 19 17 15 12 20 15 15 15 14 14 14 14 14 13 14 13 15 15 16 16 18 18 20 19 19 22 23
7 8 10 13 14 15 16 18 19 20 20 23 21 23 22 21 19 19 20 16 19 22 20 18 17 17 16 15 15 15 14 14 15 15 16 16 17 19 20 19 21 23 24
7 8 10 11 12 13 14 16 16 18 18 18 20 21 22 20 18 20 21 19 19 20 19 18 18 19 18 17 16 16 16 16 16 16 16 17 18 19 20 21 22 22 24
6 5 9 10 11 11 12 14 15 16 16 16 17 20 19 17 19 19 19 17 18 18 17 18 18 18 18 19 19 18 18 18 18 18 19 18 19 20 21 22 23 22 20
6 7 8 9 10 10 11 11 12 13 14 15 15 19 19 16 17 18 17 18 18 18 17 16 15 17 18 18 18 19 20 19 18 18 19 19 19 21 21 21 20 20 21
5 6 7 8 8 8 9 9 10 10 12 14 14 16 18 17 18 18 18 18 18 18 18 17 17 17 17 16 16 17 18 18 18 19 20 20 20 21 20 20 20 20 20
4 5 6 6 7 6 7 7 8 10 10 11 13 14 16 17 17 18 18 18 19 20 19 19 18 18 18 18 17 16 16 15 14 14 16 16 17 17 17 18 17 17 16
3 3 4 4 5 5 6 6 6 8 9 9 11 13 14 15 16 17 17 17 19 19 20 20 22 20 17 18 17 16 15 14 14 14 14 15 15 14 14 14 14 15 15
2 2 2 3 4 4 4 4 5 6 8 9 10 10 11 12 13 14 15 15 17 17 19 19 18 19 21 20 19 17 15 16 14 13 12 12 13 13 12 13 13 13 13
2 2 1 1 2 3 3 3 4 4 5 7 8 10 10 11 12 12 13 14 14 15 15 16 18 19 18 19 18 16 14 13 13 13 11 10 11 11 11 12 11 11 10

GFSGL_925_spd_003.txt.gz
Wind_Speed
17 13 15 15 12 7 6 8 10 12 16 19 22 24 24 25 26 27 29 31 31 31 31 32 34 35 35 35 34 34 32 30 17 24 26 28 33 21 14 18 24 35 30
12 14 14 13 8 7 8 12 13 16 19 22 24 26 27 28 28 30 32 32 32 32 32 32 33 33 36 36 37 36 34 33 30 18 27 29 29 30 26 20 19 28 29
13 13 12 10 8 14 14 14 16 19 22 24 26 27 29 30 30 31 32 33 33 33 33 33 34 33 35 36 37 34 34 35 33 29 28 27 30 30 25 21 19 20 23
13 11 11 11 13 13 13 15 18 20 23 25 26 28 29 30 31 31 32 32 33 33 31 31 33 35 36 35 34 33 33 32 32 32 30 27 29 30 29 22 14 17 22
10 11 14 15 14 14 14 17 20 22 23 25 27 29 29 29 30 29 29 31 32 31 31 31 32 34 36 37 33 30 28 30 28 27 26 25 26 27 25 22 16 15 20
14 13 13 12 12 14 16 19 21 23 24 26 27 29 29 29 29 30 29 31 30 31 30 32 34 35 37 38 39 39 37 33 27 22 25 21 27 26 27 25 18 8 6
11 11 11 10 12 15 18 21 22 24 25 27 28 28 29 30 30 28 29 31 30 30 31 32 32 32 32 33 33 36 40 42 44 37 31 26 25 27 27 28 21 17 16
13 10 9 11 13 17 19 22 23 24 25 26 27 27 29 29 30 31 31 31 30 32 33 35 35 34 34 33 30 30 31 33 37 37 38 40 33 28 19 18 21 17 11
7 9 9 11 15 18 21 22 24 24 25 26 26 27 29 30 32 34 33 31 29 30 31 32 33 34 34 34 34 33 32 28 28 34 37 39 41 46 38 25 8 15 3
8 7 10 13 16 19 21 23 23 24 25 25 27 28 27 29 33 35 34 31 29 28 29 31 33 36 37 36 34 32 29 30 31 30 27 36 40 42 45 29 20 17 8
4 8 11 14 17 18 21 22 24 24 24 24 24 26 28 29 30 31 25 23 23 25 25 24 24 27 33 39 40 35 32 31 30 29 26 27 29 32 30 26 22 18 13
7 10 13 15 17 19 20 23 23 24 22 22 24 26 25 27 27 30 26 28 28 26 25 23 24 23 22 27 31 31 35 36 28 22 24 22 22 26 27 26 20 20 18
9 12 15 16 17 17 20 21 22 22 21 21 22 24 26 27 29 29 28 31 28 25 24 25 25 26 28 32 36 42 36 33 27 24 19 22 22 21 20 19 17 18 17
11 13 15 16 16 18 19 19 20 20 22 22 22 23 26 28 28 28 31 24 23 21 19 19 21 23 23 28 27 25 27 27 24 20 20 19 22 20 20 21 14 20 16
11 13 14 14 16 18 18 18 20 21 19 23 24 25 25 26 27 33 25 22 22 18 20 15 11 13 15 15 7 8 17 20 20 19 17 16 11 13 12 20 18 19 10
11 12 13 14 16 17 19 20 18 19 23 23 22 21 26 24 29 25 23 18 22 19 12 13 13 14 15 16 15 8 11 14 16 16 12 11 11 13 11 11 16 17 19
8 10 12 13 15 17 18 19 20 21 20 19 18 20 22 24 23 22 21 17 17 19 18 17 17 17 15 14 15 16 13 7 9 7 8 15 12 13 13 13 13 15 18
8 10 11 14 15 16 17 18 18 20 19 21 19 21 22 23 22 23 23 18 19 21 20 20 20 19 18 17 15 15 14 15 14 13 13 12 12 12 13 13 13 16 17
9 9 10 12 13 14 15 17 16 18 19 18 20 22 24 22 18 21 24 23 20 21 20 20 19 20 20 17 16 17 16 14 13 13 12 11 11 11 12 13 17 17 20
9 7 8 12 13 14 15 16 15 16 17 16 17 20 23 18 19 21 23 23 23 23 22 22 20 19 18 21 20 17 16 17 15 14 14 14 13 13 14 16 19 19 18
10 10 10 11 12 13 13 14 13 14 14 15 15 17 20 15 16 18 20 22 22 23 24 21 21 22 20 18 18 20 20 19 18 16 16 16 17 18 16 16 18 21 21
8 10 10 11 11 11 12 13 12 13 12 13 13 14 17 16 16 17 18 21 22 22 23 23 22 22 23 22 19 18 18 19 19 19 20 20 19 20 20 20 19 19 19
8 9 10 10 10 10 10 10 11 11 12 11 11 13 14 15 16 17 17 19 21 23 24 26 24 24 23 23 22 20 18 18 17 16 17 18 18 18 18 18 18 16 16
7 8 9 9 8 9 9 10 9 9 10 10 10 11 12 13 14 15 16 17 18 22 22 23 25 26 24 22 21 22 21 18 17 17 17 17 16 16 16 17 18 17 14
6 6 6 7 8 8 8 8 8 8 8 9 10 10 11 11 13 14 15 16 17 18 20 23 22 21 23 23 22 20 19 21 19 17 17 17 17 16 15 15 15 14 12
5 5 5 6 6 6 7 7 7 7 7 7 8 9 10 10 11 12 14 15 15 16 16 18 18 20 20 21 21 19 17 17 17 15 13 13 13 13 13 14 13 12 10

GFSGL_925_spd_006.txt.gz
Wind_Speed
16 19 6 6 7 7 6 5 5 9 13 18 19 19 22 24 25 26 27 28 29 30 31 32 33 32 33 32 31 31 30 29 15 29 28 28 25 23 29 25 28 29 26
14 5 4 7 8 8 9 5 7 12 19 18 20 22 24 26 26 27 28 29 29 29 30 30 31 31 31 31 30 31 30 30 27 21 28 26 28 29 30 34 29 31 30
4 3 5 6 8 10 8 9 14 18 16 20 22 24 26 26 27 28 29 29 30 31 31 30 31 31 32 32 32 32 30 29 28 26 31 31 30 26 27 28 33 30 29
5 6 9 10 12 11 11 8 16 17 19 21 24 26 27 28 27 27 28 30 30 29 28 28 28 27 27 28 30 31 29 28 25 23 27 29 27 27 28 26 28 34 34
7 8 8 6 10 13 10 12 14 18 22 24 25 27 26 26 26 25 24 24 24 27 28 29 30 32 34 34 32 32 31 29 26 21 21 24 21 22 20 25 25 28 31
5 7 11 12 11 8 11 13 18 22 22 24 25 26 26 25 24 27 28 23 23 25 28 30 34 35 37 38 39 40 38 34 32 26 22 18 16 19 23 25 25 17 6
8 6 8 11 10 10 11 17 20 22 22 23 24 24 25 25 25 26 27 27 27 29 31 31 32 32 33 34 35 37 39 42 43 37 34 33 28 21 21 19 13 10 16
4 10 13 8 8 11 15 18 20 21 22 23 23 23 24 23 29 32 35 33 30 32 33 33 33 35 35 35 35 34 33 32 35 40 40 38 39 33 31 24 10 18 17
15 5 3 5 9 14 17 17 19 21 22 22 20 22 25 29 29 32 33 32 31 33 35 35 34 35 36 35 36 33 33 34 34 34 36 36 36 35 36 32 25 11 4
3 2 4 9 13 15 15 18 20 20 22 22 26 21 23 28 31 32 33 31 30 25 26 25 28 31 38 38 35 32 29 30 28 31 32 33 34 37 38 35 28 21 13
6 4 7 11 14 16 17 19 19 21 23 25 18 22 26 26 29 29 30 30 28 31 28 28 26 27 27 30 36 35 33 31 28 30 28 27 28 28 31 33 32 30 23
5 7 11 13 14 16 17 19 20 22 21 18 23 23 23 26 26 29 29 30 35 33 30 27 26 27 28 26 25 26 27 28 26 25 22 23 22 23 26 26 27 33 32
8 10 12 14 16 15 19 18 20 17 18 20 19 22 25 25 25 27 28 33 27 29 28 26 26 25 25 28 30 33 36 30 27 23 22 18 20 26 24 25 22 29 25
10 11 13 14 15 16 17 17 17 17 17 17 21 21 24 23 25 27 32 28 25 26 25 26 25 25 22 23 26 30 31 29 28 25 19 19 18 19 20 20 18 20 20
10 12 13 13 15 16 15 16 16 14 19 22 22 22 21 22 25 33 29 27 23 25 21 18 17 15 15 19 25 7 5 7 17 18 17 15 14 20 17 16 20 19 12
10 10 12 13 15 15 16 16 16 18 21 22 18 19 23 22 27 27 28 24 20 20 18 15 16 18 16 17 20 10 5 9 11 14 13 12 11 9 17 19 21 18 16
8 10 11 12 14 15 15 16 17 17 19 20 18 19 22 23 24 22 24 22 19 18 17 17 18 17 17 19 20 20 16 5 6 9 11 5 17 14 15 15 13 15 17
10 11 10 11 13 14 15 16 17 15 18 20 18 20 25 24 21 21 22 19 21 24 18 17 17 21 18 18 20 21 20 20 18 17 10 16 15 16 12 10 16 15 16
12 10 7 9 13 15 14 16 16 14 16 17 18 22 27 24 19 21 23 21 19 21 21 22 23 20 22 22 20 22 22 21 21 17 18 15 10 9 12 13 14 19 20
13 6 6 11 13 13 14 15 15 14 15 15 15 18 24 21 20 22 23 22 22 22 23 23 25 24 22 22 22 22 23 23 20 20 20 21 18 17 17 17 17 17 16
11 11 12 11 12 12 12 14 14 13 14 13 14 18 20 19 18 19 21 23 23 24 24 24 25 25 26 24 22 21 23 23 24 20 19 19 21 23 21 21 23 23 21
9 10 11 13 11 12 14 12 12 12 13 13 13 16 18 18 19 19 21 22 23 24 26 26 26 27 27 27 23 23 22 20 20 21 21 20 20 22 23 21 20 19 18
7 7 10 12 9 10 11 12 11 11 11 13 13 14 16 17 18 19 20 21 24 25 25 27 29 26 24 26 27 28 23 21 20 17 18 19 19 19 19 19 19 18 17
6 7 8 9 10 10 10 10 10 10 9 12 13 13 14 15 16 18 19 20 21 22 25 25 26 27 26 24 25 26 27 23 20 18 18 19 19 20 20 19 17 16 16
6 7 7 7 8 8 10 10 9 9 9 10 11 12 12 13 15 16 17 18 20 21 22 22 23 24 24 24 23 21 20 21 20 19 20 20 19 19 17 17 18 17 17
7 6 6 6 7 7 8 9 9 9 9 9 10 10 10 11 12 14 16 16 16 17 18 19 20 20 22 21 20 18 18 18 18 18 18 19 19 19 19 18 17 15 14

GFSGL_925_spd_009.txt.gz
Wind_Speed
19 12 5 8 10 12 13 11 4 1 4 9 13 14 19 23 27 28 30 30 30 31 32 32 32 29 28 26 26 27 26 26 17 25 28 27 29 30 31 35 30 27 21
11 4 9 10 10 9 8 7 4 3 2 8 14 16 23 24 26 27 29 30 32 31 32 30 32 30 30 28 27 26 26 26 27 22 26 27 29 29 30 31 34 32 33
7 9 11 9 8 9 9 4 4 3 8 11 19 21 22 25 26 29 31 32 33 32 33 33 31 29 28 27 26 23 24 24 24 25 22 21 22 24 28 32 34 30 35
8 10 9 8 8 5 2 3 4 11 14 15 18 24 25 26 28 28 28 30 29 24 23 23 26 27 27 28 27 27 26 25 24 27 29 28 24 23 26 28 29 33 35
4 6 10 9 6 6 7 5 6 11 17 21 22 23 27 24 25 25 22 23 23 25 28 29 29 31 32 34 33 34 32 30 27 28 30 27 26 22 18 18 25 31 28
7 7 8 10 7 7 5 9 13 17 21 19 22 21 23 25 21 19 20 27 29 28 28 30 32 33 35 36 37 37 36 32 29 28 29 24 25 24 16 13 14 12 3
3 5 8 9 3 7 11 11 15 15 17 19 21 24 25 17 20 27 31 31 29 29 31 31 32 30 30 32 33 34 35 36 38 35 33 29 26 24 24 21 19 12 6
6 6 2 4 10 4 8 11 14 14 17 23 25 19 20 26 28 32 30 30 30 33 34 34 33 35 36 34 33 32 32 32 32 33 35 35 32 29 29 30 29 24 19
8 9 3 5 4 7 10 11 14 18 22 21 17 26 24 24 29 30 30 29 29 31 32 32 35 34 34 35 35 32 32 34 34 37 39 37 33 32 30 26 23 22 14
5 9 7 7 9 9 9 13 17 16 19 21 26 15 25 25 28 28 27 25 26 27 29 30 32 34 34 35 34 31 28 30 31 29 29 33 35 34 34 34 26 20 16
7 7 7 8 9 10 14 14 17 18 21 18 19 26 24 24 28 26 26 27 27 29 28 28 28 28 31 33 31 31 29 27 28 28 28 26 26 27 28 29 31 25 18
6 6 7 9 13 14 12 16 17 18 15 19 22 23 25 25 24 24 26 27 30 31 31 30 31 31 26 27 29 30 33 28 23 24 23 23 22 22 24 29 33 32 32
10 10 12 14 12 11 14 17 17 16 15 19 19 20 22 23 23 24 27 30 31 28 25 27 25 22 20 19 18 22 28 28 25 23 23 19 24 25 24 25 28 28 31
9 11 12 9 13 15 14 15 16 14 18 17 17 18 20 19 22 24 28 29 23 21 24 21 22 19 17 17 18 21 18 21 24 25 23 23 21 22 23 25 22 23 24
11 11 10 13 13 15 14 15 15 19 17 20 19 18 18 19 23 28 24 25 21 19 19 21 20 20 19 20 20 19 9 9 7 14 14 15 17 18 18 15 20 16 10
10 11 10 12 13 14 15 17 16 16 16 18 17 14 23 20 25 21 21 18 21 15 16 17 17 18 16 18 20 19 15 5 1 7 12 14 13 13 15 14 17 16 12
10 9 10 10 13 14 16 19 20 15 18 19 16 17 20 21 20 21 19 16 18 20 18 17 17 18 18 19 20 19 18 19 4 2 6 6 13 7 11 14 12 14 12
10 12 11 7 13 14 17 15 17 15 19 20 16 20 21 20 20 21 20 17 20 22 18 19 18 19 21 21 21 21 22 23 21 18 1 7 13 12 12 11 12 13 14
16 15 6 7 11 12 12 13 14 15 18 16 15 20 21 18 18 20 20 20 16 18 20 20 22 22 21 22 24 24 23 21 21 21 21 15 8 11 10 10 12 14 15
10 9 7 12 12 11 10 14 13 13 16 15 12 15 19 18 19 20 21 21 19 20 21 21 22 23 25 23 24 24 22 22 21 20 18 17 17 12 12 11 12 13 12
9 9 12 13 12 9 12 12 11 11 14 13 12 15 16 16 16 17 18 20 21 20 22 20 22 24 26 26 26 23 22 22 21 20 19 19 17 19 17 17 17 16 17
9 8 11 11 9 10 11 10 10 10 11 12 11 14 14 16 16 17 17 20 21 20 21 21 22 24 26 26 27 27 23 22 19 18 18 17 18 18 18 19 18 17 16
6 6 9 8 9 10 9 10 8 9 8 10 12 13 14 14 15 15 17 16 18 20 21 23 24 24 25 26 26 25 24 22 19 16 17 17 17 17 18 18 16 17 17
6 7 8 7 8 8 9 9 7 8 7 9 10 12 12 13 14 14 15 16 18 19 19 21 22 22 23 23 24 24 23 20 18 16 15 16 17 17 19 19 17 16 17
6 8 5 6 7 6 7 8 7 7 6 8 9 9 10 11 13 14 14 14 16 17 19 19 20 20 20 20 21 21 20 19 17 17 18 17 16 16 17 18 18 19 15
7 9 7 6 4 5 4 5 5 6 6 7 7 9 9 10 11 13 13 14 14 16 18 18 18 20 20 20 19 17 17 17 18 16 17 19 19 19 19 19 20 21 18

GFSGL_925_spd_012.txt.gz
Wind_Speed
24 23 19 10 9 13 14 18 14 9 2 10 14 6 8 11 13 19 23 24 24 25 26 28 30 31 30 29 27 28 26 23 15 22 24 24 25 26 29 30 30 34 34
27 21 11 12 15 16 14 11 7 2 2 2 6 9 11 15 17 18 21 22 26 29 30 29 30 28 28 28 27 27 27 27 26 20 24 24 23 21 20 22 26 28 32
26 17 12 14 13 13 13 10 6 4 3 4 8 11 14 17 20 21 24 25 26 28 29 26 25 22 24 24 21 21 23 23 23 22 22 22 24 26 26 29 31 32 32
16 6 5 5 6 10 9 6 3 2 6 9 11 14 17 18 21 21 21 21 21 19 21 25 28 29 28 27 27 27 25 25 26 26 26 24 23 23 25 24 23 28 33
13 5 5 7 6 5 6 5 8 11 10 14 14 15 17 17 19 17 18 17 22 28 33 33 33 32 31 32 30 30 28 27 28 26 25 22 22 21 20 21 22 23 25
17 6 4 2 1 3 10 6 10 12 12 11 13 14 18 19 16 14 20 25 29 29 28 27 29 30 31 32 32 33 33 30 28 25 23 20 21 19 20 20 21 15 6
3 4 4 5 6 7 7 9 11 9 9 12 16 18 17 14 20 22 21 26 27 27 29 30 30 28 28 30 32 33 33 35 36 33 28 26 23 20 21 21 22 20 21
10 7 8 8 9 8 5 5 7 10 14 16 16 16 20 20 19 25 25 27 28 30 30 30 29 29 29 30 30 32 29 31 32 31 32 33 31 28 26 27 26 26 29
8 8 5 7 4 5 7 9 11 13 14 16 18 17 16 24 24 24 25 26 25 27 28 29 28 30 32 32 32 30 30 31 34 33 35 34 31 29 29 27 23 19 11
9 5 3 4 5 7 9 10 11 14 15 17 12 19 24 26 26 23 22 24 24 26 28 28 28 31 34 35 33 30 27 28 25 27 26 27 32 35 35 33 25 20 16
4 4 6 8 10 10 10 12 14 16 14 14 19 23 24 22 24 23 22 24 24 27 27 28 27 30 31 33 32 28 28 29 26 25 25 24 25 27 29 30 32 28 20
6 6 8 11 10 9 12 14 14 14 12 17 21 24 25 25 23 22 23 24 27 29 27 26 27 26 26 25 21 23 26 28 27 25 22 21 22 23 27 28 29 31 29
6 8 10 9 10 13 13 13 13 11 17 18 21 22 25 25 24 23 24 25 27 26 19 22 22 22 21 19 19 18 19 20 22 21 21 22 22 24 24 24 25 26 28
7 10 8 12 12 12 12 11 11 17 17 18 19 18 18 20 22 26 25 23 22 14 16 23 21 20 21 20 21 18 14 14 17 18 20 21 19 18 21 26 19 18 19
11 11 11 9 10 14 13 11 15 15 14 18 20 13 17 20 22 21 22 21 18 17 18 17 22 23 21 22 22 20 20 16 14 8 12 13 15 17 17 21 18 18 17
12 11 8 10 10 15 13 15 12 11 14 14 13 13 21 18 18 20 19 14 15 14 15 16 17 19 19 19 20 20 20 20 15 8 4 8 12 14 16 17 19 16 12
13 11 12 13 9 13 14 14 16 12 14 13 11 15 16 17 17 18 17 12 14 14 15 16 18 18 18 19 19 19 18 22 17 10 4 3 6 12 13 13 13 12 8
14 15 14 7 10 12 10 10 12 13 16 16 12 15 16 15 17 18 18 14 19 19 17 16 17 20 20 19 20 20 22 23 25 21 13 6 3 2 3 7 9 5 9
10 9 6 8 11 10 9 11 9 11 12 12 13 16 16 14 14 16 17 18 15 16 17 17 18 19 20 21 21 21 19 21 23 22 20 14 10 5 6 5 3 4 8
10 8 9 11 11 8 9 9 8 8 10 9 11 13 15 15 16 18 19 19 18 17 18 17 19 19 20 21 22 23 21 20 22 21 20 17 14 8 6 5 5 6 6
10 9 9 10 11 8 8 7 7 7 8 8 8 10 11 12 13 14 15 17 18 18 18 17 19 20 21 22 22 22 22 22 21 20 20 18 17 16 13 12 11 11 12
12 9 7 9 8 8 7 7 6 6 7 7 7 9 10 10 11 13 14 14 15 16 16 17 18 19 20 21 21 22 22 22 20 18 17 18 17 16 14 15 14 14 14
9 7 8 8 7 7 6 6 5 4 5 6 6 8 9 10 10 11 12 14 15 15 15 17 18 19 20 21 21 20 20 18 16 14 15 16 17 17 15 16 15 15 15
8 8 7 7 7 6 5 4 4 3 2 5 5 6 7 8 9 10 11 12 12 13 15 16 16 18 19 20 20 19 18 17 16 14 13 14 15 16 17 16 15 15 16
6 6 9 7 6 4 4 3 4 3 1 3 4 4 5 6 8 9 10 10 12 14 15 16 17 17 18 18 18 17 16 15 15 15 16 14 15 15 16 15 15 14 14
6 8 9 8 7 5 4 4 3 2 1 1 2 3 3 4 7 8 9 10 11 13 14 15 16 16 18 19 18 16 16 16 15 14 13 15 17 17 17 18 17 14 13

GFSGL_925_spd_015.txt.gz
Wind_Speed
21 25 30 32 25 17 13 11 17 16 6 4 10 16 8 8 9 14 15 15 16 17 19 22 24 24 26 25 25 26 24 22 14 23 24 25 27 28 28 29 27 25 25
22 26 28 24 16 10 12 13 12 8 5 8 5 3 6 11 13 13 15 16 18 21 22 22 25 25 25 26 25 27 27 26 24 20 23 23 26 26 24 24 28 29 31
25 29 27 19 12 11 9 8 6 2 4 4 6 8 10 10 12 14 16 17 18 19 20 21 22 20 22 24 26 25 26 26 24 23 23 23 24 27 29 28 28 30 33
25 24 23 15 10 7 3 2 4 5 10 13 12 11 11 11 13 14 17 19 17 17 19 23 27 28 29 28 27 28 28 27 26 25 25 22 23 23 27 26 26 26 29
22 21 11 1 4 8 4 9 14 13 9 14 12 11 11 14 18 18 16 15 19 24 28 31 29 28 27 28 27 28 27 25 24 23 22 22 19 18 20 23 25 24 27
13 8 3 2 2 7 9 5 6 10 14 10 9 14 17 15 12 13 19 20 23 27 29 28 29 29 29 29 28 30 30 27 26 23 20 18 20 18 20 22 23 18 10
9 8 7 8 10 11 14 15 12 10 8 11 12 13 13 16 17 16 18 24 25 27 27 27 27 25 25 26 27 28 29 30 32 31 27 24 25 23 22 21 23 23 22
14 11 10 10 9 10 8 8 7 8 10 11 13 15 13 16 20 24 23 24 25 27 27 27 26 28 28 27 29 29 31 32 32 30 31 31 31 29 27 27 27 27 28
8 8 7 10 9 9 7 9 9 11 12 14 13 12 18 24 25 22 21 23 26 28 27 27 26 27 30 29 31 30 30 31 30 30 34 34 31 31 29 25 23 20 11
1 3 4 5 6 8 10 9 10 13 13 10 14 18 22 24 22 22 21 23 22 22 24 24 25 27 31 32 32 30 28 29 24 24 26 30 33 35 35 33 27 20 17
4 3 5 7 9 9 10 12 13 12 12 14 18 20 22 22 22 24 21 21 23 24 25 26 25 25 26 29 27 27 28 28 26 24 24 25 27 28 30 30 32 29 21
6 6 9 10 9 11 12 12 12 11 15 18 19 24 25 23 22 26 20 21 23 25 27 22 23 26 26 25 25 24 25 25 21 20 21 21 21 24 27 27 29 30 31
8 10 11 10 10 10 11 12 12 16 17 19 21 22 25 22 29 24 25 21 24 25 21 19 22 23 21 21 21 20 19 19 18 18 19 20 23 25 23 22 25 25 26
11 11 11 11 9 10 14 12 14 17 19 18 20 20 18 24 25 26 21 27 23 17 18 15 18 22 20 19 21 21 18 15 13 14 18 19 17 16 20 24 20 22 19
12 12 10 10 11 13 15 14 15 15 14 19 19 16 19 20 22 23 23 23 18 16 14 17 21 22 20 22 22 22 23 22 16 17 15 8 8 11 14 16 19 15 11
11 11 12 13 14 13 15 16 12 14 14 15 15 15 20 20 20 21 21 18 14 13 13 14 17 19 17 18 20 21 21 23 22 17 12 9 7 8 10 13 15 14 13
12 14 15 13 9 13 16 15 17 17 14 15 14 14 17 18 18 19 20 14 13 14 15 15 16 18 18 20 20 19 19 23 22 20 14 11 11 11 11 13 17 14 13
11 10 12 9 12 15 15 12 15 14 16 18 15 15 16 17 17 18 19 13 18 19 17 15 16 18 20 20 22 18 18 22 24 22 19 17 16 14 13 10 5 0 4
9 11 11 11 13 14 11 12 13 12 14 14 15 17 18 15 14 16 17 18 15 15 18 17 18 20 21 21 22 22 18 19 23 23 23 20 17 14 13 14 11 9 5
12 9 10 11 14 11 11 11 12 11 12 12 12 14 17 16 17 18 19 19 18 18 18 18 20 20 21 22 23 23 23 20 24 25 22 20 17 13 11 9 10 7 7
12 14 11 11 11 10 12 11 11 10 10 10 9 12 12 11 12 14 15 16 17 18 18 19 20 21 22 22 23 23 23 23 20 22 21 19 17 16 13 12 11 10 9
15 11 9 11 10 10 11 10 9 9 8 9 9 10 11 10 10 11 13 15 15 15 15 17 18 20 21 22 22 22 23 22 21 20 18 18 17 15 14 14 13 13 11
12 10 8 10 9 10 10 9 9 9 7 7 7 8 8 9 9 10 11 12 14 14 14 15 16 18 19 20 20 20 20 21 19 16 16 16 17 17 15 15 15 14 13
7 9 7 11 11 11 10 10 8 8 6 6 6 5 5 7 8 8 10 11 12 12 14 15 16 17 17 18 19 19 18 18 18 17 15 15 16 15 16 16 16 14 14
9 7 8 11 11 11 10 9 8 8 5 5 5 5 4 5 6 7 8 9 11 12 13 14 15 16 17 17 17 17 16 16 17 17 16 16 18 18 16 16 14 14 13
7 9 11 11 13 12 11 9 8 7 6 5 5 4 4 4 4 5 6 8 10 11 12 13 13 14 16 18 17 16 15 15 16 15 14 16 17 17 16 16 15 15 13

GFSGL_925_spd_018.txt.gz
Wind_Speed
21 22 27 32 32 31 26 20 9 12 9 2 6 8 15 12 5 7 10 11 11 11 12 14 16 16 18 19 20 22 23 23 13 22 22 23 26 25 25 26 26 25 23
19 26 30 30 30 23 10 3 8 2 5 9 9 10 9 10 10 9 10 12 13 15 17 18 19 21 21 20 20 22 23 22 21 18 21 19 24 26 26 26 25 25 29
21 27 29 28 24 14 5 3 3 4 7 10 11 12 13 13 13 11 12 13 15 18 19 19 19 18 21 23 26 25 24 23 23 22 25 24 24 26 27 29 33 31 33
23 25 21 17 12 8 10 13 12 12 16 15 13 14 11 10 11 13 15 15 15 15 17 21 24 26 27 26 25 25 23 22 21 22 23 24 21 22 24 23 24 26 28
21 16 11 5 4 4 6 10 13 9 9 14 13 10 11 14 15 13 13 16 20 25 27 28 29 28 25 26 25 24 22 20 21 20 19 21 19 17 17 22 24 26 25
13 11 9 10 10 8 8 9 12 15 17 15 11 13 14 16 16 18 18 19 22 25 26 25 27 26 26 25 24 24 26 24 24 21 21 21 23 21 20 21 22 18 9
15 13 12 10 12 11 12 13 13 11 9 11 13 15 16 15 16 19 20 23 24 25 26 27 26 23 22 24 25 26 26 27 28 29 27 26 24 23 23 21 23 23 23
10 9 8 6 7 8 10 10 10 11 13 15 15 15 14 19 22 23 20 21 23 24 26 26 25 26 23 23 25 26 28 29 30 31 32 33 33 30 28 27 27 27 27
8 7 9 10 9 10 12 13 12 13 14 15 12 15 19 23 23 22 20 23 25 26 24 22 23 23 23 24 28 29 29 29 29 29 32 36 35 34 30 26 23 20 13
9 12 10 11 12 13 13 12 12 14 13 12 16 18 19 23 22 21 21 24 23 21 21 21 22 24 24 24 26 25 25 21 20 22 28 31 32 33 37 34 24 20 17
11 17 11 12 13 12 13 13 13 13 13 17 19 18 21 23 22 23 22 21 23 23 21 22 23 20 21 25 23 25 26 26 26 25 23 25 26 26 29 29 32 29 20
15 10 13 13 14 13 12 13 14 13 16 18 20 23 24 22 22 26 21 20 21 25 24 23 21 18 23 23 21 21 23 23 22 20 19 19 20 23 26 27 29 31 32
10 13 14 14 12 9 13 15 14 16 18 20 20 20 23 23 28 26 23 21 25 24 19 19 17 19 20 20 20 20 18 17 16 14 15 19 22 24 23 24 28 28 26
11 13 13 12 12 11 13 14 15 17 20 18 20 19 21 22 25 26 23 25 25 17 18 15 17 19 18 18 22 23 21 19 15 13 13 16 12 15 16 18 16 19 17
10 11 12 13 14 14 13 15 16 15 16 18 20 22 19 19 23 25 24 24 19 17 12 15 19 23 22 21 21 21 23 24 21 19 15 13 10 6 8 10 15 15 13
10 12 13 15 14 12 16 20 14 15 16 16 16 17 20 20 22 22 22 20 15 13 11 13 15 18 18 19 20 20 20 23 23 20 16 14 12 9 6 6 7 10 11
9 10 11 12 12 16 19 19 19 20 16 17 17 16 17 20 19 20 21 16 13 16 14 15 15 16 18 18 18 19 18 23 23 20 17 17 17 15 13 8 10 11 11
9 8 10 10 12 15 17 15 17 18 18 21 19 18 18 18 17 17 19 17 19 19 16 15 16 17 18 18 21 21 23 22 25 23 21 18 15 14 12 12 11 5 2
9 11 9 11 12 15 14 15 15 16 16 18 19 20 21 18 15 15 17 19 15 15 16 17 19 19 20 21 23 25 24 20 24 23 22 20 16 12 11 13 10 8 4
10 10 11 12 12 14 12 15 15 15 15 16 17 17 21 20 19 19 19 18 17 16 18 18 19 21 22 23 24 24 24 25 22 24 22 19 17 15 13 11 12 9 9
12 14 12 10 11 12 13 14 14 14 14 14 14 15 15 15 14 15 16 18 17 17 17 18 18 20 22 23 23 24 24 24 23 23 22 20 17 16 13 12 12 12 10
13 15 11 8 10 11 12 13 13 13 13 13 13 13 13 13 12 13 14 15 16 15 15 15 17 18 19 21 22 22 23 24 24 23 20 18 17 16 14 15 15 14 12
13 10 7 7 10 11 11 11 13 12 12 11 12 11 11 11 11 11 13 14 14 14 15 15 17 18 18 18 20 20 21 21 21 19 18 17 16 17 16 17 17 16 15
12 9 7 8 10 11 11 11 11 11 11 9 10 10 10 10 10 11 12 12 13 13 14 15 16 17 18 18 18 19 19 19 18 17 17 17 17 16 15 16 16 15 14
12 11 10 10 11 12 12 11 11 10 10 8 9 9 9 9 9 9 10 11 13 13 14 15 15 17 18 18 19 18 16 16 17 16 16 16 17 17 17 16 15 14 12
10 11 12 11 12 14 13 12 10 9 9 8 9 9 8 8 7 7 8 10 12 13 13 13 14 14 15 17 18 18 18 17 17 17 16 16 17 18 17 17 17 17 16

GFSGL_925_spd_021.txt.gz
Wind_Speed
15 13 19 21 22 23 20 17 11 1 3 6 6 6 8 8 8 8 7 6 6 6 6 8 10 12 13 14 15 18 19 20 15 26 24 22 24 24 23 23 24 24 24
19 18 21 21 20 16 9 6 4 5 8 7 9 10 11 10 9 9 9 6 7 9 11 13 15 15 16 15 15 17 19 20 22 22 26 25 25 25 26 26 26 27 26
16 18 16 13 11 7 5 5 6 5 9 14 16 12 12 10 10 10 10 11 12 13 14 14 14 13 15 17 19 21 22 23 24 25 27 26 26 26 27 27 28 28 30
18 16 11 8 4 5 4 6 7 7 8 7 10 12 11 10 11 11 13 13 14 15 16 17 18 17 19 20 20 21 21 22 22 23 24 25 23 23 24 25 25 24 25
15 12 8 5 6 6 5 6 7 8 9 12 16 13 12 13 9 13 15 16 18 19 20 20 20 21 21 22 23 23 23 23 22 21 22 24 23 20 20 22 24 23 24
16 13 9 9 9 11 11 9 11 13 12 11 9 11 12 12 15 16 18 19 21 21 21 21 21 21 20 20 20 21 23 23 23 22 23 22 25 25 23 22 21 21 12
12 9 8 10 8 10 10 11 11 10 9 10 11 12 13 12 17 18 18 18 18 19 21 22 22 21 20 20 20 20 22 25 28 29 28 29 28 27 25 24 25 25 24
11 10 11 12 11 10 11 12 12 10 11 12 13 11 13 16 19 20 19 18 18 20 21 21 21 21 18 19 20 21 23 24 25 27 30 32 31 28 27 27 27 27 27
9 8 12 11 11 12 12 12 11 12 13 12 12 14 16 17 19 20 17 18 20 20 18 17 19 20 21 22 23 25 25 27 26 29 33 36 35 34 33 28 24 22 16
9 11 13 10 11 11 12 12 11 11 12 12 15 14 15 17 19 17 18 19 19 19 20 19 19 20 21 20 19 22 25 26 24 24 25 26 27 30 33 37 30 23 19
9 12 10 11 11 10 10 10 11 12 12 15 17 16 15 16 17 19 18 18 18 20 21 21 17 18 21 16 19 20 21 23 25 23 22 22 20 21 22 22 26 27 24
11 9 9 10 10 9 9 11 12 11 13 14 15 16 15 17 17 20 18 18 20 21 20 18 14 17 17 17 14 16 17 16 14 14 14 15 16 18 20 20 21 23 26
9 8 8 8 8 9 10 11 12 12 13 15 17 19 20 19 18 20 20 20 21 21 15 17 14 15 15 12 12 14 14 12 12 11 10 12 14 15 15 15 18 20 24
7 7 7 8 10 10 9 10 11 13 15 16 18 19 20 20 20 22 22 22 21 14 16 9 11 12 11 12 12 12 12 13 12 10 11 12 11 8 6 7 10 11 14
6 6 7 8 9 8 8 10 12 10 12 16 17 18 19 20 21 22 22 22 16 15 10 8 10 13 15 16 16 13 12 15 15 13 12 12 10 7 4 4 6 7 10
6 5 6 8 7 8 10 12 10 10 12 12 13 14 16 17 20 18 20 18 15 12 7 9 11 12 14 15 16 15 14 16 17 15 13 12 11 10 6 3 4 6 8
7 6 7 7 7 8 11 12 14 13 12 13 14 13 15 17 17 17 19 15 13 12 10 10 11 12 13 14 15 15 15 16 16 15 14 13 12 10 9 8 4 6 7
5 6 9 7 7 9 10 10 11 12 13 14 15 14 16 16 15 15 17 13 12 14 12 11 12 12 12 13 14 15 15 16 16 16 15 14 12 11 10 9 8 6 3
5 7 7 8 9 9 9 9 9 10 11 12 14 13 17 15 12 13 15 12 11 12 12 12 12 13 13 13 14 14 14 16 16 16 15 14 13 11 10 9 8 7 6
7 8 8 8 6 8 8 9 9 10 11 11 12 13 15 15 14 14 13 13 12 11 12 12 13 13 13 14 14 14 15 16 16 16 16 15 14 11 10 9 8 6 6
7 9 11 9 5 7 8 8 8 9 9 9 9 10 13 12 12 12 12 12 12 12 12 12 12 13 13 14 14 14 15 15 15 16 15 15 14 12 10 9 8 7 6
10 9 9 5 6 7 8 7 7 7 8 8 8 9 11 10 10 10 10 10 10 10 10 11 11 11 12 13 14 14 14 15 16 16 16 14 13 12 11 10 9 8 8
10 9 6 5 7 9 7 7 7 7 8 7 6 8 8 8 9 9 9 10 10 12 13 12 11 12 14 14 15 15 14 15 16 16 15 13 13 12 12 11 11 10 10
11 9 9 7 7 8 8 7 7 8 8 6 5 6 6 6 7 7 8 9 10 11 12 13 13 15 16 17 17 16 16 16 16 16 15 14 12 12 11 10 10 10 10
8 6 7 8 8 9 10 8 8 7 7 7 5 5 4 4 5 5 6 8 10 11 12 12 13 13 14 15 16 17 15 15 15 15 15 14 13 13 13 11 10 10 10
8 8 8 9 8 9 9 9 8 8 7 7 6 6 5 4 5 5 6 6 8 10 11 11 11 12 13 14 15 15 15 16 16 15 14 14 14 14 11 11 12 10 11

GFSGL_925_spd_027.txt.gz
Wind_Speed
18 20 20 20 20 19 20 19 18 12 8 9 11 10 11 11 11 11 12 13 12 14 14 16 18 19 19 19 18 19 19 20 13 20 22 21 21 22 23 22 22 23 24
20 20 20 19 19 18 14 12 14 13 13 13 13 14 11 13 14 14 16 15 16 18 19 20 22 22 21 20 21 21 22 23 22 19 22 22 23 23 24 24 24 27 26
19 18 18 19 17 13 15 14 12 14 15 15 12 13 17 19 19 18 19 19 20 23 24 23 22 22 22 21 21 22 22 23 23 23 23 23 24 24 24 24 25 26 27
18 18 19 16 15 13 9 13 13 13 15 15 16 18 19 18 19 19 16 17 22 23 23 23 23 23 23 23 23 22 22 23 23 24 24 24 24 24 23 22 22 23 24
17 17 15 12 12 10 10 10 13 14 16 19 20 20 19 19 19 10 12 19 23 25 25 25 24 22 22 25 25 23 22 23 23 23 22 21 21 20 22 22 22 21 22
17 16 13 11 12 12 13 14 15 18 20 21 20 20 20 20 15 15 15 19 23 25 25 25 25 24 24 20 18 19 21 23 23 21 22 22 23 22 22 22 21 19 10
16 15 13 13 13 13 14 16 17 19 21 20 20 20 19 20 13 17 21 21 24 24 25 25 25 25 24 22 19 19 20 21 24 26 26 27 26 26 26 25 24 22 22
16 15 13 12 14 15 16 17 19 20 20 20 20 19 20 20 18 20 19 22 22 24 24 25 25 25 24 22 21 22 22 22 23 25 28 30 28 27 25 27 26 26 26
17 12 13 14 15 17 17 18 18 19 19 19 18 19 21 21 21 16 21 22 23 24 24 22 22 24 24 22 18 19 22 24 23 23 25 28 32 34 34 29 26 23 16
16 14 15 16 15 17 16 17 17 18 18 17 14 20 20 21 18 19 17 20 22 23 22 22 23 25 26 24 16 15 21 23 20 20 22 25 26 27 28 31 28 24 22
17 14 17 17 16 15 14 16 18 18 18 10 16 16 19 17 18 19 15 16 22 24 23 23 22 19 16 16 17 18 20 20 20 21 23 23 23 22 21 21 26 27 25
17 17 18 15 13 13 14 16 18 17 15 14 15 17 17 17 19 18 12 18 21 23 24 25 20 23 20 21 19 17 17 18 18 19 17 18 18 13 12 15 19 23 26
17 18 17 14 12 13 15 17 16 15 14 14 15 17 18 19 19 17 19 23 21 24 24 20 23 17 18 16 13 15 14 14 12 13 13 14 15 15 16 13 14 15 16
17 16 14 13 10 13 14 14 13 13 12 12 17 17 19 20 19 19 23 23 23 22 21 21 16 13 14 15 11 10 9 9 10 12 12 13 14 14 12 9 12 10 11
13 12 14 11 10 10 13 11 12 12 8 12 14 15 18 19 20 23 22 23 23 20 21 14 12 13 14 13 12 10 10 9 10 11 12 12 12 14 13 8 7 9 11
8 12 12 8 9 10 11 12 11 10 12 12 11 9 12 15 20 20 20 21 18 18 15 11 12 13 14 15 15 15 13 14 13 13 12 12 12 13 14 16 11 7 9
8 12 10 7 8 9 9 11 12 11 11 12 10 9 7 13 17 18 19 19 13 12 11 12 12 13 14 15 15 16 16 16 15 14 13 12 12 12 12 13 13 14 13
8 10 9 9 7 6 8 9 10 12 12 13 7 8 8 12 15 14 16 16 11 10 11 12 13 13 14 15 16 16 17 16 14 14 13 12 12 12 11 10 11 11 11
6 7 6 8 8 8 9 10 10 10 10 13 12 8 10 15 13 9 11 12 12 12 12 12 12 13 14 14 15 16 17 16 16 16 15 14 13 12 12 11 11 12 11
8 7 8 9 9 9 8 8 9 10 10 11 12 11 11 15 12 10 10 10 10 11 12 12 13 13 13 14 15 16 17 16 16 16 17 16 15 13 13 12 12 12 11
7 7 7 9 10 8 7 9 8 9 10 10 11 5 8 8 10 10 9 9 10 10 11 11 11 12 13 13 14 15 16 17 17 18 18 18 17 16 15 13 12 12 12
7 7 7 8 7 7 7 9 8 9 9 9 10 8 7 6 8 9 8 7 8 8 8 9 10 10 11 12 13 14 15 16 16 18 18 19 18 16 16 13 13 14 12
6 8 9 9 8 8 9 9 9 9 9 9 9 9 9 8 8 8 8 7 7 7 8 8 8 9 10 10 11 12 13 14 14 16 16 17 17 17 16 14 13 14 15
7 8 8 8 9 9 10 10 9 9 9 9 9 8 8 8 8 7 7 6 6 7 7 7 7 8 9 10 10 11 11 14 14 14 13 15 14 15 14 13 14 13 13
7 8 9 9 10 10 11 10 10 9 9 9 9 7 8 7 8 7 7 7 7 7 7 6 6 8 8 10 12 12 13 13 14 14 12 13 13 13 13 12 14 13 13
8 9 10 11 11 10 9 10 10 9 10 9 8 8 7 8 8 7 7 6 6 6 6 6 6 7 8 8 11 12 13 13 13 12 13 11 12 12 12 12 14 12 12

GFSGL_925_spd_030.txt.gz
Wind_Speed
18 19 19 19 18 17 13 15 14 15 14 15 15 15 16 18 15 15 15 16 16 15 16 17 17 19 22 20 17 17 18 20 13 21 23 24 23 22 19 20 20 22 21
17 18 18 17 18 17 17 15 15 14 14 15 15 14 14 17 18 19 18 18 19 15 17 19 21 20 21 20 19 20 20 21 20 16 18 19 22 21 21 20 22 20 21
16 17 18 17 12 13 13 13 16 17 15 14 16 16 18 19 19 19 20 18 11 17 21 25 25 24 23 21 22 22 21 21 22 21 20 21 23 24 26 24 22 22 22
17 17 18 10 11 11 13 13 14 13 13 15 16 18 20 21 21 18 13 15 16 18 21 24 27 27 25 23 16 20 22 24 22 21 21 20 20 21 25 22 15 17 20
18 17 18 7 9 10 15 16 16 15 16 17 19 19 20 20 13 14 15 14 16 20 23 24 26 27 28 26 25 22 20 20 19 18 18 19 18 18 16 16 18 18 21
21 18 20 11 11 11 14 15 16 16 17 18 18 19 19 18 14 15 17 20 19 20 24 26 26 25 25 21 17 16 17 17 18 18 20 19 21 21 20 18 18 17 6
21 21 15 8 7 12 16 17 17 16 16 17 18 18 15 17 15 20 20 23 20 22 23 25 25 23 25 22 20 19 18 17 19 24 23 24 22 24 24 23 22 20 20
21 18 18 8 12 12 15 16 14 15 17 16 17 11 15 17 22 25 26 22 23 21 22 26 25 27 25 25 26 24 25 22 22 22 25 31 27 27 25 22 21 20 22
22 25 17 12 9 11 14 14 13 16 17 16 11 13 16 20 24 22 22 23 19 20 23 24 23 25 27 26 27 23 24 23 19 20 24 26 26 26 27 26 24 20 19
24 11 10 17 17 8 11 12 14 16 15 13 11 16 16 20 20 21 21 18 19 20 22 23 24 24 22 11 15 16 18 20 20 22 23 23 27 28 29 27 27 22 19
21 23 8 10 17 9 9 12 15 16 12 11 14 18 20 18 20 20 17 14 17 20 22 23 25 24 21 22 18 20 21 20 21 20 22 24 23 24 26 26 26 28 22
23 24 14 17 10 10 13 12 14 14 11 12 15 18 18 17 17 18 14 17 22 22 23 25 24 28 23 20 19 17 17 17 20 20 20 19 18 18 17 14 14 18 23
23 14 14 6 8 10 10 13 13 11 10 12 13 17 17 18 19 16 20 24 22 24 24 25 25 23 17 17 18 17 15 17 18 13 13 14 15 18 18 19 14 13 16
22 13 10 8 8 10 7 12 12 10 10 10 12 14 15 17 19 21 24 23 22 24 25 24 23 15 16 18 18 17 15 11 12 12 13 15 15 15 16 18 11 13 11
10 10 9 10 9 7 9 11 11 10 12 12 13 12 12 15 17 22 22 22 24 22 24 21 15 17 17 19 19 20 19 18 16 16 16 16 15 16 16 17 18 14 12
13 11 8 7 8 9 10 10 11 14 15 14 14 13 13 12 16 19 20 21 20 17 18 14 14 15 15 17 17 18 17 17 18 17 17 15 15 15 17 17 16 16 14
11 9 10 9 9 7 8 9 10 15 15 14 14 14 11 11 16 18 18 20 18 12 12 14 13 15 16 17 17 17 18 20 19 20 18 17 16 16 17 13 16 16 16
8 8 8 8 10 10 9 11 14 11 13 13 15 10 7 9 17 16 14 15 16 15 14 14 14 15 16 16 18 19 21 19 19 21 21 19 18 18 14 14 14 14 14
7 9 8 10 10 10 11 13 11 11 12 13 14 9 2 14 16 11 11 12 13 13 14 14 14 15 15 16 18 19 20 19 19 20 21 22 22 17 16 14 15 16 14
10 5 9 10 11 11 12 10 10 11 11 12 12 9 9 17 11 12 11 11 11 12 14 15 14 14 15 16 17 18 18 19 19 19 20 22 24 19 19 16 16 16 14
11 6 9 12 11 11 10 11 10 11 11 12 12 10 9 10 9 9 10 9 10 11 12 13 14 14 14 15 16 17 17 17 17 19 19 22 23 20 21 18 16 17 15
10 10 10 10 11 11 11 8 13 12 12 12 11 10 10 10 8 8 8 9 10 9 10 12 11 12 13 13 15 15 16 17 18 18 17 20 21 21 21 18 17 16 17
9 9 11 12 11 11 12 13 13 12 11 10 11 11 9 9 8 8 7 9 9 10 11 11 10 11 12 11 11 12 14 17 17 17 16 19 19 19 20 19 19 18 18
10 10 11 12 12 12 13 14 13 11 12 12 11 10 9 9 8 8 9 8 9 8 10 13 9 10 12 11 14 14 14 15 15 16 12 18 17 17 16 16 17 18 18
13 12 11 12 12 12 13 13 13 13 12 12 12 11 8 8 9 9 7 8 7 9 10 12 10 11 10 10 14 15 14 14 13 12 12 14 13 15 13 15 16 16 17
14 13 14 14 14 14 13 14 13 13 12 12 12 11 10 10 10 9 9 9 9 8 9 10 9 10 9 9 13 14 14 13 12 9 11 13 12 13 15 14 15 15 16

GFSGL_925_spd_033.txt.gz
Wind_Speed
14 16 15 15 12 9 10 12 13 16 13 14 16 15 16 16 16 17 18 19 17 16 10 9 13 16 19 21 19 18 17 17 12 19 22 21 22 18 16 16 18 11 20
13 14 14 16 10 11 10 12 16 19 17 17 16 16 17 17 17 18 15 13 5 6 10 14 20 23 23 24 24 21 21 17 16 13 14 17 20 23 24 23 20 17 17
12 12 16 18 10 10 9 10 12 16 16 15 15 15 15 16 17 16 9 9 11 14 18 20 21 24 26 27 28 29 21 18 20 20 17 21 22 22 24 23 22 21 22
10 14 16 14 12 8 6 9 12 12 13 12 17 16 16 18 13 11 14 15 16 18 20 22 24 23 23 25 26 25 24 23 22 21 18 15 15 19 21 18 19 18 17
17 17 20 20 11 5 7 8 11 10 10 12 15 16 15 10 11 13 15 18 21 23 24 25 22 21 21 21 17 17 17 18 19 17 16 15 16 19 18 23 23 21 23
16 19 22 31 12 10 9 12 10 10 10 8 11 11 7 9 10 16 21 21 23 22 24 23 23 21 19 22 18 18 17 18 17 14 14 14 19 19 21 20 21 19 6
23 23 24 15 9 11 10 12 10 9 9 9 10 5 7 11 14 21 21 21 21 23 22 22 27 22 24 23 23 24 22 18 19 21 20 21 19 25 22 21 20 20 18
22 24 16 6 10 14 16 11 4 6 10 12 3 5 10 15 19 20 19 22 21 21 21 22 25 27 25 26 25 25 26 25 22 20 21 25 23 25 26 23 23 21 18
19 22 20 21 14 11 10 6 10 10 11 0 4 9 14 18 18 20 22 19 21 19 19 21 24 26 25 23 20 16 17 18 17 15 18 19 20 21 20 20 18 16 18
24 19 19 15 6 5 7 10 5 9 1 3 7 12 17 18 18 19 16 18 17 19 20 22 21 22 23 21 25 19 17 21 23 21 22 24 23 23 21 21 24 20 19
23 26 20 16 10 8 6 6 7 5 5 7 12 15 17 16 16 16 14 17 20 20 19 21 23 23 26 24 20 18 21 20 20 19 20 22 18 16 16 16 22 26 21
23 20 18 16 8 3 5 7 5 5 6 9 14 15 15 15 18 15 19 21 20 22 21 23 26 26 24 16 16 19 18 15 18 18 16 17 18 16 14 15 17 15 17
19 16 11 13 10 6 6 5 7 6 9 12 12 14 13 17 17 18 24 19 20 21 22 23 22 17 18 16 17 17 18 16 12 11 8 11 14 14 12 12 13 6 10
14 14 14 13 12 5 7 9 8 8 11 12 12 14 15 16 18 20 24 23 24 23 23 22 15 18 17 18 20 19 18 19 16 15 15 15 14 15 14 13 14 16 10
15 16 15 12 5 7 8 7 7 10 12 14 13 13 15 14 14 17 20 21 22 21 16 15 16 19 17 18 18 20 20 20 19 18 17 15 15 16 15 14 14 13 11
12 14 9 9 7 7 7 7 8 11 14 14 14 14 13 11 13 17 17 18 18 18 15 15 15 17 15 16 17 18 20 20 19 18 17 16 15 16 16 14 14 15 14
10 7 8 8 8 11 11 11 14 14 11 15 13 13 10 9 12 16 14 14 16 14 15 15 15 16 15 15 16 17 18 20 19 18 18 18 19 19 15 15 15 15 15
7 6 7 8 11 11 10 11 11 11 14 16 14 12 8 6 14 10 11 14 15 14 15 14 15 16 15 15 17 17 19 19 19 20 19 21 22 18 17 16 16 16 13
7 8 6 8 10 11 11 11 11 9 12 13 13 11 4 7 10 9 11 11 10 12 15 14 15 15 16 16 18 19 19 19 18 19 20 21 23 19 19 17 18 16 14
11 9 5 10 11 11 12 13 8 11 10 12 12 10 8 9 9 8 9 9 10 11 12 13 13 14 15 15 17 18 18 20 19 19 19 21 22 21 20 19 18 17 16
5 8 10 11 10 12 12 10 11 10 14 13 13 11 9 9 10 7 8 8 9 10 11 13 11 12 14 14 14 16 16 18 18 18 18 20 20 22 20 20 17 19 16
9 10 10 11 12 12 12 11 13 15 14 13 12 11 10 10 9 7 8 9 8 9 10 12 11 10 13 12 13 14 15 17 18 18 17 18 18 21 18 19 18 18 19
10 10 10 12 12 12 13 14 15 16 14 12 13 13 13 12 9 9 10 9 8 9 10 11 12 10 12 11 12 15 15 15 15 14 14 16 17 18 16 18 17 18 19
10 12 12 12 14 14 15 14 13 12 12 14 13 13 13 12 10 10 10 9 8 8 10 10 12 10 11 9 11 15 16 13 12 10 11 12 15 16 13 15 16 16 17
14 16 16 16 14 15 16 17 16 16 15 12 12 12 13 11 11 10 9 9 9 9 10 11 11 10 10 8 11 16 14 12 10 9 9 10 10 12 13 12 14 14 16
18 18 17 17 17 17 15 15 17 15 16 15 12 12 10 11 13 11 11 11 10 10 9 10 10 9 8 9 12 14 12 11 8 7 7 10 11 9 12 13 11 13 14

GFSGL_925_spd_036.txt.gz
Wind_Speed
7 9 9 8 11 11 11 8 8 12 12 12 12 11 11 13 14 14 15 15 13 8 5 8 11 12 19 21 23 22 20 20 10 13 12 10 10 13 16 18 16 15 15
8 8 9 14 16 16 16 12 8 10 10 9 9 10 10 12 10 9 9 4 7 9 12 15 18 20 22 24 23 23 22 22 22 13 13 13 18 20 20 19 17 15 15
11 15 18 18 19 19 17 12 9 10 10 9 6 9 11 8 8 4 4 5 7 10 14 17 20 22 24 23 23 24 23 23 21 20 15 13 10 11 18 19 15 9 8
15 17 18 19 21 19 16 13 12 11 10 9 5 4 8 9 6 5 7 11 16 18 18 18 19 18 20 21 22 18 16 18 17 19 19 17 12 13 18 19 20 20 21
21 19 18 23 19 17 19 14 14 14 9 9 7 4 8 7 6 6 12 18 19 17 16 17 16 16 18 18 17 17 14 17 17 14 11 10 14 17 15 18 19 19 19
20 24 25 25 20 15 16 19 15 11 15 8 3 8 7 5 5 13 17 17 16 17 19 18 19 18 16 20 18 18 19 18 18 16 15 14 17 19 18 19 17 16 3
18 14 17 19 13 8 12 13 19 18 14 4 8 5 2 6 9 12 13 15 17 16 19 20 21 17 24 23 24 22 22 21 20 21 18 18 19 23 20 19 19 17 14
14 13 14 13 15 15 15 9 6 4 9 13 6 1 5 8 11 12 14 14 13 16 17 17 20 25 23 21 23 23 22 17 15 16 20 23 22 23 21 20 22 22 20
13 15 19 17 20 19 12 10 16 14 12 6 3 3 8 10 10 12 14 15 16 18 20 22 23 22 21 21 22 22 22 22 23 20 19 20 18 17 17 16 16 14 10
12 17 20 17 17 15 12 13 13 6 3 4 3 6 7 9 12 11 14 19 22 19 18 20 20 20 21 23 24 24 20 20 21 21 19 17 17 20 20 20 23 18 14
13 17 16 14 11 11 10 6 3 2 4 2 6 6 7 11 13 12 15 19 19 19 19 20 22 22 23 16 17 17 20 20 22 22 21 19 16 15 15 15 18 22 19
13 14 12 12 14 9 3 6 4 6 1 4 5 7 9 11 12 14 17 16 18 18 22 22 24 18 19 16 15 16 15 14 12 14 15 15 14 12 10 10 10 13 16
8 9 13 13 12 9 1 3 3 1 3 6 6 9 10 11 12 16 18 16 20 20 19 18 14 16 15 15 16 15 14 16 15 13 11 11 11 10 8 7 7 5 5
10 11 14 13 10 4 4 1 3 3 7 8 9 10 11 12 13 16 19 18 21 21 14 14 15 15 15 16 17 17 18 18 15 14 13 12 10 11 9 10 9 9 6
17 13 10 8 3 4 3 3 4 5 8 10 10 11 12 13 12 14 17 17 18 16 15 13 16 17 16 16 19 19 19 19 18 18 16 14 13 12 11 10 8 9 6
17 10 6 5 4 5 7 5 6 8 7 10 9 12 10 11 10 14 12 11 15 13 13 14 15 17 15 15 17 17 18 20 20 18 17 16 15 14 12 13 11 12 10
16 6 5 5 6 9 8 9 10 9 8 11 10 10 8 8 8 12 9 10 11 13 13 13 14 15 15 15 16 16 16 18 17 17 17 18 18 17 15 15 14 14 12
7 7 6 5 8 10 9 9 10 11 10 13 11 9 9 5 9 6 7 11 12 13 13 11 13 13 14 14 16 16 16 18 17 16 18 18 18 18 16 16 16 14 14
8 9 11 2 7 10 11 11 11 7 10 12 13 10 10 7 8 6 9 9 8 9 11 12 10 11 13 13 14 15 16 17 16 14 17 18 18 18 17 16 16 14 13
9 8 5 8 11 11 11 11 11 10 10 12 13 12 11 9 9 8 7 7 7 8 9 10 9 9 12 12 12 14 15 18 18 16 16 17 17 17 17 16 15 16 15
10 12 10 11 11 11 11 13 11 10 13 15 14 13 11 10 10 10 8 8 7 7 8 9 10 9 11 11 11 14 14 15 15 15 15 16 16 17 16 14 13 15 15
11 12 11 10 11 12 12 12 12 15 16 17 15 13 11 12 12 11 10 9 7 7 7 8 10 9 9 10 10 14 15 15 14 14 13 15 15 15 14 14 13 14 15
13 13 12 11 12 14 14 13 14 14 14 14 13 14 13 13 13 12 11 9 8 7 7 8 9 9 8 8 9 12 16 14 12 11 12 13 13 15 12 12 13 13 15
17 18 18 17 17 16 15 14 15 15 15 15 14 13 11 12 13 12 10 9 8 8 7 7 8 9 8 8 8 12 14 11 9 8 9 10 11 13 11 12 12 11 13
18 18 21 20 20 20 19 18 17 13 14 13 15 14 11 11 11 11 9 9 9 9 8 7 8 8 8 9 9 12 11 10 7 6 6 8 9 7 10 10 11 11 12
23 23 24 21 21 20 22 20 16 16 15 14 14 14 14 13 11 10 10 9 10 9 9 8 8 7 8 8 9 10 10 9 6 5 5 6 8 5 6 9 8 9 10

GFSGL_925_spd_039.txt.gz
Wind_Speed
7 10 11 15 15 14 17 17 16 14 13 11 11 10 8 7 7 9 11 10 9 5 4 6 9 12 14 19 21 21 22 20 12 19 21 20 16 13 16 18 18 16 14
9 13 16 16 15 17 19 20 20 16 12 14 13 13 13 10 11 8 9 5 5 7 10 14 17 19 21 22 22 22 22 22 21 17 19 20 17 16 13 15 16 13 12
14 16 19 21 19 20 20 21 20 16 14 14 14 14 13 10 9 7 5 6 8 11 15 17 16 18 20 20 21 22 22 19 16 18 16 17 16 14 13 15 16 15 16
16 17 18 20 20 20 18 17 18 17 18 18 17 13 15 9 7 6 6 9 15 17 15 14 16 16 17 19 21 19 16 19 15 15 15 13 13 13 13 16 19 17 19
18 17 15 16 18 21 20 21 17 18 16 11 12 18 14 7 8 5 10 15 17 17 16 16 18 17 18 17 17 21 23 18 16 15 15 13 13 15 17 14 15 17 18
18 11 13 16 15 15 17 16 18 16 13 20 9 5 12 10 4 10 14 16 17 17 19 19 21 20 17 17 22 21 21 22 19 17 17 16 16 19 19 18 15 13 3
10 9 10 14 15 18 21 20 20 20 14 2 4 10 8 4 7 11 12 14 15 16 18 19 19 15 21 23 22 21 22 22 22 24 21 19 19 20 21 19 17 15 13
7 8 12 16 19 23 21 17 18 10 11 8 11 5 2 5 8 10 12 13 15 17 20 20 20 22 22 21 22 23 22 23 24 21 21 22 22 22 22 22 21 15 16
12 12 15 17 19 18 14 16 15 15 10 7 5 1 5 8 8 9 12 15 19 20 17 20 19 20 19 19 23 26 26 25 22 20 20 21 22 21 20 15 14 11 11
15 15 15 14 15 13 13 11 12 9 5 5 2 3 5 6 8 7 11 16 18 17 19 20 18 17 20 19 19 22 20 21 21 21 22 21 18 18 18 22 23 17 13
19 14 13 11 14 14 13 7 1 3 3 4 2 4 4 6 7 8 12 14 17 19 19 19 21 18 17 19 17 18 18 17 16 14 17 18 16 14 14 16 20 23 18
16 12 11 15 17 14 11 9 8 5 4 2 4 5 5 7 7 10 12 13 16 18 19 18 18 18 17 16 16 17 16 13 15 15 14 13 11 11 10 8 11 15 18
13 12 15 14 15 13 3 2 2 3 3 3 5 7 7 8 8 10 14 14 15 17 15 15 15 15 15 15 16 16 16 17 17 16 14 13 12 11 11 9 4 5 12
16 18 16 13 11 4 3 3 4 3 2 5 6 7 8 10 9 11 17 14 17 17 16 13 13 13 13 15 17 17 17 18 17 16 16 15 12 12 11 8 5 7 3
18 19 13 8 7 2 3 1 1 4 6 6 9 10 12 11 10 10 14 13 15 15 14 12 15 17 17 16 17 17 18 18 20 19 18 17 15 13 12 9 6 7 5
17 16 8 5 1 3 6 7 7 7 6 6 8 9 9 9 9 10 10 9 11 12 11 12 14 15 16 14 16 16 17 18 19 17 17 17 16 15 14 13 10 7 7
14 12 3 3 4 7 10 10 9 9 9 8 7 8 7 7 6 8 7 9 10 11 11 9 10 12 14 13 15 14 16 18 15 15 16 17 17 16 15 14 14 12 12
9 9 7 9 8 8 8 10 10 11 11 10 9 9 7 6 7 6 7 9 10 9 9 9 8 9 12 11 13 14 16 17 16 14 16 17 17 15 15 14 14 13 13
9 9 11 8 5 8 10 12 12 13 9 11 12 10 8 8 9 9 9 9 9 8 8 8 8 8 10 10 10 12 12 14 14 13 15 16 16 16 16 14 14 12 12
10 10 10 11 10 12 11 12 11 11 12 11 13 14 12 10 11 11 10 10 10 9 7 8 8 8 9 10 9 12 12 14 14 13 14 14 15 14 14 14 13 14 14
13 12 13 13 14 12 12 14 14 14 14 14 16 14 12 12 13 13 12 11 11 9 8 7 8 8 8 9 8 11 12 12 11 11 12 13 14 14 13 12 11 13 14
16 17 14 13 13 12 13 14 15 16 16 16 16 13 12 13 14 14 14 12 11 10 8 8 7 8 7 8 8 10 13 12 10 10 11 11 12 12 12 11 11 13 14
16 16 18 17 16 16 17 16 16 15 16 15 15 15 14 16 15 15 14 11 10 10 9 9 8 8 7 8 7 8 12 12 10 8 9 10 11 12 10 10 11 12 14
17 18 19 20 21 21 21 22 20 19 17 16 15 16 17 16 15 14 14 11 10 10 10 9 9 8 8 7 7 7 10 9 8 7 8 9 10 9 9 9 9 10 11
25 23 23 24 24 25 23 22 23 22 20 17 17 17 16 15 15 14 12 12 11 11 11 10 9 9 8 7 7 8 8 9 7 6 6 7 8 6 7 8 8 9 10
25 27 26 25 26 27 26 24 24 24 22 20 18 18 17 17 18 17 14 12 12 12 12 12 11 10 9 8 7 8 8 8 7 6 6 6 7 5 4 6 7 7 8

GFSGL_925_spd_042.txt.gz
Wind_Speed
9 11 13 16 16 16 18 21 22 22 20 17 14 14 12 12 11 12 13 11 11 11 8 9 11 14 17 19 22 22 23 20 14 26 22 26 26 23 23 18 18 19 17
12 15 18 19 19 20 20 23 22 21 21 18 16 14 13 13 13 13 10 11 8 8 10 14 18 19 21 20 20 20 21 21 20 21 23 21 23 20 19 20 18 18 16
12 13 15 16 16 15 17 18 19 21 21 20 18 15 13 10 13 10 11 7 7 11 14 18 19 19 22 21 20 20 21 19 19 19 22 18 19 19 20 20 19 19 17
12 13 11 10 13 17 20 20 21 23 21 18 17 16 12 11 12 7 7 8 12 15 17 18 19 20 22 22 22 21 17 19 19 21 20 19 17 19 18 19 20 21 20
15 14 9 12 14 17 20 23 24 21 17 15 15 16 9 1 7 10 9 13 16 19 20 20 21 21 22 22 21 18 21 20 19 19 18 17 17 15 16 16 16 20 21
15 10 11 13 15 18 20 22 22 18 17 14 9 3 1 9 6 6 11 15 17 18 20 23 24 23 20 18 21 23 23 23 20 19 18 17 18 17 20 20 17 11 5
12 13 14 14 16 18 20 20 15 16 10 8 6 6 8 1 4 9 13 14 16 18 21 24 23 18 21 22 22 21 23 23 23 24 21 17 18 18 19 20 20 15 13
16 17 15 15 17 18 20 18 14 11 13 10 10 5 1 3 7 11 12 13 17 21 21 20 20 21 22 19 22 25 27 26 24 23 23 25 25 24 23 22 22 24 23
18 18 16 15 17 19 19 19 16 13 11 9 4 3 3 5 7 8 10 15 18 19 19 20 18 19 18 20 22 22 22 23 19 19 22 22 22 22 22 21 20 18 9
22 22 17 15 15 18 21 20 18 13 6 4 3 3 5 7 7 7 9 13 16 19 21 20 18 16 19 20 20 21 19 18 23 23 21 19 18 18 19 21 23 17 12
21 19 15 14 16 19 19 15 8 0 4 4 4 5 7 7 8 8 9 13 15 18 21 19 19 18 20 19 18 19 20 20 18 17 17 16 14 13 14 14 21 25 18
19 17 16 17 17 18 17 15 10 8 2 2 5 7 7 8 9 8 9 12 13 16 19 19 20 19 18 17 16 18 17 16 17 17 16 15 16 16 16 15 12 16 22
17 15 16 20 16 13 8 4 1 3 4 5 6 8 8 8 9 8 10 11 12 15 15 16 15 15 14 14 15 15 16 18 18 16 15 16 16 16 16 14 11 5 12
13 16 20 16 12 10 5 4 4 4 5 6 7 8 9 10 9 7 11 10 13 15 17 14 13 13 13 13 16 16 16 17 16 16 17 18 16 15 13 12 8 11 6
14 18 16 12 8 2 3 4 6 6 8 11 10 11 11 12 9 7 10 10 11 14 16 12 13 16 18 17 18 17 17 19 19 18 18 18 15 15 15 14 11 9 7
18 13 14 7 6 4 5 9 10 12 10 11 10 11 11 10 9 7 7 6 8 11 13 12 12 13 15 15 16 16 17 20 18 16 16 16 15 15 15 15 14 12 10
18 15 11 11 10 10 7 10 12 12 12 12 11 10 10 9 7 7 6 8 9 10 10 11 11 11 13 13 13 15 15 18 15 14 15 16 17 15 15 14 15 13 12
16 13 13 12 13 15 9 11 12 13 14 17 10 10 10 10 9 8 7 9 9 9 9 10 12 11 12 12 11 13 14 16 15 14 15 15 15 14 14 13 14 14 12
16 15 12 12 12 9 12 15 14 14 14 17 14 13 11 11 10 11 10 11 11 10 9 10 10 11 10 11 10 11 11 13 12 12 13 13 14 13 13 12 12 13 13
15 15 15 15 16 16 16 17 16 15 15 16 15 15 15 11 13 13 12 12 12 12 10 11 9 10 10 10 10 10 12 12 12 11 11 12 13 12 12 13 12 14 14
19 18 18 18 17 18 19 18 18 17 17 17 17 17 17 16 17 15 14 14 13 12 11 11 10 10 10 10 10 9 11 12 11 11 11 12 12 14 12 11 11 12 13
20 21 22 22 20 18 18 19 19 18 18 19 19 18 15 15 17 18 17 16 14 13 12 12 11 10 10 10 9 9 10 12 11 10 10 11 11 12 12 12 12 12 13
27 23 22 22 22 23 24 22 23 24 23 22 19 19 18 18 18 18 18 17 15 14 12 13 12 11 10 10 9 8 9 11 10 9 9 10 11 11 12 12 11 12 13
22 24 27 28 26 24 25 26 27 25 24 25 24 22 20 19 19 20 19 16 15 15 14 14 13 11 10 10 9 8 8 9 9 8 8 9 10 9 10 10 10 11 11
25 24 23 25 27 29 29 28 29 28 25 25 24 24 23 21 21 19 18 16 15 15 15 15 14 13 11 10 10 9 8 8 8 7 7 7 8 8 7 9 10 9 11
23 24 25 25 24 27 26 26 27 28 27 26 25 24 24 22 21 20 19 19 18 16 15 15 15 14 13 12 10 10 8 8 7 7 6 5 6 7 6 6 8 8 7

GFSGL_925_spd_045.txt.gz
Wind_Speed
5 6 9 12 12 14 16 16 17 19 19 20 21 21 18 14 14 14 12 13 9 9 7 8 10 12 15 16 17 17 17 18 20 28 27 26 25 25 24 22 21 21 21
6 7 10 13 14 12 11 15 17 19 21 22 19 15 14 12 10 9 10 6 8 6 7 11 15 16 17 16 16 17 18 19 23 24 27 27 23 22 23 22 21 22 22
9 12 14 10 9 10 13 15 19 21 22 20 15 12 11 11 13 9 8 5 6 6 11 14 17 17 18 18 18 20 21 21 23 24 28 25 25 22 22 21 21 22 21
12 13 12 8 8 11 12 17 20 21 19 15 12 9 8 12 9 3 3 4 6 9 13 15 17 17 19 20 22 22 22 21 22 24 27 26 23 21 20 21 21 20 21
12 11 9 9 11 12 15 19 21 19 13 13 10 9 8 2 1 4 3 5 9 13 15 16 17 18 20 20 21 22 22 23 24 24 24 23 22 20 19 18 20 19 20
11 9 11 12 13 14 16 18 16 13 10 10 12 5 2 4 4 3 5 8 10 12 16 18 19 18 16 17 19 20 20 22 22 22 23 22 23 22 20 19 18 17 11
11 12 14 14 14 14 14 14 14 12 10 9 9 5 6 1 2 6 9 7 10 12 15 17 18 16 17 17 17 17 18 20 22 24 24 24 25 23 22 19 18 17 19
11 13 14 14 14 12 12 14 14 13 11 12 9 7 4 2 5 8 11 8 10 13 15 16 17 18 17 17 19 18 18 21 21 20 21 23 25 23 22 22 22 21 20
12 14 15 13 11 10 12 15 15 13 13 11 7 5 4 3 6 8 8 9 11 15 15 16 17 17 16 18 21 21 20 20 16 18 22 22 24 24 24 21 18 17 16
12 14 14 10 9 11 15 14 14 12 9 4 6 4 5 6 7 8 8 9 13 16 16 17 15 16 19 20 19 18 19 19 21 21 19 18 18 15 15 18 20 16 16
12 13 11 10 13 15 14 14 15 8 5 6 5 5 7 8 8 8 8 9 13 16 17 18 17 18 20 19 17 16 18 18 17 17 17 16 14 13 12 11 13 17 18
12 11 10 13 14 14 13 11 9 6 6 4 4 7 8 9 9 10 9 9 12 14 16 16 17 18 18 16 14 16 16 14 14 15 14 14 14 14 15 15 15 14 17
12 12 12 14 12 10 9 8 6 4 4 4 5 7 8 7 8 10 10 11 11 12 13 16 15 15 15 12 13 14 13 13 14 14 14 14 15 15 15 13 11 10 10
12 12 13 13 13 8 6 5 5 4 5 7 7 9 9 9 9 9 8 10 10 11 13 13 12 12 12 11 12 12 12 12 12 12 14 15 14 13 12 12 10 11 7
13 13 14 13 8 7 5 5 6 7 8 10 10 10 10 12 11 9 7 9 9 10 13 10 9 10 11 12 11 11 12 13 13 13 14 15 14 14 13 13 11 10 7
13 14 12 13 9 9 9 10 10 11 12 12 13 12 12 14 13 12 9 10 10 11 9 9 9 9 10 11 12 13 11 13 13 12 12 13 14 13 13 12 11 10 9
15 14 13 11 11 12 11 11 13 11 12 12 13 14 13 14 13 12 10 10 11 10 9 9 8 8 9 9 10 10 12 12 12 10 11 12 13 12 12 11 11 11 9
16 17 16 13 13 12 14 14 11 13 15 14 12 13 13 13 13 13 11 10 10 10 9 9 8 8 8 8 8 9 11 11 11 10 10 11 12 11 11 11 10 11 11
14 16 17 16 15 14 11 12 13 14 15 15 14 13 14 13 14 14 14 13 13 13 11 10 9 8 8 7 7 7 9 10 10 10 9 10 10 10 10 10 10 10 10
17 18 18 17 15 15 16 16 15 15 16 15 15 14 12 14 12 12 14 15 14 14 12 12 10 8 8 7 7 7 7 8 9 8 8 9 9 8 9 9 9 10 10
20 18 20 17 16 17 16 15 16 16 17 16 16 15 16 16 14 15 14 14 17 15 13 12 11 10 9 8 7 7 7 7 8 7 7 8 8 9 9 8 8 8 9
19 19 17 18 18 18 18 18 17 17 18 17 18 17 18 18 16 16 16 17 19 18 17 15 12 10 10 8 7 7 7 7 7 7 6 7 8 8 9 8 9 8 9
17 16 16 17 18 20 20 20 20 21 21 20 20 19 18 18 18 18 19 20 19 18 18 18 16 14 13 12 10 9 7 6 7 8 7 6 6 7 8 8 8 9 9
19 19 19 19 19 19 19 21 23 23 25 22 22 20 21 23 23 23 22 21 20 19 18 18 18 16 14 13 11 10 9 8 8 7 7 6 5 7 5 6 7 7 7
20 21 21 21 20 18 19 19 20 22 23 23 22 22 23 22 22 23 23 21 20 19 19 18 18 17 16 14 12 10 9 8 7 7 6 6 5 6 4 4 6 6 6
21 21 21 21 20 19 18 19 19 19 19 20 21 22 22 22 22 21 22 20 19 20 21 20 18 17 17 16 14 12 10 8 7 6 6 5 4 4 4 3 4 4 4

GFSGL_925_spd_051.txt.gz
Wind_Speed
5 4 7 4 7 9 10 9 10 11 13 16 17 18 19 19 20 20 17 18 18 18 19 12 12 12 14 17 20 23 24 23 20 26 30 29 29 30 29 28 28 28 30
2 5 5 7 8 10 10 10 11 13 14 16 18 18 19 20 19 16 17 16 16 14 10 10 11 14 17 20 22 23 24 25 26 26 29 28 29 31 29 29 29 29 28
8 6 7 8 10 10 10 11 12 13 15 17 17 18 20 17 15 14 14 13 12 7 9 10 13 17 20 21 22 23 25 27 27 27 27 25 27 27 27 27 26 26 26
5 6 8 9 9 10 11 13 13 14 16 17 18 17 16 15 13 11 8 6 8 10 9 12 16 18 18 17 20 22 22 24 26 26 26 26 24 24 25 25 24 22 23
5 7 8 8 10 12 14 14 15 15 17 18 17 17 11 12 11 6 8 9 9 11 14 15 15 15 18 16 14 20 20 22 23 23 22 23 22 22 22 23 24 24 23
6 7 8 10 12 14 15 16 17 17 18 18 16 15 15 13 10 10 8 10 12 14 15 14 15 16 12 17 20 14 16 23 23 23 23 21 25 25 26 23 24 21 13
6 8 9 11 13 15 17 17 17 18 18 16 15 15 16 17 10 8 7 8 13 13 13 14 15 15 16 16 17 22 22 21 22 22 25 25 25 23 23 25 25 25 24
7 9 10 12 15 17 17 17 17 17 17 17 17 15 16 12 7 6 7 10 12 12 12 14 15 14 14 13 18 21 21 22 21 21 22 24 25 27 27 27 28 29 30
8 10 12 14 16 17 17 17 17 18 16 15 17 14 13 6 9 8 7 10 11 11 13 14 13 15 13 18 18 20 21 21 19 18 21 24 25 26 27 27 26 22 18
10 11 13 15 16 17 16 17 17 16 16 10 11 9 6 6 8 9 9 9 10 11 12 13 12 8 12 15 15 18 20 19 21 23 21 21 21 20 20 18 21 18 17
10 12 14 16 17 16 16 14 15 15 11 8 13 12 11 8 8 10 11 8 10 10 12 13 11 13 19 18 14 14 15 21 20 19 19 19 18 17 16 17 18 19 20
12 14 15 16 16 16 16 16 16 13 11 9 11 11 12 12 12 13 13 11 11 10 13 13 14 18 18 16 14 14 19 16 16 17 18 16 16 16 17 18 20 22 23
13 15 14 15 16 17 17 16 14 11 12 10 11 11 10 9 11 12 14 12 10 10 12 13 16 15 15 13 11 14 13 13 15 15 16 16 16 17 18 18 18 19 20
15 15 15 15 16 16 16 15 13 12 12 12 13 13 13 13 12 11 9 9 9 10 12 10 15 16 13 14 13 11 10 11 13 15 15 16 16 16 17 18 20 20 21
14 15 16 14 14 15 15 17 16 16 14 12 13 15 13 13 13 10 9 10 10 9 11 12 13 11 12 12 11 11 11 11 12 13 14 15 16 15 15 17 16 18 17
15 15 15 15 15 15 16 18 18 19 21 21 19 18 20 19 18 18 17 15 14 12 12 13 14 11 11 11 11 11 11 10 11 12 12 14 15 15 15 15 14 14 15
16 17 17 16 16 15 16 17 18 17 17 19 21 20 19 21 22 20 18 16 15 13 12 14 14 12 11 11 11 10 11 10 10 11 12 12 13 14 15 13 13 13 14
17 19 19 18 16 17 17 18 18 17 16 17 17 19 19 19 19 19 18 16 16 17 17 16 14 11 11 12 10 10 10 10 10 10 11 11 11 12 14 13 13 13 13
19 20 19 20 19 20 21 20 19 18 20 20 19 17 18 20 19 19 19 19 19 17 16 16 15 13 11 11 10 8 9 10 10 9 10 10 10 10 12 12 13 12 13
21 21 20 19 20 21 21 21 19 19 20 20 19 18 16 13 13 16 20 23 22 21 19 18 16 14 12 11 9 8 9 9 9 9 9 9 9 9 10 11 11 12 12
22 20 19 21 22 22 22 22 21 20 20 21 20 19 20 19 18 17 17 18 20 22 19 18 17 15 13 11 11 10 9 9 9 8 8 8 8 8 9 9 10 11 11
20 18 18 19 19 20 20 20 21 21 22 22 21 20 21 23 22 21 21 21 22 22 20 19 18 16 14 13 13 11 10 10 9 8 8 7 7 7 7 8 8 9 10
21 16 16 18 19 20 20 21 21 21 21 21 22 22 21 21 23 24 24 24 24 23 22 21 21 19 18 16 14 13 12 11 9 8 7 6 6 6 6 7 7 8 9
21 17 16 17 17 19 20 20 20 20 20 20 19 20 20 21 22 24 27 28 27 27 24 24 22 21 21 19 16 15 13 11 10 9 9 6 5 5 5 6 6 6 7
15 18 17 15 17 18 17 16 17 18 18 17 17 17 18 19 19 20 22 24 26 26 26 24 23 22 23 22 19 17 14 15 13 10 8 7 6 5 4 5 4 5 5
14 12 10 11 12 13 14 16 18 19 19 18 18 19 20 20 20 20 21 20 21 24 25 24 21 22 22 23 23 21 19 20 15 14 11 8 7 6 5 5 4 4 3

GFSGL_925_spd_054.txt.gz
Wind_Speed
13 9 5 3 3 5 5 7 6 7 9 11 14 16 17 18 19 19 15 14 13 11 13 12 8 8 9 13 14 18 21 22 15 22 24 24 24 24 23 23 24 28 29
11 9 9 7 6 6 7 7 6 7 10 11 14 16 16 16 12 17 17 16 15 13 14 9 8 9 12 15 18 17 17 21 22 21 25 26 24 22 23 23 24 25 27
9 9 5 5 3 7 7 7 8 10 11 13 15 17 17 15 18 17 14 13 14 9 9 9 9 13 16 13 13 18 21 21 22 23 26 26 25 23 24 23 24 26 25
11 4 3 3 4 6 8 10 11 11 12 14 18 18 11 11 11 13 11 10 9 10 11 10 13 12 9 15 16 17 17 19 20 20 23 24 22 23 24 23 22 23 23
3 2 3 3 4 7 10 12 13 14 15 17 18 11 13 13 14 10 11 7 9 11 13 13 11 13 17 15 13 16 15 16 19 21 20 22 21 20 20 23 22 25 26
2 3 4 5 6 8 11 14 16 15 15 17 13 11 12 14 18 15 15 10 7 12 15 12 12 13 8 11 5 9 15 19 21 19 21 21 21 23 21 19 20 19 15
3 4 6 7 9 10 13 15 16 16 17 15 11 13 17 15 17 17 10 7 6 11 14 11 12 13 15 13 15 17 22 19 21 24 23 23 20 19 21 22 24 23 24
2 5 7 9 11 13 14 15 16 16 16 16 11 13 15 15 14 12 7 7 7 12 11 10 13 13 13 15 16 21 22 19 20 21 21 23 24 25 27 26 27 27 29
6 5 7 10 12 14 16 15 15 17 20 19 12 8 12 12 10 9 8 6 8 11 12 11 14 13 14 15 19 21 19 20 18 18 22 23 22 23 24 26 23 19 20
4 5 8 11 13 15 16 14 14 16 18 11 7 11 10 7 9 10 10 7 10 11 12 12 15 10 10 14 17 16 18 19 22 27 21 23 22 22 21 18 18 16 15
5 5 9 12 15 15 16 14 16 15 14 11 12 13 13 14 12 11 12 12 12 11 10 11 12 8 12 18 14 13 14 19 21 21 20 22 20 19 19 20 20 20 21
8 9 12 13 11 14 18 18 18 15 7 9 10 14 15 14 15 16 16 16 12 14 14 13 14 16 19 15 13 12 14 16 18 15 19 20 19 20 22 24 23 22 22
11 11 12 13 11 12 14 19 20 14 12 16 14 15 15 13 13 14 16 19 17 15 13 12 16 16 16 16 13 14 16 15 14 15 17 18 20 21 22 22 23 22 23
12 12 13 14 14 12 12 15 19 19 14 16 16 17 14 13 13 14 15 17 18 16 15 13 10 17 17 15 13 11 11 12 14 15 14 19 20 19 20 21 22 21 21
12 12 14 14 14 12 16 18 20 20 21 20 16 16 15 14 13 14 14 10 9 11 11 14 15 16 14 11 12 12 11 12 12 10 14 17 18 19 19 20 21 19 15
11 13 14 16 16 15 18 19 18 22 21 22 25 25 25 24 21 20 20 19 18 16 14 13 15 18 16 11 11 13 11 11 9 14 13 14 15 17 19 22 18 17 15
17 16 18 18 16 16 19 17 19 20 20 22 22 23 24 26 23 22 20 20 19 17 18 17 17 19 16 12 11 13 11 8 9 10 10 13 13 15 18 19 17 17 16
17 19 21 21 18 18 19 19 20 20 19 19 20 22 23 22 23 23 20 18 19 19 22 20 20 19 17 14 13 12 8 8 10 10 11 12 12 12 15 16 17 18 18
25 25 22 24 25 25 24 23 22 21 22 22 22 21 22 24 22 23 21 22 21 20 20 22 24 22 20 15 14 12 11 10 11 14 11 10 11 10 13 13 16 17 18
27 27 26 26 21 19 19 21 20 20 22 21 20 22 21 19 18 22 24 26 24 24 23 23 22 21 18 17 14 12 12 12 13 11 8 9 10 9 11 12 12 15 16
30 30 29 27 19 14 16 18 18 17 17 18 20 22 23 22 20 19 18 22 25 25 24 24 23 22 21 19 18 16 14 13 12 11 9 9 8 9 10 11 11 10 13
29 31 27 20 14 16 19 20 21 19 20 21 21 21 21 24 24 24 24 25 25 24 24 22 24 24 21 22 21 18 17 16 14 12 11 10 9 8 9 8 10 9 10
26 30 25 18 14 18 20 20 19 19 20 21 21 20 18 19 20 23 26 27 26 27 26 25 24 24 22 21 21 20 19 17 15 14 13 12 9 8 7 6 8 7 9
28 28 29 22 15 14 16 16 16 16 15 18 19 16 16 17 18 18 19 20 24 28 29 29 27 26 24 22 22 22 22 18 16 16 15 14 10 7 6 5 6 5 6
26 26 20 13 8 10 11 12 14 16 17 19 21 20 17 18 21 19 18 18 18 17 20 27 28 28 25 22 23 24 22 18 19 18 15 12 10 9 8 5 5 4 5
22 17 13 13 12 12 13 13 14 15 16 18 18 20 21 21 20 22 23 20 18 17 16 18 24 27 23 19 20 24 23 19 20 18 16 12 9 9 7 7 6 4 3

GFSGL_925_spd_057.txt.gz
Wind_Speed
22 17 12 5 8 6 4 5 6 6 5 6 8 9 12 12 13 11 13 16 16 12 10 10 7 5 5 6 9 13 8 11 8 16 24 23 22 22 22 23 23 24 24
17 10 5 7 6 7 7 4 5 4 4 6 8 10 13 16 15 14 16 13 11 14 12 8 9 8 7 8 5 7 11 16 13 14 20 24 24 22 25 25 26 24 23
10 7 6 6 4 1 1 0 3 7 9 10 11 15 17 12 11 14 16 10 12 10 10 10 10 10 10 7 9 13 16 15 17 19 21 26 26 23 25 26 24 25 24
9 6 4 2 2 1 3 6 9 9 11 13 15 18 10 8 11 12 14 12 11 10 10 9 11 10 6 10 12 10 11 13 15 19 21 21 21 23 24 24 22 22 23
7 10 11 7 2 3 6 9 11 14 17 18 16 12 10 10 12 12 12 10 10 7 8 7 6 8 10 9 5 8 9 12 17 19 18 18 19 20 19 22 17 20 25
12 11 7 3 4 7 9 10 13 15 15 15 17 12 11 12 13 14 12 14 15 10 13 10 8 7 6 7 5 6 9 13 19 16 17 16 21 22 15 21 20 20 14
12 10 7 6 7 8 13 14 15 14 12 12 11 13 12 9 13 15 15 15 7 8 11 7 5 6 9 8 10 14 17 20 16 17 22 19 19 20 23 22 22 20 22
11 7 3 7 13 13 13 15 14 13 16 19 18 14 8 10 13 15 15 9 8 9 8 8 8 10 11 12 14 15 20 21 16 14 16 21 24 24 25 24 25 27 27
11 7 7 13 10 12 14 16 17 16 19 18 12 7 9 14 14 15 11 10 10 11 12 14 11 11 11 11 14 19 22 21 14 13 18 16 18 20 21 21 19 17 16
3 6 14 10 12 12 15 15 18 18 19 18 15 12 12 12 11 11 13 13 14 13 14 11 10 11 10 12 16 19 18 17 16 19 18 19 20 18 18 16 19 17 18
8 5 8 10 12 13 13 15 17 18 20 12 10 11 13 13 16 15 16 17 17 15 13 13 13 13 12 13 16 15 14 13 16 18 18 20 20 20 21 20 20 21 20
8 11 12 13 14 13 15 17 15 18 15 14 16 19 17 17 15 13 15 19 19 18 17 15 14 13 15 18 16 13 13 14 16 18 17 21 20 23 24 22 21 20 21
10 12 13 14 14 14 14 13 15 17 19 22 21 23 23 19 15 14 16 18 18 22 21 17 14 13 16 17 16 17 16 17 18 18 18 16 19 20 21 21 21 20 20
11 14 14 14 14 14 15 14 14 15 19 22 20 18 18 15 14 13 17 18 18 21 22 18 17 17 14 18 17 14 13 12 13 14 11 15 17 19 21 21 22 21 21
17 16 12 16 17 16 18 19 20 20 20 23 24 24 23 22 22 20 18 17 16 16 15 18 16 16 18 17 18 16 13 12 12 11 11 13 15 17 21 20 20 19 15
13 18 23 24 21 23 25 27 24 24 24 22 23 25 28 29 27 24 22 20 19 19 16 20 20 18 18 21 20 16 14 13 12 9 10 10 13 15 19 20 18 17 16
24 27 26 25 25 27 28 28 26 31 27 25 24 24 25 29 29 26 22 22 20 19 22 22 22 22 22 21 20 17 16 13 10 9 9 11 12 13 15 17 17 16 15
27 28 27 29 32 33 32 32 32 25 22 24 28 27 26 25 26 26 24 21 22 22 22 21 25 26 26 24 22 19 16 13 12 11 12 11 10 11 12 14 16 17 16
29 31 33 35 34 36 32 32 35 23 25 27 27 28 31 27 26 25 26 25 23 23 25 25 27 28 28 27 24 22 18 16 14 12 11 10 10 9 11 11 14 15 16
26 27 29 29 29 28 28 25 21 19 21 17 17 20 24 23 24 26 28 27 26 28 27 27 28 29 27 26 24 20 20 18 15 12 11 10 8 8 11 10 13 13 13
27 29 26 25 28 28 26 19 13 18 24 21 20 23 24 21 20 21 27 27 28 29 29 29 28 27 28 29 26 23 22 20 16 13 13 12 10 10 9 10 10 9 9
29 28 29 27 28 27 23 19 18 20 21 22 23 25 25 23 23 21 23 27 27 28 28 28 27 27 28 27 27 26 25 22 19 16 15 13 11 9 6 9 7 7 9
32 29 29 27 28 31 26 21 15 13 13 13 14 17 22 19 16 16 15 16 21 28 29 28 29 28 26 26 27 25 26 24 21 18 16 14 13 10 7 8 5 5 7
30 30 27 26 17 24 20 17 16 17 16 17 17 18 19 19 20 19 20 21 18 16 15 21 28 29 29 27 27 25 24 22 19 17 16 16 15 11 9 8 5 3 4
24 27 28 26 25 24 21 20 20 17 18 18 18 19 19 20 21 22 22 23 22 20 19 18 15 20 28 30 26 24 21 21 22 18 17 15 14 13 11 8 7 4 2
24 26 26 24 25 24 22 21 20 20 20 19 21 21 20 20 21 23 25 24 25 24 22 15 16 18 20 25 27 19 17 20 23 18 16 15 13 14 11 8 5 5 2

GFSGL_925_spd_060.txt.gz
Wind_Speed
25 22 18 12 10 3 2 2 5 6 7 7 9 10 12 13 15 15 14 14 16 17 14 13 11 7 6 6 10 10 8 3 7 10 19 23 24 25 28 24 22 24 23
25 19 13 11 7 5 5 1 6 5 5 8 9 12 13 15 15 14 12 14 16 13 13 8 8 9 9 8 6 5 5 7 8 13 19 23 27 28 24 24 25 23 21
22 16 10 9 9 8 1 3 1 4 8 10 12 14 16 17 17 13 13 15 15 14 12 12 11 10 10 10 8 8 7 8 10 13 18 26 28 25 26 24 24 23 21
16 16 14 15 10 6 5 2 3 6 10 15 18 20 18 18 13 13 14 14 16 14 13 14 12 13 12 9 10 8 7 9 11 15 20 20 19 22 21 22 19 19 23
19 19 19 16 11 6 3 7 9 12 15 15 16 17 17 15 12 13 13 15 14 16 13 11 9 10 10 10 9 8 6 9 12 17 16 15 16 17 17 17 19 22 26
25 22 17 12 7 6 6 11 16 15 14 13 14 13 13 14 14 13 15 14 15 17 20 12 11 13 10 9 8 6 8 9 13 15 15 14 15 17 17 21 23 20 11
24 18 13 10 8 7 15 11 13 13 10 12 15 15 16 16 14 14 14 15 17 13 10 11 9 8 8 10 8 8 9 11 15 16 17 16 17 21 23 23 21 19 20
20 15 10 3 4 6 9 12 12 13 15 17 18 19 15 13 13 14 16 18 14 11 10 9 10 12 12 11 10 10 13 17 17 12 12 17 20 19 21 21 23 23 22
16 8 3 3 4 9 11 11 13 13 15 19 20 20 17 15 15 16 15 14 14 13 11 12 15 14 11 10 10 12 16 20 13 8 10 12 15 16 15 18 18 17 16
5 2 6 7 11 10 11 13 11 12 15 18 19 20 17 17 18 18 15 16 17 18 15 15 14 13 12 11 12 14 17 16 10 11 13 14 15 15 16 15 17 16 16
1 1 5 10 10 12 13 13 15 18 17 19 16 15 17 18 19 17 17 19 20 20 20 19 16 15 15 14 13 15 16 13 13 15 17 18 18 17 18 16 17 18 17
6 9 9 11 12 13 14 16 19 19 18 17 18 21 20 20 20 19 17 18 19 22 23 23 19 16 15 16 15 17 16 15 17 20 21 21 20 19 18 18 19 18 17
7 10 12 14 14 14 16 19 20 19 19 22 22 24 26 22 22 20 19 20 20 24 26 25 21 19 16 17 18 17 16 18 19 21 21 18 16 16 18 21 18 16 16
12 15 16 17 18 18 18 21 21 22 24 22 24 26 28 25 22 22 23 21 21 24 25 25 24 23 19 20 19 19 18 17 17 17 16 14 14 15 16 18 18 18 18
17 19 22 22 23 24 26 26 26 29 29 29 29 27 26 28 29 26 23 22 22 22 20 20 24 22 20 21 22 20 16 17 17 16 15 12 13 14 14 16 16 16 13
19 23 25 27 31 33 33 34 34 34 36 35 32 28 26 27 28 29 28 25 22 20 17 20 22 22 23 24 23 20 18 17 17 16 14 13 12 12 12 14 15 15 15
23 24 25 27 28 29 29 28 27 35 33 34 31 28 24 25 25 27 27 26 25 21 22 20 23 26 26 25 24 21 19 18 15 15 15 12 10 9 10 13 14 15 15
27 26 26 28 26 26 26 27 28 26 28 30 34 27 23 23 23 27 25 24 23 23 23 23 21 24 27 27 25 23 21 18 17 17 15 11 9 9 10 11 12 15 16
24 23 26 28 27 25 24 26 29 28 27 27 25 21 17 17 18 20 21 24 21 23 25 25 27 24 27 25 24 23 22 20 19 20 16 13 9 9 10 10 10 13 15
24 25 27 26 26 28 28 27 27 27 27 16 12 16 18 18 20 19 20 19 20 25 27 27 28 28 27 25 24 23 22 22 21 22 18 13 11 10 10 9 9 12 11
26 28 30 27 26 27 27 28 29 27 19 14 18 19 19 20 22 22 20 22 22 23 26 27 27 28 27 25 24 24 24 22 23 23 18 15 12 11 8 7 7 8 8
23 24 25 26 26 23 26 26 24 17 14 14 15 14 15 16 17 14 14 15 18 21 24 29 28 27 27 26 25 25 25 25 25 23 20 16 14 11 8 8 7 6 6
19 22 23 22 23 24 23 23 21 20 20 20 19 20 20 19 18 20 20 21 21 19 17 19 23 27 27 26 25 24 25 24 23 22 21 18 16 13 10 8 6 3 4
19 23 21 20 22 21 22 21 20 22 21 21 21 21 21 21 22 22 24 23 22 23 21 20 16 19 19 25 26 26 24 23 20 20 19 18 17 14 12 10 7 4 3
18 22 22 21 20 20 22 21 20 21 19 20 20 20 21 20 21 23 26 26 25 24 23 22 21 16 15 18 21 26 26 22 19 18 19 18 16 15 13 11 9 7 3
16 20 21 21 19 19 20 19 19 20 19 20 19 19 20 20 19 23 27 28 28 26 24 24 24 23 17 16 18 19 24 19 17 18 20 17 17 15 14 12 9 8 4

GFSGL_925_spd_063.txt.gz
Wind_Speed
32 31 29 25 24 20 13 8 5 8 15 12 8 7 9 10 10 12 13 13 12 14 15 14 13 10 9 9 9 11 13 10 7 10 11 15 18 21 24 22 22 21 20
35 35 31 28 22 15 6 7 12 12 11 7 8 13 12 11 13 15 15 13 12 15 17 14 12 10 13 13 12 12 10 10 11 12 15 18 22 24 22 21 20 19 18
29 24 22 17 10 10 11 10 10 7 5 7 11 12 12 15 15 16 15 12 14 16 16 16 15 14 15 15 15 14 12 11 11 12 15 19 22 24 23 22 20 19 18
26 23 15 12 14 15 11 10 6 4 6 8 10 12 14 16 16 15 13 14 15 17 17 16 16 15 14 16 17 15 14 12 12 13 18 20 19 22 19 19 19 19 26
23 19 18 18 16 14 10 5 4 4 6 8 10 12 14 15 14 13 14 15 16 16 17 18 17 17 16 13 16 17 14 13 13 14 16 16 15 16 15 17 21 24 26
21 21 21 20 15 10 4 3 4 6 8 11 12 12 14 14 14 15 16 16 17 18 20 20 20 16 14 18 17 15 14 13 14 13 16 14 15 14 18 19 19 17 9
24 22 17 13 8 3 3 2 7 10 11 12 14 15 16 17 16 18 16 16 18 20 21 18 14 13 11 12 14 15 14 14 14 15 18 17 15 17 18 20 18 19 19
23 19 13 6 3 2 4 6 7 9 11 13 15 17 20 21 18 16 16 18 19 20 19 16 15 13 13 15 17 17 16 14 15 17 14 13 15 15 17 18 20 22 21
18 10 6 2 3 5 8 8 9 11 12 13 17 20 22 24 20 17 17 20 20 19 18 17 17 17 17 16 17 17 16 15 16 12 10 11 12 13 14 17 19 16 17
8 3 4 2 7 10 10 11 12 12 14 17 17 19 21 22 19 18 18 21 21 21 21 21 20 19 17 16 18 17 16 16 13 10 11 12 12 14 15 16 16 14 15
1 3 5 8 9 10 11 13 14 16 18 21 22 21 21 20 23 23 23 22 24 25 24 24 22 21 19 18 18 18 19 16 14 13 14 16 18 17 15 15 15 17 18
3 7 8 9 11 12 14 15 16 19 22 24 25 26 25 22 19 21 22 21 24 26 27 25 24 22 21 20 19 20 18 17 17 18 19 20 21 18 15 16 17 17 17
6 9 11 13 14 15 17 20 21 22 25 29 29 30 33 29 23 20 20 20 20 24 29 28 24 25 23 21 22 19 18 19 20 20 20 21 18 15 15 16 17 15 15
12 15 18 20 23 25 26 26 27 28 30 31 29 28 32 32 29 26 23 22 21 22 23 25 25 26 25 25 23 22 22 20 22 21 20 20 18 15 15 14 16 17 17
14 16 18 20 21 24 25 26 28 33 33 32 31 32 27 30 36 29 23 22 19 20 21 25 22 20 21 23 25 23 21 22 21 20 20 19 17 13 15 12 13 15 14
19 22 23 25 26 27 28 32 28 28 30 31 35 38 39 39 41 37 28 25 22 19 21 21 19 18 21 22 22 24 23 21 21 20 19 19 17 13 13 10 11 13 15
20 21 22 21 21 22 23 23 27 32 27 30 32 35 35 39 40 37 26 24 22 21 23 21 23 21 23 25 25 25 25 22 17 17 18 18 16 13 11 10 11 12 14
21 21 21 22 23 24 23 24 24 27 30 34 34 30 32 34 29 24 21 17 18 20 22 22 24 28 26 25 24 23 25 22 19 17 17 17 16 13 12 11 10 11 13
20 20 22 23 23 23 23 25 26 27 27 28 30 32 21 13 12 13 15 16 14 16 21 24 26 26 27 27 26 22 21 21 19 18 19 19 18 14 13 10 10 9 11
18 19 22 21 22 20 20 21 25 28 26 26 24 21 22 16 15 17 16 16 18 19 20 22 27 27 27 27 26 24 21 20 20 19 20 20 18 15 14 10 9 8 9
16 17 20 19 19 21 21 21 20 22 22 21 21 25 24 21 21 21 21 19 18 16 16 20 24 25 27 26 24 23 21 21 21 20 20 22 19 17 14 11 9 7 7
15 18 17 16 18 19 19 19 20 20 19 20 22 21 24 24 24 22 24 24 23 21 21 20 17 17 25 25 24 23 23 23 22 22 21 21 19 16 14 12 10 7 6
15 17 17 17 17 16 19 18 20 20 19 21 21 20 21 21 22 24 26 25 25 25 22 22 21 20 16 16 25 24 24 24 23 22 22 21 20 18 16 14 10 7 5
14 15 16 15 15 16 18 17 18 20 19 22 21 20 21 23 21 23 25 27 27 26 24 23 21 21 22 20 15 19 24 24 23 20 19 21 22 19 17 15 11 8 5
11 14 14 14 14 15 17 16 18 20 20 21 21 20 20 22 20 20 26 28 29 28 26 25 23 23 24 22 18 15 16 22 24 21 20 19 21 19 19 16 13 10 6
11 12 12 12 13 16 16 16 19 21 20 21 21 20 20 22 20 22 27 29 30 29 28 27 25 24 23 23 23 18 18 18 23 20 20 20 21 20 19 16 14 11 9

GFSGL_925_spd_066.txt.gz
Wind_Speed
29 28 26 25 27 28 28 24 18 13 9 7 13 14 12 14 13 11 12 12 12 11 10 12 13 12 11 12 11 12 12 12 8 10 11 12 15 18 21 22 22 21 19
25 26 26 26 27 24 17 12 3 3 9 11 12 13 14 14 13 14 15 14 14 13 12 14 15 14 13 14 16 17 18 17 14 13 14 15 17 20 21 21 19 18 18
26 27 25 27 21 16 9 10 11 10 11 11 12 11 11 13 15 17 17 17 14 13 15 16 17 17 17 18 18 18 17 16 15 15 14 14 17 21 22 21 19 19 19
26 27 29 25 17 14 11 13 14 12 9 7 7 9 11 13 14 15 16 15 14 16 16 17 18 19 19 20 18 18 18 17 16 16 16 17 17 19 19 16 17 18 23
27 26 20 15 13 15 14 12 8 5 4 7 9 8 8 10 12 14 14 15 17 17 17 17 18 19 18 18 19 19 17 19 16 15 16 15 16 16 13 14 18 23 23
25 19 17 16 16 14 11 6 2 3 6 7 8 9 11 12 13 14 17 19 19 19 19 20 20 21 23 20 17 19 21 19 17 15 16 14 18 17 15 16 17 15 9
20 20 20 18 14 7 2 2 2 6 9 9 10 11 13 15 16 16 16 18 20 20 20 22 22 20 16 16 14 14 16 17 18 17 18 21 19 16 14 16 13 16 19
23 22 18 11 5 3 2 7 9 10 11 11 12 13 16 18 18 19 19 20 21 21 22 22 21 19 16 15 15 17 19 20 19 18 20 21 16 13 13 16 17 21 21
22 16 11 4 3 5 8 10 10 11 12 12 13 15 17 20 19 20 19 20 22 24 23 21 21 20 18 18 18 20 20 22 19 18 18 15 13 13 13 15 18 14 14
14 9 3 2 2 6 10 11 13 14 15 16 18 19 21 25 23 22 20 22 24 25 27 24 22 23 22 21 20 21 21 23 19 17 16 15 14 14 14 14 15 15 13
5 3 3 3 7 9 12 14 15 17 19 22 25 26 26 26 27 24 21 23 26 21 21 28 25 22 23 22 23 23 24 21 19 17 17 17 17 17 16 14 14 16 17
4 2 5 6 9 11 14 17 19 21 25 28 30 34 34 33 29 28 25 22 22 24 24 26 27 24 22 22 24 27 24 20 20 20 20 21 22 20 16 14 14 16 18
5 7 8 10 12 13 16 20 22 24 27 31 28 29 33 34 36 34 29 28 25 25 26 26 24 25 27 23 22 26 24 22 23 23 21 23 22 18 15 14 15 16 17
9 10 11 13 16 18 20 21 23 25 25 22 22 24 28 30 30 34 36 34 30 28 26 25 24 22 20 21 22 22 27 26 25 26 24 22 19 17 16 13 15 15 17
11 13 16 18 21 23 23 22 22 22 21 26 26 27 28 32 34 33 34 33 32 32 23 20 20 21 21 22 23 23 25 27 28 25 23 21 20 17 16 13 13 12 12
14 16 18 20 22 22 23 24 20 20 23 25 28 31 36 34 39 39 39 37 38 29 20 20 18 19 18 17 20 22 23 23 24 23 21 20 20 18 16 13 12 12 13
15 15 17 19 20 20 20 19 26 31 26 26 26 29 31 36 40 36 32 27 27 24 21 18 18 19 20 21 22 23 23 25 22 21 20 19 18 16 14 14 12 12 13
13 14 17 17 17 16 14 15 18 20 25 31 33 27 31 30 27 25 22 19 15 12 14 17 18 22 25 24 24 24 25 23 21 22 19 19 18 16 16 14 13 11 11
12 13 15 13 12 12 15 17 18 18 20 22 27 32 35 30 27 26 24 23 19 17 17 19 20 21 24 26 26 26 25 23 20 20 20 20 19 18 18 15 13 11 10
10 12 13 13 14 14 15 17 15 17 16 19 20 23 30 31 29 27 28 29 26 24 23 22 19 18 23 23 25 25 24 22 21 20 20 20 19 20 18 15 13 11 9
10 12 13 12 14 14 15 15 16 17 15 17 18 20 23 20 21 21 23 25 25 24 26 24 24 24 19 18 21 22 23 23 21 22 22 22 21 20 19 15 13 11 9
11 12 12 12 12 12 14 12 15 17 16 19 22 21 22 22 19 19 22 27 27 25 25 23 24 22 22 23 20 16 21 22 22 22 22 22 21 21 19 16 14 11 9
11 12 12 11 11 11 13 13 14 18 18 20 22 21 21 23 24 19 24 27 28 27 27 25 24 23 24 24 22 19 15 17 24 22 23 24 23 22 21 19 15 12 10
11 12 12 12 11 12 13 13 14 17 18 19 21 22 21 22 24 22 23 28 29 29 27 26 25 24 25 25 23 21 21 18 13 23 22 24 24 23 23 20 17 13 10
11 12 12 12 12 13 15 15 16 19 19 19 21 22 21 23 25 23 25 29 28 31 29 28 27 27 26 26 23 23 25 23 17 15 25 22 24 25 24 21 18 14 11
10 10 12 12 11 12 14 17 19 20 21 20 21 22 21 25 25 24 27 29 30 31 30 29 29 28 27 26 24 25 26 23 18 16 21 22 25 26 24 21 18 15 12

GFSGL_925_spd_069.txt.gz
Wind_Speed
22 24 27 26 25 21 19 22 24 22 15 11 14 8 14 12 12 12 13 13 14 15 15 14 14 12 12 12 13 14 15 15 16 18 14 12 11 13 15 16 18 19 19
19 20 19 21 19 17 21 25 20 17 16 13 11 11 13 13 13 14 16 17 16 16 16 14 15 13 14 14 15 16 18 19 18 21 18 14 12 13 15 17 17 18 18
18 18 17 15 18 24 25 22 19 10 10 10 10 12 11 13 14 16 17 18 18 18 16 15 15 14 16 17 17 19 19 18 17 18 18 14 13 13 15 17 17 17 17
16 16 18 19 23 21 15 12 9 10 7 9 7 8 12 12 13 13 15 16 17 16 17 18 16 16 18 18 19 20 17 17 17 16 17 17 15 14 14 16 17 16 18
17 19 22 23 18 13 12 12 10 8 8 5 7 11 11 10 10 11 13 14 15 16 18 19 19 20 21 21 19 20 18 19 17 16 17 16 16 15 16 16 17 18 18
24 27 23 16 15 19 15 10 9 6 2 9 13 10 10 11 11 12 14 15 17 19 21 21 19 21 21 23 25 26 22 18 18 18 18 18 18 16 15 15 15 16 13
25 22 18 23 21 16 11 8 4 8 16 11 9 10 12 14 14 16 17 19 20 22 22 21 19 18 22 19 19 20 20 20 20 17 19 19 18 15 14 14 14 15 17
24 25 25 21 16 13 6 6 10 8 9 9 11 11 13 16 15 17 19 21 19 22 22 22 22 22 20 18 17 17 16 16 17 18 19 18 17 16 14 14 16 17 19
30 26 19 14 12 3 5 6 7 8 10 12 13 14 17 20 20 20 21 20 19 21 22 22 24 25 23 22 19 19 19 18 17 22 22 20 20 17 14 14 16 16 18
24 17 12 8 4 1 3 5 7 10 12 14 17 20 22 25 25 25 25 23 24 24 22 22 26 28 26 24 24 22 20 20 16 14 15 16 16 16 17 16 16 16 16
15 13 8 5 3 2 4 6 9 11 14 18 23 26 27 28 31 32 32 32 27 27 25 24 24 23 22 25 25 24 25 21 17 16 15 15 14 15 15 15 15 15 16
12 10 8 6 4 4 6 9 11 11 13 18 23 23 19 20 23 27 28 29 31 28 29 29 26 24 22 22 23 28 28 25 19 16 16 17 16 16 16 15 14 14 15
10 10 8 6 6 7 8 9 10 11 12 14 16 20 22 21 23 24 27 27 29 30 29 32 33 27 23 21 22 24 28 22 19 17 19 19 17 14 14 13 13 13 15
11 8 7 7 8 8 7 8 9 10 12 14 17 20 23 25 25 25 28 30 30 28 28 29 31 29 25 22 18 16 18 19 20 21 20 19 15 12 13 13 13 12 15
9 8 7 7 8 8 8 8 8 9 11 15 16 19 23 25 28 34 35 35 33 33 31 28 20 17 17 18 15 15 15 15 17 20 19 17 15 13 14 12 12 11 14
8 7 8 7 7 7 7 7 7 9 11 12 14 15 17 20 28 29 29 28 26 25 22 18 16 16 16 15 15 15 15 17 18 17 17 17 15 14 14 12 11 11 13
9 7 6 7 7 8 9 9 11 10 11 11 14 16 21 21 23 27 30 26 20 21 17 12 12 12 13 14 16 17 17 17 17 17 16 16 14 14 13 12 12 11 12
8 9 7 6 7 7 8 10 10 12 13 14 13 15 21 23 22 24 27 22 25 22 21 22 21 18 14 14 14 16 16 16 15 15 16 15 14 14 14 13 12 11 11
6 6 6 5 5 6 7 9 9 12 13 14 16 16 22 25 21 19 21 20 19 19 20 19 19 19 19 19 15 14 15 15 15 14 15 15 15 15 15 14 12 11 9
6 7 6 5 5 6 7 8 9 11 12 13 15 19 22 24 22 22 20 19 18 18 19 19 18 19 19 18 19 18 15 13 13 14 15 14 15 16 16 14 12 10 9
5 5 6 5 5 6 7 7 8 9 10 12 13 14 17 16 17 17 17 17 18 19 19 19 19 19 18 18 18 18 19 16 13 12 13 15 15 16 16 14 12 10 9
5 5 5 5 5 6 7 7 7 9 10 12 13 15 16 13 14 16 16 16 17 17 18 19 18 18 17 18 19 19 18 17 16 12 12 14 15 16 15 15 13 11 9
6 6 5 5 6 6 7 8 8 10 11 12 13 14 14 14 15 16 17 16 18 19 18 18 18 18 17 18 17 17 17 17 18 19 17 14 16 17 17 16 15 12 11
7 7 6 6 6 7 8 9 9 10 12 12 12 13 14 14 15 16 17 16 19 18 19 19 18 19 20 21 19 19 17 18 22 21 18 15 16 18 18 17 16 13 11
7 7 8 7 7 7 8 9 10 12 12 12 13 13 14 14 16 16 17 17 18 19 22 22 19 20 22 24 23 21 22 23 22 22 20 16 19 18 21 20 18 14 12
7 8 9 9 8 7 8 10 12 13 13 14 14 14 15 15 16 17 18 18 19 23 24 22 24 26 26 24 22 24 25 23 23 24 19 18 18 17 20 21 21 15 14

GFSGL_925_spd_072.txt.gz
Wind_Speed
19 18 19 19 18 18 16 16 17 17 20 21 17 13 13 12 13 13 13 13 13 13 14 15 17 17 18 18 19 19 20 20 21 25 22 21 17 19 20 20 21 23 23
14 15 14 13 13 14 15 17 18 19 20 20 16 10 10 11 11 13 14 14 15 16 17 18 19 19 20 20 21 21 22 23 25 24 26 25 19 19 19 21 22 21 22
12 15 17 18 16 14 18 20 23 21 15 8 7 9 10 10 12 14 15 15 17 18 19 20 21 21 23 22 22 23 24 25 25 24 25 25 22 19 20 21 21 21 21
16 16 16 16 23 24 25 19 17 13 10 11 9 9 8 10 13 13 13 15 17 18 20 21 22 23 25 24 23 24 25 25 25 22 24 22 23 21 19 20 21 18 20
19 19 20 20 27 31 23 21 15 14 12 8 10 8 9 12 12 11 12 15 17 18 20 21 23 25 26 26 25 26 26 24 21 21 21 22 23 20 20 18 18 21 20
21 21 23 26 26 21 20 20 17 11 7 9 8 12 11 11 13 14 14 15 18 20 23 24 24 25 26 27 28 28 28 27 27 25 22 20 24 20 20 17 19 19 16
22 23 23 24 22 20 18 15 13 9 8 11 11 9 10 12 15 14 16 16 19 22 24 26 26 26 24 24 26 27 26 26 29 27 26 23 21 20 20 20 18 19 20
24 22 21 23 25 18 14 9 7 9 8 8 8 9 11 12 15 16 18 19 22 24 25 26 27 28 27 28 28 28 26 23 21 21 23 25 22 20 17 18 18 19 20
22 23 22 25 20 12 6 6 7 5 6 7 8 9 11 14 16 19 21 21 24 27 28 29 30 30 29 29 25 27 27 25 22 25 26 25 23 23 22 18 17 17 18
23 22 20 15 11 7 5 5 3 4 5 6 8 10 13 17 18 19 21 22 25 27 30 32 32 31 31 32 25 27 25 26 22 22 18 17 19 19 20 18 18 18 18
20 18 14 10 7 5 4 3 2 4 6 7 8 11 14 14 16 17 19 18 21 26 28 29 29 28 27 31 26 27 29 25 23 23 21 20 18 18 17 18 19 19 19
17 13 11 8 7 4 2 1 2 4 6 7 9 11 10 12 15 17 20 21 23 26 29 29 29 28 29 31 32 24 27 28 26 23 20 21 21 19 18 18 19 19 19
14 12 10 8 6 3 2 2 3 5 5 7 8 10 12 14 15 17 20 24 27 28 28 32 35 34 32 31 33 26 24 25 25 23 20 21 21 20 17 16 16 17 18
12 10 8 7 5 4 3 3 3 4 6 7 9 10 12 14 14 18 21 23 24 25 24 28 30 31 31 30 27 23 20 18 19 18 17 20 19 17 17 16 15 15 15
10 8 6 5 5 4 4 3 3 4 4 6 7 9 11 13 15 19 21 24 24 23 26 24 22 20 21 18 17 16 15 16 20 21 20 18 18 17 17 16 15 15 15
9 7 6 5 4 3 2 2 2 2 1 3 5 6 9 11 16 17 20 24 21 24 19 19 20 18 16 16 13 15 15 16 18 19 18 18 17 17 17 15 15 15 15
8 7 5 5 3 2 1 2 3 2 6 5 6 7 10 15 18 18 22 22 16 18 15 16 17 19 20 22 14 13 13 14 17 17 19 17 18 17 16 14 15 15 14
8 8 4 3 2 1 2 2 4 5 7 7 7 10 11 17 18 17 20 17 16 15 15 16 17 18 19 19 20 20 18 14 14 15 15 17 17 16 15 15 16 14 12
5 4 3 3 2 1 2 3 4 6 7 9 10 9 12 17 15 14 14 14 15 15 16 16 17 17 18 18 18 19 20 21 15 13 14 16 17 16 15 15 15 12 10
5 4 3 1 2 2 3 4 5 7 8 9 10 12 14 17 14 14 14 13 14 15 16 17 17 18 18 18 18 19 19 20 19 16 12 14 16 16 15 15 15 13 11
3 2 2 2 3 3 4 5 6 7 9 10 11 11 13 13 14 14 14 14 14 16 17 17 18 18 18 18 18 18 18 18 18 18 18 11 13 15 15 15 14 14 12
3 2 2 3 4 5 5 6 7 8 10 11 12 12 13 12 13 14 14 15 15 15 17 17 18 18 18 18 18 19 18 18 17 16 18 17 15 13 14 15 14 13 12
3 3 3 3 4 5 6 7 8 9 10 11 12 13 13 13 14 14 15 16 16 17 17 17 18 19 17 17 18 18 18 18 17 17 19 18 18 16 14 16 16 15 13
3 3 4 4 5 5 6 7 8 9 10 11 12 13 14 14 15 16 16 17 17 17 17 18 19 19 19 20 19 19 19 18 18 20 18 19 19 19 16 15 17 16 14
3 4 4 5 6 7 8 8 9 10 11 12 13 14 14 15 16 16 17 17 18 18 19 20 19 19 21 23 24 23 21 21 21 21 19 19 21 21 20 15 16 17 15
6 6 7 7 8 8 9 9 10 11 11 13 14 14 15 16 16 17 17 17 18 20 22 20 21 23 25 24 22 21 22 23 23 21 20 20 21 20 18 17 19 18 17

GFSGL_925_spd_075.txt.gz
Wind_Speed
25 24 23 21 19 20 19 19 18 16 18 18 22 17 16 14 14 11 12 11 13 16 15 16 16 16 18 19 20 20 21 22 20 24 25 26 24 25 25 23 22 22 25
23 21 19 20 20 21 18 17 16 17 18 19 18 19 14 7 10 11 13 13 15 17 17 18 18 19 20 21 22 23 23 24 24 24 27 27 26 24 23 22 20 23 27
20 20 21 24 26 25 27 26 27 26 17 16 17 11 7 9 12 14 13 15 16 17 18 19 20 21 23 23 24 25 25 27 25 25 27 26 26 24 26 22 22 24 24
18 18 22 24 23 23 22 24 27 29 25 21 13 11 12 14 13 14 14 14 15 17 17 19 20 22 24 25 26 26 27 26 25 26 26 24 25 28 26 25 22 24 21
16 16 17 24 23 21 21 25 27 23 19 15 11 12 13 12 13 13 11 12 15 17 19 20 22 24 25 27 28 29 28 28 26 25 26 21 24 25 23 20 20 20 22
19 21 23 23 21 27 29 25 21 15 17 12 11 11 9 13 12 12 15 12 15 18 21 22 24 26 27 29 32 34 32 27 29 29 27 26 27 26 21 18 18 18 16
20 22 20 21 22 24 22 20 17 14 12 9 9 9 9 10 12 13 14 13 16 20 22 24 26 27 27 28 29 31 31 33 33 31 27 27 28 25 21 20 20 21 21
23 22 21 21 21 20 18 16 13 10 8 7 7 7 8 9 11 13 15 15 18 22 23 25 28 29 29 29 29 30 31 30 27 24 25 27 26 24 20 18 17 18 20
21 22 21 21 20 19 16 13 7 7 6 6 6 6 7 8 5 9 13 16 19 23 24 26 29 31 32 33 31 29 29 28 29 28 27 30 26 23 23 18 18 18 18
21 21 22 21 18 14 9 8 6 5 5 5 4 5 6 8 10 11 14 14 18 20 21 23 25 27 29 31 30 28 28 25 27 26 23 24 28 26 25 24 21 19 19
23 22 18 15 11 10 8 7 6 5 3 3 2 5 7 6 7 11 13 12 16 20 23 25 24 26 29 30 29 26 27 27 27 27 24 24 22 21 19 20 21 20 20
21 19 15 12 9 7 7 5 4 4 4 3 3 4 3 5 7 8 7 11 17 21 25 26 28 30 34 37 36 33 30 33 29 25 25 21 21 21 21 21 21 23 23
17 14 12 10 8 6 5 3 2 2 2 2 3 4 5 6 7 8 15 17 18 22 24 28 33 34 36 34 29 25 24 26 22 21 22 23 23 24 19 18 20 22 22
14 12 11 9 7 5 4 2 1 0 1 2 3 5 6 7 8 11 16 18 19 21 23 29 30 31 29 27 27 22 21 22 22 19 19 19 17 15 19 19 18 16 17
12 10 8 7 5 5 5 3 3 4 2 1 2 4 6 7 8 13 15 18 21 22 27 26 21 21 20 21 22 19 17 19 19 19 18 17 17 16 18 17 16 15 16
12 9 7 5 4 3 3 4 2 2 2 4 5 3 3 5 11 14 16 19 21 18 19 18 17 17 18 20 22 22 18 18 19 17 18 18 17 17 16 16 17 17 17
10 9 7 4 3 1 0 1 3 4 3 5 5 6 8 9 13 15 16 20 16 14 14 15 15 17 19 20 20 21 23 24 24 14 17 18 19 18 18 16 16 16 15
10 9 6 4 2 1 2 3 4 5 6 7 8 5 9 9 15 15 15 17 13 13 14 15 16 17 18 19 20 20 21 23 24 26 19 16 17 16 17 17 16 14 15
8 6 5 3 2 1 3 4 5 6 8 10 10 10 8 12 18 14 11 13 14 15 15 16 16 17 18 18 19 21 21 20 22 23 20 20 15 16 17 16 14 14 14
7 5 4 1 1 3 4 5 7 7 9 10 11 13 13 14 16 14 13 13 13 15 15 16 17 17 18 19 19 20 20 22 20 21 21 22 21 13 16 14 13 13 16
3 2 2 2 2 4 5 6 7 9 10 11 12 11 8 11 15 15 15 14 13 15 16 16 18 17 17 18 19 19 20 21 20 21 18 20 23 21 18 14 13 14 12
3 2 3 3 4 5 6 7 8 10 11 12 13 13 11 13 14 14 16 14 14 15 16 16 18 18 18 19 19 19 20 21 20 19 21 20 23 22 21 16 13 13 13
4 4 4 5 6 7 7 8 9 10 11 12 14 14 14 14 14 15 16 15 16 15 16 17 17 18 18 19 18 19 20 20 20 19 21 22 23 20 23 23 17 14 13
4 5 6 6 7 8 9 9 11 11 11 13 14 14 14 15 15 16 16 16 16 17 17 17 17 20 20 20 20 20 21 23 22 23 21 21 23 22 21 23 23 13 14
5 6 7 8 9 10 11 12 12 13 13 14 14 15 15 16 16 16 16 16 17 18 18 19 20 19 21 23 25 25 24 22 21 22 23 21 22 22 24 24 24 22 15
7 8 9 10 11 11 12 13 13 13 14 14 15 16 16 16 17 17 17 17 17 18 22 21 21 22 23 25 23 23 25 26 26 24 22 21 23 23 22 22 22 25 15

GFSGL_925_spd_078.txt.gz
Wind_Speed
32 31 31 29 30 28 25 23 25 21 20 16 22 23 20 17 14 6 9 7 12 11 16 16 16 18 20 20 20 20 21 21 17 23 24 25 25 26 28 26 20 18 20
29 30 29 32 28 28 25 25 25 25 26 27 28 22 16 17 15 11 11 12 13 16 14 18 19 18 19 20 22 24 26 27 27 24 26 26 25 23 21 17 21 21 21
26 28 29 26 28 27 26 25 25 29 28 25 23 23 23 18 13 15 16 15 16 18 15 14 15 17 19 21 22 23 24 25 25 26 26 28 26 22 18 21 24 23 22
19 25 27 28 28 28 29 26 27 26 25 22 21 23 19 13 15 16 17 17 14 11 12 13 15 18 21 23 25 23 23 22 21 23 24 24 22 25 24 24 25 25 21
28 23 22 26 27 27 27 27 27 24 25 21 21 19 15 15 15 17 14 9 7 8 12 14 17 20 21 24 26 29 30 31 28 26 24 24 23 24 23 24 21 20 22
21 23 23 24 25 25 23 24 24 27 21 18 19 16 14 16 15 11 12 11 12 13 15 17 19 21 24 26 26 25 27 31 30 26 23 19 22 23 24 22 18 13 7
25 24 25 24 24 24 27 27 27 22 19 17 15 14 13 10 9 7 8 10 11 13 15 18 21 20 23 26 27 25 26 27 29 31 29 27 26 26 23 22 16 17 12
22 21 21 22 23 25 26 23 21 19 17 15 13 9 6 6 6 5 5 7 10 12 15 18 20 22 23 24 29 31 32 28 26 26 27 32 31 28 25 16 11 14 14
21 19 19 24 25 24 20 19 17 16 13 8 7 7 6 4 5 3 5 6 9 13 18 20 19 22 22 25 28 30 31 30 27 28 29 29 25 28 27 22 20 16 13
20 21 22 22 21 20 19 17 13 11 11 11 9 8 6 3 2 5 9 9 11 13 14 17 21 22 23 24 27 29 28 30 29 27 26 27 30 27 30 28 28 19 17
22 22 21 22 20 17 13 12 11 10 11 9 7 4 1 2 3 7 10 8 9 15 19 20 21 22 25 28 30 34 34 36 33 29 26 24 25 25 24 24 25 24 21
22 22 20 18 15 14 13 10 10 8 8 7 2 1 2 2 3 5 5 8 12 14 16 21 23 28 32 32 32 33 33 30 28 24 23 25 21 22 23 26 24 27 27
19 18 16 15 13 12 12 11 8 7 8 9 5 3 3 1 2 1 6 12 13 16 19 21 26 28 27 28 24 25 26 28 23 21 22 22 23 23 23 22 25 24 24
18 17 15 13 12 10 10 8 7 7 7 5 3 3 1 1 6 9 13 15 14 18 21 24 25 23 19 22 24 25 26 28 23 22 22 23 21 19 19 20 19 18 22
17 15 12 12 13 11 13 12 7 6 5 4 4 2 1 2 5 9 12 15 17 20 22 22 23 16 19 22 25 24 24 25 28 21 22 23 20 17 17 16 18 18 18
13 15 14 12 10 10 9 8 5 2 2 1 2 3 3 6 9 12 13 14 17 17 18 20 17 16 16 17 20 22 23 24 25 29 31 20 18 18 15 14 16 18 17
16 13 12 10 9 8 6 5 5 3 2 2 3 4 6 7 9 12 15 14 16 14 15 16 15 16 17 17 17 21 23 24 26 23 25 25 25 21 19 19 15 18 17
18 14 11 10 9 7 5 4 3 4 1 3 7 7 6 5 8 14 13 13 14 12 14 15 15 16 17 16 18 21 23 24 24 26 25 25 25 29 16 16 15 16 16
12 11 8 6 4 4 3 3 3 4 4 6 8 7 9 3 8 14 14 11 10 12 13 14 15 17 17 17 19 21 22 22 24 24 25 25 25 25 27 15 17 20 18
11 10 8 5 4 4 4 5 6 7 6 7 8 9 10 15 17 19 14 13 11 11 11 14 16 16 18 18 19 19 20 21 21 23 23 24 23 24 24 24 24 15 17
8 6 7 5 5 5 5 6 8 8 9 9 9 11 11 9 12 14 14 13 14 11 14 17 17 16 17 19 19 20 20 20 21 22 22 22 24 25 26 26 25 13 14
8 7 6 5 5 7 6 8 7 8 10 11 10 11 14 13 13 13 13 14 15 16 15 15 18 19 19 18 20 22 21 22 21 21 23 23 24 24 24 24 24 28 12
7 7 6 6 5 6 8 9 8 10 11 11 12 12 13 14 14 14 15 16 17 16 17 18 19 20 18 21 21 21 21 21 23 26 27 26 24 23 26 24 22 24 25
7 7 6 7 7 8 8 8 10 11 10 10 11 13 13 14 16 16 17 16 17 17 18 20 17 20 22 21 21 22 25 25 25 23 20 24 28 26 23 24 24 23 22
7 7 7 9 9 10 11 11 11 11 11 12 12 12 14 16 16 16 18 18 18 19 18 18 24 21 20 23 25 23 23 21 26 28 26 25 25 26 25 24 24 24 23
8 9 10 10 10 11 12 12 12 13 13 12 13 15 15 15 17 18 17 19 19 18 22 21 22 23 23 23 23 24 26 27 29 28 25 24 25 23 22 22 23 23 24

GFSGL_925_spd_081.txt.gz
Wind_Speed
35 37 38 40 42 39 34 34 32 30 27 25 29 31 32 30 26 26 20 18 13 11 12 16 18 16 16 17 18 20 22 23 17 21 25 30 30 28 28 28 31 26 20
36 37 40 42 42 38 30 30 32 30 28 28 28 32 32 31 30 27 22 18 15 18 16 19 17 19 21 17 17 19 23 25 29 24 26 28 23 20 20 20 12 11 19
31 38 35 36 36 29 28 27 30 29 27 25 28 32 31 29 27 23 21 20 18 15 16 17 15 11 12 14 15 16 19 21 22 25 24 18 16 19 22 23 26 26 27
39 32 30 32 35 29 30 33 30 28 26 29 32 32 29 25 23 19 17 15 15 17 16 10 8 9 13 16 19 21 22 23 25 29 32 30 31 30 23 22 26 26 24
22 24 28 32 30 30 33 31 29 28 33 33 29 26 25 23 18 16 16 15 15 13 10 8 9 11 13 15 17 20 20 22 24 28 25 26 26 26 24 26 23 23 24
25 24 25 24 25 26 27 28 31 32 29 28 24 24 21 14 12 13 13 17 12 10 9 12 13 15 17 18 17 16 13 14 18 19 21 19 25 26 25 27 24 13 6
25 22 22 23 24 24 25 26 28 29 28 23 21 20 15 15 12 14 12 9 6 6 7 10 12 12 13 17 20 22 24 25 25 21 25 24 26 25 27 25 26 22 20
24 22 21 21 22 22 24 25 25 27 21 19 17 16 13 12 15 12 8 5 4 4 6 7 11 15 17 18 22 25 26 27 26 25 24 29 32 32 30 31 30 29 23
23 23 23 24 25 24 23 26 26 21 18 18 14 15 16 15 12 9 6 5 5 7 10 13 14 16 18 18 21 25 28 30 29 28 26 29 29 25 26 24 22 20 14
21 21 22 22 24 25 25 24 21 20 16 17 16 16 15 15 9 5 4 4 6 8 10 12 13 13 14 17 21 27 29 33 34 33 31 29 30 30 26 25 27 20 14
20 20 22 22 23 25 24 22 19 17 19 20 19 14 11 7 5 2 4 6 5 8 12 15 16 16 17 20 20 22 24 27 31 29 29 28 25 23 24 23 25 30 21
22 22 23 23 20 23 19 18 19 20 20 16 14 12 11 10 4 3 3 4 6 9 12 14 17 19 19 17 15 18 19 22 21 23 23 23 23 24 24 25 26 27 29
24 20 19 20 19 21 20 18 18 16 14 12 10 13 11 10 6 3 3 6 9 10 12 14 18 18 15 12 17 19 19 20 21 22 23 24 23 25 27 28 24 28 25
23 23 21 22 21 21 20 19 19 16 14 11 11 13 12 9 4 4 7 10 12 13 16 17 17 15 9 16 19 20 17 19 19 18 22 26 28 25 27 22 19 19 21
24 22 21 22 22 21 18 14 12 10 7 10 9 9 8 6 5 8 11 13 13 14 16 15 16 14 14 16 18 17 19 20 20 23 22 25 27 26 26 27 21 19 15
26 26 23 21 18 15 12 11 9 6 4 3 1 3 4 4 5 8 11 13 12 13 13 15 16 12 14 16 16 17 17 18 21 22 22 22 24 26 28 21 20 20 17
28 24 22 20 18 15 9 6 5 0 2 2 2 3 3 4 4 8 11 12 11 11 9 12 11 13 15 15 16 16 17 18 22 19 21 23 24 24 25 27 19 19 17
24 19 14 10 8 7 6 4 5 2 1 2 4 6 6 5 4 6 12 12 12 8 10 10 11 13 14 14 17 19 21 22 20 22 22 21 23 22 23 23 26 19 19
15 13 10 7 7 6 5 4 4 4 2 2 4 3 7 6 4 11 16 8 11 9 7 8 11 13 14 16 16 17 18 19 20 22 24 21 21 22 22 23 23 25 25
13 11 9 7 5 3 3 2 3 4 5 6 4 2 1 6 10 14 9 10 10 9 9 12 13 12 13 16 17 17 20 20 20 23 23 19 21 21 22 23 23 25 23
9 7 6 4 3 4 3 4 6 7 7 8 7 7 8 10 11 11 8 9 10 12 14 13 13 15 17 17 17 19 21 21 21 21 18 22 22 23 22 21 23 24 22
7 7 7 6 6 6 9 9 8 6 8 8 9 9 10 11 11 11 11 12 13 14 12 13 16 16 16 15 18 21 20 20 18 21 27 26 25 20 20 23 24 22 23
10 9 9 9 8 8 11 9 9 12 12 9 9 10 11 10 12 13 14 13 13 13 14 15 16 15 16 20 20 16 17 19 24 23 23 20 23 27 27 23 20 21 21
10 10 10 10 11 11 11 12 11 11 12 12 11 10 11 13 14 13 14 16 16 17 16 15 16 20 21 17 18 21 23 21 20 18 25 26 26 28 26 23 21 20 21
11 12 13 13 13 12 12 13 13 13 14 13 12 13 15 14 14 15 17 18 19 17 17 20 23 24 23 24 22 18 18 21 23 24 25 25 26 27 26 24 20 20 19
12 14 14 14 14 12 13 15 16 16 14 13 14 14 12 13 14 16 19 16 15 20 25 28 27 22 20 19 20 20 22 24 25 25 25 24 25 25 24 20 20 20 20

GFSGL_925_spd_084.txt.gz
Wind_Speed
39 38 38 39 45 45 46 45 45 44 38 35 29 29 33 31 31 34 34 30 29 26 24 22 22 18 16 16 19 21 20 20 14 17 22 25 25 25 26 24 24 26 26
37 37 38 37 38 40 42 35 33 28 29 30 28 28 30 34 34 37 33 33 28 27 23 22 21 18 19 19 19 20 20 20 21 20 23 23 23 23 23 21 24 23 22
36 37 36 36 36 37 36 37 34 19 39 33 30 33 34 39 42 40 36 30 28 23 21 20 17 17 18 16 14 13 15 17 20 23 24 24 23 19 23 27 28 26 27
35 38 36 35 37 39 35 30 26 38 40 36 36 36 37 39 40 36 31 25 20 18 16 18 16 14 12 10 9 10 11 15 18 20 22 24 22 22 23 25 28 28 30
34 33 34 30 29 33 35 33 32 35 37 35 36 33 32 33 30 32 26 20 18 16 15 13 12 9 6 5 8 9 11 11 13 15 16 19 20 20 21 25 28 31 31
32 30 27 25 27 30 28 23 27 28 29 32 31 31 33 28 24 21 17 18 17 17 18 13 10 8 9 7 6 6 9 12 15 15 18 19 22 22 23 24 24 19 16
27 23 19 19 20 20 20 22 25 27 28 29 29 28 25 23 18 16 14 14 18 14 10 9 7 7 8 9 11 14 16 16 17 16 20 22 24 23 24 24 21 23 26
21 19 18 20 22 22 23 24 25 26 26 27 24 21 20 15 16 14 16 17 13 9 7 6 6 7 10 13 16 19 20 20 20 21 23 25 25 26 26 27 26 25 26
20 20 21 22 23 21 21 23 23 24 24 21 20 19 20 15 17 20 18 15 11 8 4 5 8 11 12 13 15 17 20 22 20 19 20 23 25 27 24 25 23 21 20
19 19 18 18 18 19 20 21 23 24 21 20 19 18 18 23 19 16 12 9 7 4 4 6 7 8 9 10 12 16 18 19 19 22 23 24 24 26 24 21 23 20 19
16 16 15 15 16 17 19 22 22 21 20 20 21 22 21 18 14 7 5 3 1 2 4 7 9 9 10 12 10 10 12 17 18 20 18 20 23 24 23 22 23 24 22
15 14 13 14 15 19 19 17 19 21 25 25 25 21 16 12 8 5 1 2 2 4 6 9 11 12 12 9 5 9 14 17 18 19 18 17 19 22 23 23 24 26 28
18 17 17 16 15 15 14 16 18 21 23 20 19 17 14 11 8 5 1 3 6 7 8 9 10 10 8 3 7 10 13 15 16 18 15 19 20 25 26 23 24 25 26
22 22 21 22 22 20 18 17 17 14 15 14 13 14 14 9 3 1 4 7 9 10 10 12 9 8 3 5 8 10 12 13 13 13 18 18 22 23 22 22 25 24 23
28 26 26 28 27 27 26 21 18 15 10 10 10 10 9 5 2 3 7 10 11 10 12 10 9 6 4 7 9 8 11 11 11 15 15 20 19 22 22 24 22 29 23
28 26 25 26 24 22 20 18 14 11 8 6 5 3 2 1 1 3 7 9 11 10 10 7 3 4 7 7 9 9 10 12 13 13 18 17 18 21 22 24 23 22 26
27 24 25 20 16 12 8 6 4 3 4 3 3 3 1 3 4 7 7 9 10 10 8 5 3 6 7 7 9 10 11 12 13 15 16 20 18 19 21 23 22 22 23
22 17 17 15 15 12 9 7 6 5 4 3 3 4 4 5 4 3 8 10 8 6 6 2 4 6 7 7 8 10 11 13 14 13 18 19 17 16 19 20 20 22 21
18 16 14 12 11 9 8 6 5 5 5 4 3 2 5 6 2 7 7 6 4 4 3 5 7 8 9 10 12 13 13 15 15 17 18 15 14 19 18 19 21 21 22
18 15 14 12 10 9 8 8 8 7 7 7 6 4 2 6 8 8 6 5 6 6 8 9 9 10 12 13 14 13 15 16 16 16 14 14 22 20 21 19 19 22 22
16 13 10 10 11 10 9 9 8 7 7 6 6 6 6 5 5 6 7 7 9 9 8 7 9 11 12 13 13 15 18 17 15 12 18 22 20 19 19 17 22 22 21
15 15 14 13 12 12 11 10 10 10 9 7 5 6 6 7 8 8 8 8 8 8 9 10 12 11 10 13 17 18 16 14 12 20 20 19 17 22 22 23 23 21 19
16 15 15 14 13 12 12 11 11 11 11 10 9 8 9 10 10 9 9 10 11 12 12 13 12 14 16 17 17 16 17 20 20 18 19 17 26 23 25 23 22 21 19
16 16 15 14 14 13 13 12 12 12 12 10 9 9 10 10 9 10 11 12 14 14 11 14 17 20 23 22 20 18 16 14 14 17 19 23 24 24 24 24 22 24 21
16 16 15 14 14 14 14 14 14 13 13 13 12 11 8 9 11 12 15 15 12 15 18 22 24 24 21 18 17 14 13 15 18 18 20 22 23 25 25 24 23 22 18
16 16 16 15 14 13 13 14 15 14 14 14 12 10 11 12 12 12 13 17 21 24 26 25 24 21 18 18 17 16 18 19 21 23 24 24 22 22 21 22 21 20 20

GFSGL_925_spd_087.txt.gz
Wind_Speed
35 35 36 38 38 37 37 38 41 39 42 43 41 39 40 37 34 35 37 37 35 38 33 34 32 27 25 24 21 21 21 22 13 15 17 20 21 21 21 21 22 23 24
40 36 40 39 36 36 40 39 37 39 42 39 37 36 31 38 41 39 37 37 39 39 36 36 31 26 23 21 21 22 23 22 20 17 20 18 19 19 19 21 21 22 24
40 39 36 37 37 39 39 37 40 38 27 29 23 35 37 41 40 38 41 41 41 40 37 32 27 23 21 21 23 21 20 17 16 15 15 17 16 19 20 20 22 24 26
40 40 38 38 41 42 37 33 33 30 28 30 38 38 37 38 37 37 36 35 36 35 32 25 21 20 19 21 20 16 14 15 15 15 15 14 14 15 17 20 24 26 27
38 37 39 37 33 33 34 36 34 35 41 35 34 32 36 36 35 34 33 32 31 30 23 17 17 16 15 16 14 13 12 12 13 12 12 14 18 18 18 19 24 27 29
32 31 30 30 29 30 31 29 29 31 30 26 27 33 36 32 33 35 34 29 22 15 14 12 11 14 14 11 11 10 9 9 11 13 15 16 19 21 22 21 20 20 9
25 22 22 23 23 22 22 24 28 26 23 25 29 30 28 29 26 27 24 21 20 19 17 17 15 11 8 8 8 9 11 13 14 15 18 20 22 22 21 23 22 22 21
18 17 16 14 14 16 18 21 20 21 23 23 21 20 22 19 22 20 17 17 15 14 16 12 10 7 6 8 9 10 12 13 13 14 16 19 20 21 22 24 25 26 26
15 14 13 14 15 15 16 16 16 18 17 17 19 19 20 17 16 15 15 19 21 16 11 7 4 5 5 6 8 10 11 12 11 11 14 17 18 18 19 23 20 18 21
9 9 8 9 11 13 13 12 12 14 16 16 17 16 17 18 14 15 16 15 13 11 7 4 3 4 4 6 7 9 10 9 13 15 18 20 19 20 19 20 23 18 17
9 9 8 6 6 8 10 12 15 18 20 20 21 19 18 19 16 12 10 9 7 6 5 3 1 3 5 7 5 4 5 10 12 15 18 18 17 18 14 14 18 24 21
11 11 10 10 10 11 14 14 16 19 21 20 23 22 19 16 14 11 9 7 5 3 1 3 5 6 6 5 3 3 7 11 14 15 14 12 17 16 20 22 20 19 25
21 20 20 19 18 17 18 17 18 17 19 18 19 19 16 12 11 9 6 4 3 4 4 6 7 7 6 2 2 5 9 12 14 14 11 14 14 21 21 21 21 21 23
24 22 21 22 22 21 20 19 19 17 18 16 14 13 11 8 6 4 4 4 6 7 6 7 6 5 2 0 4 6 9 11 11 10 14 15 21 17 20 18 20 23 21
24 23 24 26 27 28 27 23 22 18 14 11 9 8 10 7 5 4 6 6 6 6 7 7 5 2 1 2 4 6 8 8 8 12 12 18 17 18 18 16 19 21 18
26 22 23 26 25 22 19 18 16 13 10 8 6 3 5 3 2 1 1 2 4 5 6 2 1 2 2 3 3 4 5 6 8 10 13 16 19 17 17 19 19 17 18
27 23 22 18 15 14 13 11 9 8 8 7 6 5 3 0 2 2 4 6 6 8 7 6 4 3 1 2 2 4 5 8 10 12 12 16 18 16 15 18 18 18 19
22 19 19 18 16 15 14 13 12 11 9 8 7 5 3 1 1 4 7 8 9 7 4 1 2 2 2 3 5 7 9 11 13 13 14 15 12 13 18 17 17 18 19
23 21 19 19 17 16 15 14 13 12 11 9 7 6 8 5 5 8 10 7 5 5 5 6 7 6 6 8 10 10 10 12 13 14 13 12 11 18 18 18 18 18 20
23 20 18 17 17 16 15 15 13 12 11 10 10 10 10 12 13 11 9 8 8 9 9 7 5 8 11 12 12 11 14 16 16 15 12 12 17 15 16 19 17 18 20
20 21 19 20 19 17 17 16 14 14 13 11 11 11 10 10 10 10 10 11 10 9 7 6 8 11 13 12 13 15 17 17 15 12 12 18 16 14 18 20 19 22 19
21 21 20 20 18 18 17 17 17 16 15 13 11 11 12 12 11 10 10 10 10 11 12 14 13 11 11 14 17 17 17 17 17 18 18 17 15 16 22 20 23 23 22
21 20 20 19 18 17 17 16 15 14 13 12 11 11 12 11 10 9 10 11 13 14 13 12 14 17 18 19 20 19 19 20 18 15 15 16 16 22 21 21 22 21 20
20 20 18 18 17 17 16 16 15 14 13 11 10 10 9 9 10 11 14 14 13 14 16 18 21 23 24 22 20 17 15 13 12 15 17 19 20 20 19 19 20 20 22
19 19 18 18 17 15 14 14 14 14 13 13 12 11 11 13 14 14 14 16 19 21 22 22 22 21 20 18 17 16 14 14 16 17 18 20 22 24 24 21 21 22 22
19 18 17 15 14 14 14 14 13 13 13 12 12 13 14 15 17 18 19 20 20 21 21 23 25 23 19 18 16 16 17 17 18 18 19 20 21 20 20 20 21 21 20

GFSGL_925_spd_090.txt.gz
Wind_Speed
33 35 37 38 39 38 39 42 40 39 41 42 42 42 43 42 38 35 33 31 29 36 38 39 41 38 34 36 30 25 24 22 11 12 16 17 17 18 18 18 19 20 20
35 35 34 34 36 39 42 41 38 41 43 45 42 43 37 38 37 32 32 28 31 38 40 38 38 39 34 36 32 28 26 23 21 15 19 19 19 17 19 21 20 19 19
33 33 30 35 33 38 38 37 40 42 44 42 40 35 38 37 39 34 33 37 47 42 38 39 39 39 33 31 26 26 23 20 20 19 17 14 14 16 18 19 18 19 20
36 37 33 35 38 36 36 36 38 40 38 38 38 35 39 37 36 36 36 35 34 33 34 37 35 36 32 29 25 23 20 19 19 16 14 13 13 14 14 17 21 23 25
32 32 42 34 31 31 34 36 38 37 36 37 36 38 37 33 35 33 34 35 35 32 30 28 25 23 23 19 18 17 17 18 15 14 10 8 11 13 15 14 21 24 25
30 33 30 30 31 33 34 36 37 34 33 33 35 36 33 30 34 35 36 34 34 32 30 24 20 17 13 12 12 12 13 14 12 9 10 11 13 15 16 17 18 14 6
27 26 26 27 30 32 31 29 30 33 34 34 34 29 28 29 30 31 29 27 24 22 22 19 18 17 15 14 12 13 9 9 10 10 11 13 13 14 15 17 18 18 15
18 17 19 20 19 19 20 23 26 26 25 21 19 18 17 15 15 19 20 16 17 17 17 16 14 13 11 11 8 6 8 9 9 9 10 11 12 12 14 17 19 23 23
13 11 11 12 14 15 13 12 10 9 6 6 7 8 9 11 12 16 19 20 18 18 16 15 12 10 5 5 6 6 6 6 5 5 6 7 11 11 12 15 15 15 19
15 13 10 9 9 9 8 8 8 9 12 12 14 13 16 15 11 10 13 18 22 20 13 10 6 4 2 2 3 3 3 3 5 6 8 11 12 12 10 9 11 16 18
19 18 17 15 14 12 12 11 11 13 15 18 21 19 18 16 15 15 15 15 14 13 10 9 6 2 1 3 3 2 3 3 5 7 9 10 10 13 13 12 14 17 17
23 22 20 18 16 14 13 13 13 17 20 21 22 21 19 18 16 15 15 13 12 10 8 4 2 3 3 2 1 2 3 3 6 9 8 6 9 9 12 18 18 18 19
24 23 21 20 19 16 16 17 17 16 17 16 16 17 17 16 16 13 12 10 10 9 6 4 5 6 5 3 5 4 3 5 7 7 6 8 9 12 14 15 17 15 22
27 24 23 24 24 23 22 21 22 19 18 17 16 14 12 10 9 8 9 9 8 7 6 6 4 1 4 6 4 4 4 6 6 6 8 9 11 12 13 14 16 16 21
30 28 28 29 30 31 30 26 25 20 16 14 11 9 8 8 8 8 8 8 7 6 5 4 2 2 4 4 4 4 7 7 6 7 8 10 11 13 15 14 14 17 16
29 25 23 24 24 24 23 25 23 20 18 16 13 11 9 7 6 6 6 6 6 6 4 2 4 4 5 5 4 3 4 5 6 8 11 11 15 15 16 14 15 15 17
28 24 24 24 22 21 21 17 15 18 18 18 15 12 10 9 8 7 8 8 9 11 8 7 3 2 3 4 3 5 6 8 11 13 13 15 17 16 13 15 15 15 17
31 29 27 24 23 23 22 20 18 16 14 16 18 20 17 15 14 14 13 12 12 11 10 9 7 6 6 6 7 9 11 12 13 14 15 16 16 12 15 15 15 15 17
27 25 25 26 25 23 22 21 20 19 18 17 15 16 17 15 15 16 14 15 12 11 11 10 10 7 9 10 12 13 12 13 15 17 18 17 14 14 19 16 15 19 18
29 27 26 25 24 24 24 23 21 19 18 18 19 19 17 17 18 16 15 14 13 12 12 11 10 12 14 15 14 13 15 17 19 20 19 15 14 18 20 18 20 17 18
26 27 26 26 25 25 24 23 21 20 18 16 15 14 14 15 14 14 14 14 14 14 15 15 16 16 16 15 17 19 20 20 20 19 19 20 22 21 18 17 20 17 18
26 25 25 25 23 22 21 19 18 16 15 14 13 13 13 12 11 12 13 13 15 15 15 15 17 18 19 20 22 23 23 23 23 22 21 19 18 17 17 22 23 22 19
24 24 24 22 21 20 20 18 17 16 14 13 12 13 12 12 12 13 15 15 15 16 18 20 22 23 24 24 23 22 22 22 21 18 17 17 19 20 22 22 21 20 17
23 22 22 21 20 19 17 17 16 15 14 13 13 12 13 13 15 16 17 18 20 21 21 22 23 23 24 25 23 20 18 17 16 17 18 21 22 22 19 19 21 20 20
21 22 21 19 17 17 16 15 14 12 12 12 13 14 15 16 18 19 20 21 22 22 22 22 24 25 24 22 20 18 16 15 17 19 21 22 24 24 24 23 22 20 19
21 20 18 17 16 14 13 12 12 13 14 15 16 16 16 18 18 19 20 21 24 26 27 27 26 24 21 20 19 18 18 18 18 18 19 21 22 21 20 20 20 19 19

GFSGL_925_spd_093.txt.gz
Wind_Speed
28 29 30 32 32 33 34 33 32 30 29 28 28 30 33 33 36 35 35 36 39 41 40 39 38 35 36 35 37 35 32 28 18 13 17 20 21 21 22 23 23 23 21
31 31 31 31 33 34 37 36 33 36 34 33 29 28 28 31 34 32 36 37 40 40 40 36 34 31 37 34 35 37 32 31 23 19 19 23 22 20 20 21 19 19 17
30 30 30 33 36 38 35 31 34 38 33 30 28 29 32 35 39 41 42 39 40 43 40 37 38 37 35 33 35 31 30 31 30 20 15 20 20 20 19 18 17 17 19
29 30 31 33 33 30 32 31 31 30 27 27 28 31 34 34 37 37 36 36 37 37 36 37 40 37 40 34 30 31 28 28 24 22 17 14 11 9 11 11 12 12 15
30 31 33 27 26 25 27 27 26 25 27 27 29 31 33 32 35 33 32 34 33 35 35 34 36 37 39 35 33 31 30 24 21 19 11 8 10 8 9 11 12 14 16
27 28 25 24 22 22 23 23 23 23 23 24 29 31 32 35 38 39 35 29 30 31 26 24 26 26 25 27 25 22 20 20 20 13 6 8 8 8 10 12 13 12 9
22 21 19 19 20 19 18 17 18 19 21 25 28 27 27 24 25 26 25 26 23 20 19 18 15 14 14 12 8 12 11 11 11 9 7 7 7 9 8 11 12 14 16
12 12 13 14 14 14 13 14 15 15 13 10 8 7 8 9 11 12 15 14 9 9 11 14 15 13 11 13 11 8 6 3 1 3 5 5 7 7 8 11 12 16 18
12 9 6 7 8 8 8 7 6 6 7 8 8 7 7 8 3 6 7 13 16 17 15 13 13 13 12 9 7 6 4 4 1 3 4 5 7 9 11 9 14 14 17
18 15 12 11 12 14 13 13 13 14 15 15 17 16 16 15 10 10 12 17 20 19 17 16 15 12 13 13 9 4 3 3 4 5 5 5 7 7 10 8 9 14 18
25 23 21 19 18 16 16 15 15 17 19 21 23 22 22 20 20 19 16 17 17 15 13 12 10 8 6 4 1 2 4 6 4 3 3 4 3 6 7 7 9 12 16
28 28 25 22 20 19 20 19 19 20 24 24 25 26 25 24 22 21 19 16 12 12 10 7 6 6 4 2 1 2 4 4 2 3 4 5 7 7 7 10 12 14 17
30 28 27 27 27 25 25 24 24 22 23 21 20 20 19 19 19 18 17 15 13 11 8 5 4 5 7 3 3 4 1 0 3 5 6 7 7 8 11 12 14 16 18
28 25 26 29 29 30 30 27 25 21 19 17 16 15 14 14 14 13 12 11 10 9 8 8 7 7 2 4 1 2 3 3 5 6 7 8 8 9 11 13 16 16 18
29 27 26 28 30 32 33 27 29 26 21 17 14 12 10 12 11 12 12 11 9 8 7 6 6 6 4 4 4 3 3 4 6 5 8 9 12 13 15 15 16 17 18
28 24 22 23 23 22 24 28 29 27 24 22 20 16 17 16 14 14 13 13 12 10 7 8 8 7 7 8 8 5 6 8 8 11 13 14 16 17 18 17 16 17 18
27 23 23 22 21 19 17 16 20 24 30 30 27 25 21 18 17 15 13 12 15 12 11 10 9 8 8 8 9 10 12 11 12 14 15 16 17 18 18 16 16 16 17
27 24 23 20 19 18 18 17 15 14 15 16 22 21 19 18 18 18 16 12 13 14 12 12 12 12 12 13 14 14 15 16 15 16 17 17 18 18 17 16 17 17 17
25 23 21 21 21 20 18 18 17 16 15 13 12 15 16 15 15 17 17 15 13 13 14 13 13 13 14 15 15 15 15 15 16 17 17 17 17 16 15 16 17 17 18
26 24 21 20 19 19 18 17 15 15 14 13 13 13 13 13 16 16 16 15 14 12 13 13 13 14 15 16 16 17 17 18 18 19 18 18 17 15 18 18 17 17 18
22 21 20 20 19 18 16 16 15 14 13 13 13 14 15 13 12 12 12 13 12 12 12 12 13 14 15 16 17 18 18 19 19 19 18 18 17 17 16 15 15 17 18
20 20 20 20 17 16 16 15 15 14 13 12 11 11 13 12 11 11 11 11 11 12 12 13 14 15 16 17 17 18 18 18 18 16 16 15 14 15 15 16 17 17 17
20 20 19 18 17 17 17 16 15 14 13 11 10 10 11 11 11 11 11 12 13 13 13 13 14 15 14 15 16 16 16 16 16 15 15 16 16 16 16 17 17 17 17
19 19 19 18 17 16 15 14 13 12 10 10 10 10 10 10 11 11 12 13 13 13 14 14 15 16 17 17 15 14 14 14 15 15 15 17 18 18 17 18 18 18 18
21 20 19 16 15 13 12 12 11 10 10 9 9 9 10 11 11 12 13 14 14 15 16 16 15 16 17 18 17 17 17 16 16 16 16 17 18 19 19 18 17 16 16
19 18 15 14 12 11 11 11 10 9 8 8 9 10 11 11 11 12 13 13 16 17 17 16 17 17 18 18 17 19 20 20 20 19 17 17 18 17 16 16 16 16 17

GFSGL_925_spd_096.txt.gz
Wind_Speed
29 29 29 30 31 31 30 29 29 26 26 27 28 28 30 32 31 31 32 30 29 30 30 30 32 31 32 33 34 34 32 32 21 30 26 27 26 28 27 30 29 28 30
28 29 30 29 30 32 33 32 30 31 29 30 30 31 32 33 34 33 32 31 31 32 34 34 38 37 39 42 36 35 34 36 32 26 25 27 27 30 32 27 33 30 26
28 29 29 30 31 30 30 30 28 26 27 27 28 29 29 29 29 29 30 34 38 35 32 33 36 37 37 35 36 34 33 33 32 28 24 26 23 27 28 25 24 23 22
30 30 30 30 29 27 27 27 27 27 26 27 28 29 29 28 28 28 29 32 32 31 30 36 39 34 35 35 31 36 35 33 31 31 22 20 19 17 21 18 18 19 18
29 28 27 25 24 24 24 24 24 25 27 27 26 26 26 26 26 28 29 33 34 34 33 33 30 31 31 35 30 27 24 22 17 15 9 6 9 9 12 11 11 10 12
25 24 22 22 22 22 22 22 23 25 24 23 23 23 24 25 30 33 33 26 25 25 24 24 24 24 25 28 28 24 20 20 18 14 7 5 6 9 8 8 7 6 5
20 19 18 19 19 19 19 20 21 20 19 20 21 20 15 13 17 17 14 14 16 12 8 7 5 2 1 3 5 7 8 7 9 8 7 6 5 6 5 5 7 9 13
17 15 14 13 13 12 13 12 11 9 8 7 7 5 4 7 6 5 4 2 5 7 7 8 10 12 12 10 11 11 11 10 9 6 4 4 3 1 2 6 11 15 19
14 12 10 9 10 11 11 11 12 14 15 16 16 15 15 15 9 7 7 13 17 18 17 16 15 14 13 11 11 10 8 7 6 5 3 3 6 9 11 8 13 16 18
21 21 22 21 22 22 19 19 20 22 24 23 25 25 25 24 19 16 16 18 20 20 18 16 14 12 9 8 8 6 5 2 3 4 5 7 7 8 11 10 13 15 16
30 32 31 30 29 27 26 25 26 27 28 29 31 30 30 27 25 23 20 20 17 15 13 12 12 11 10 9 8 5 3 5 5 5 5 6 6 7 9 11 11 11 15
29 33 33 32 29 29 30 27 26 28 30 26 27 25 28 27 24 23 21 19 15 14 11 9 8 9 10 7 5 6 5 4 4 6 7 8 8 9 8 7 11 14 16
34 30 32 33 32 28 28 25 24 23 22 19 20 19 18 19 20 20 19 18 16 12 10 10 11 11 11 5 4 4 6 5 7 9 10 9 9 8 12 13 14 15 18
33 28 28 30 31 29 28 26 25 20 19 17 16 15 13 15 14 13 12 12 13 11 10 9 10 11 8 5 5 4 7 8 10 12 11 12 12 13 15 15 17 19 21
31 29 28 29 32 34 33 27 28 26 18 17 17 17 15 17 17 15 15 13 12 11 9 10 11 12 12 11 11 10 8 10 12 11 13 15 16 18 18 19 19 21 22
30 24 23 24 25 26 29 35 34 32 31 28 25 20 20 18 16 15 14 15 15 14 10 12 12 13 13 14 14 14 14 14 14 16 18 18 19 20 21 22 22 21 20
33 23 23 22 21 20 20 21 23 25 29 26 24 23 21 18 18 17 13 11 16 13 12 11 12 13 14 15 15 16 17 18 19 19 19 19 20 21 21 21 21 19 19
29 25 23 21 20 18 17 16 14 13 13 14 19 19 18 17 18 18 17 11 12 13 12 11 11 12 13 14 15 16 16 17 18 18 19 19 19 19 21 20 19 18 19
26 23 21 22 21 18 18 16 15 14 12 11 9 12 13 13 15 18 17 14 11 11 11 11 11 12 13 14 14 15 16 16 17 18 18 18 18 19 19 18 19 19 19
26 23 21 21 19 17 16 15 14 13 12 11 11 12 11 10 11 11 11 11 10 10 11 11 12 12 13 14 15 16 16 17 17 18 18 18 18 18 19 19 19 19 19
22 22 20 19 18 17 15 15 13 12 10 10 10 10 10 8 8 9 9 10 11 11 12 12 13 13 14 15 15 16 16 17 17 17 17 17 17 17 17 17 18 18 19
20 19 19 19 17 16 15 14 13 12 11 9 7 7 8 8 8 9 10 10 11 11 11 12 13 13 14 14 15 16 16 17 16 16 16 16 16 17 17 17 18 18 19
20 19 18 18 17 16 15 14 12 11 9 7 6 6 8 8 9 9 10 11 11 11 12 12 13 14 13 14 14 14 15 15 15 15 17 17 17 17 18 18 19 19 19
19 18 18 17 15 15 14 12 10 9 8 7 7 7 8 8 9 9 10 11 11 12 12 12 12 13 13 14 13 13 13 15 15 16 16 18 19 18 19 19 19 19 19
18 17 16 15 14 13 11 10 9 8 7 7 7 7 7 8 8 9 10 10 11 12 12 12 11 12 13 16 15 15 16 17 18 18 18 18 20 21 20 19 18 18 18
16 16 15 14 12 11 10 8 7 7 7 6 6 6 6 7 8 9 10 11 12 12 12 12 12 14 16 16 15 17 20 20 19 18 17 18 19 19 17 17 18 18 19

GFSGL_925_spd_099.txt.gz
Wind_Speed
25 25 24 25 23 24 26 25 24 24 25 25 28 26 27 27 26 26 27 25 27 29 28 29 30 30 30 27 28 31 36 35 23 35 31 29 39 43 42 40 45 41 42
25 26 26 25 25 25 25 26 25 26 25 24 24 24 25 26 27 30 31 30 30 30 32 32 32 30 30 31 34 34 34 34 32 30 31 29 33 39 42 35 36 39 39
24 25 25 26 26 27 27 27 26 26 26 27 27 27 27 29 29 31 31 32 32 32 31 31 30 30 34 34 33 31 30 33 33 31 32 26 28 31 34 33 31 30 26
25 25 25 26 26 25 25 26 27 27 26 27 28 27 28 28 28 28 30 30 29 28 27 32 36 33 27 25 29 30 32 29 27 25 25 21 20 19 19 15 13 16 20
26 26 26 25 24 23 23 23 23 25 25 24 23 24 23 24 24 26 26 27 27 28 28 19 15 17 21 20 20 21 20 23 22 21 13 8 8 7 11 11 13 12 16
27 27 25 24 23 23 23 22 21 21 21 20 20 20 20 15 22 25 23 22 20 10 6 5 7 11 12 13 12 11 12 10 9 5 3 3 3 2 6 7 9 6 3
25 24 24 23 22 21 20 20 20 20 18 10 7 6 4 4 6 7 6 1 2 7 7 8 10 12 11 10 12 14 17 15 11 7 8 8 6 5 3 2 1 2 3
21 21 21 20 20 19 16 14 13 12 12 13 13 13 14 15 12 11 8 12 15 16 16 17 16 18 17 14 14 14 14 13 12 10 7 4 2 3 4 6 8 12 16
18 18 18 17 16 20 22 22 22 24 24 24 23 22 22 21 16 16 15 19 22 22 20 18 16 16 14 13 13 12 11 10 11 11 9 8 8 9 10 10 10 11 13
20 18 19 23 24 27 26 27 27 29 32 30 33 32 30 28 23 23 22 21 22 18 16 16 18 16 15 15 12 12 11 9 10 11 10 9 10 8 10 8 11 13 14
31 29 27 29 32 31 32 31 33 34 35 33 33 32 32 30 26 24 21 20 16 13 12 12 14 16 15 13 13 12 11 12 12 12 11 11 10 9 9 9 10 9 11
38 34 29 30 31 33 35 32 31 32 31 27 27 26 27 27 25 24 23 21 17 17 15 13 13 17 16 11 10 13 14 11 11 12 14 14 12 12 10 14 16 17 16
43 35 27 30 31 32 30 27 26 24 23 21 21 19 18 17 17 20 22 21 20 15 13 15 15 13 15 10 14 11 12 12 14 16 16 14 15 16 17 17 17 18 19
38 33 25 31 30 31 31 25 23 20 19 18 20 19 18 19 17 16 15 15 15 13 12 11 12 13 13 13 14 15 13 13 14 16 15 17 19 20 21 21 22 23 23
38 31 26 30 31 32 34 29 30 28 22 23 22 20 18 19 18 17 18 16 14 12 10 11 13 15 15 15 15 15 16 17 18 18 20 22 21 22 23 23 24 25 24
32 27 25 25 28 30 33 36 35 33 33 32 27 24 22 19 16 15 15 17 16 13 10 12 13 15 16 16 17 18 18 19 20 22 21 21 22 23 23 24 24 23 23
29 28 25 23 24 24 24 24 27 29 30 27 25 24 22 19 19 17 13 10 16 13 13 13 14 15 15 16 17 17 18 18 18 18 19 20 20 21 21 22 22 22 22
30 27 24 23 23 22 19 18 16 16 16 16 20 19 18 18 20 20 15 11 13 16 15 14 14 14 14 15 15 16 17 17 17 18 19 19 19 20 21 22 22 21 22
25 25 25 26 25 22 19 17 16 15 14 13 12 14 13 13 16 17 17 16 15 14 14 13 12 13 13 14 14 15 16 16 18 18 18 19 20 20 20 21 21 21 21
27 26 25 23 21 19 18 16 16 14 13 13 13 11 10 10 13 15 15 14 13 12 12 12 12 12 13 14 15 15 16 17 17 17 18 18 18 19 20 20 21 21 22
25 24 23 20 19 17 17 16 15 14 13 13 12 10 13 11 11 11 11 11 11 11 11 11 12 12 13 14 14 15 16 16 17 17 18 18 19 20 20 20 21 21 22
22 21 20 19 18 18 18 16 15 14 12 11 10 9 11 10 9 9 9 9 9 10 10 11 11 12 12 13 14 15 15 16 16 17 18 18 19 19 20 21 22 22 23
22 21 20 19 19 17 17 16 14 12 11 10 9 8 8 8 8 9 9 9 10 10 11 11 11 11 11 12 12 13 15 16 17 18 20 20 21 21 22 22 22 23 22
21 20 19 17 17 16 15 14 12 12 10 9 7 7 7 8 8 8 9 10 10 10 10 10 10 11 12 13 13 14 15 16 18 20 20 21 22 21 22 23 23 22 23
19 19 17 16 15 14 13 12 10 9 8 7 6 7 7 7 8 9 10 10 11 11 11 11 11 13 14 17 18 18 18 20 22 21 20 20 22 22 23 22 21 22 22
17 17 16 15 14 12 11 10 8 7 7 6 6 6 7 7 8 9 10 10 12 13 12 12 13 15 17 17 17 19 24 24 24 23 22 22 22 22 22 22 22 22 22

GFSGL_925_spd_102.txt.gz
Wind_Speed
27 24 25 26 25 26 25 25 25 27 30 30 35 39 39 37 35 33 33 29 28 29 29 29 34 34 33 31 32 32 30 31 21 32 33 35 33 35 40 45 48 51 55
30 27 24 25 27 27 26 30 28 28 30 30 31 34 34 33 32 30 29 26 29 30 29 30 32 29 31 33 33 32 32 33 31 28 28 27 28 30 36 41 46 49 52
28 29 28 27 25 27 27 26 30 28 27 29 29 31 30 30 31 31 30 30 31 31 31 31 31 30 30 27 28 29 32 30 27 26 26 26 25 25 26 27 30 31 30
29 29 29 29 28 26 27 26 24 25 25 26 25 24 24 23 24 27 28 29 30 31 29 22 18 16 16 17 16 9 12 15 20 22 23 20 18 18 20 20 23 23 21
25 27 28 29 28 27 28 28 29 27 28 26 25 26 24 24 24 26 23 21 12 6 3 3 4 8 10 11 8 13 14 11 12 15 12 10 9 10 10 10 12 14 16
23 23 22 26 27 26 26 27 25 25 23 20 22 19 15 9 8 18 18 10 6 3 7 9 11 13 13 20 21 19 18 14 11 7 7 6 9 8 10 9 9 7 3
24 23 23 24 23 24 22 21 21 19 16 14 12 11 12 10 8 2 7 8 12 16 16 17 18 17 18 16 17 13 16 13 16 12 10 10 7 11 11 11 10 8 7
24 23 23 23 22 23 22 23 22 22 21 21 20 21 22 21 19 19 20 22 24 24 22 21 21 18 19 14 15 15 15 17 18 16 12 10 10 12 12 12 15 17 19
20 20 23 22 25 28 29 28 28 31 29 28 27 27 29 26 24 25 26 28 29 27 24 23 20 19 17 15 16 15 14 18 16 16 15 14 14 15 16 16 14 15 12
22 25 30 30 31 32 31 31 31 36 37 36 36 34 33 31 26 26 26 26 27 23 22 21 23 20 18 17 17 15 16 15 16 16 15 14 14 13 13 11 15 16 16
25 30 34 36 36 33 35 33 35 37 39 38 38 35 34 31 27 25 24 25 22 21 20 21 20 18 17 17 18 18 15 14 15 16 17 17 16 18 18 19 19 19 16
31 33 32 33 37 39 38 35 35 32 33 31 31 30 30 30 29 28 27 25 21 23 19 18 18 16 15 18 18 15 14 15 17 17 16 18 20 20 21 20 19 19 18
35 35 35 36 32 34 41 29 29 27 24 23 24 24 22 21 22 22 23 21 19 20 19 17 16 17 16 19 20 20 21 22 21 21 20 20 21 21 22 22 22 22 23
39 35 34 35 31 28 36 27 25 23 21 22 23 22 22 22 21 18 18 18 17 17 15 17 17 17 18 18 19 20 20 21 20 20 20 21 20 21 22 23 24 24 24
36 33 33 34 37 34 39 35 36 30 24 24 24 25 21 20 19 19 19 19 16 15 15 19 20 19 18 19 20 21 21 21 22 21 20 21 21 21 21 22 22 23 22
33 30 30 27 32 32 35 44 39 36 31 29 28 28 24 20 15 15 20 20 18 16 19 20 20 19 19 18 19 20 20 21 21 19 20 21 20 21 21 21 22 21 21
34 31 30 29 28 27 31 31 31 30 29 28 27 27 26 22 19 16 14 20 20 18 21 20 19 19 18 18 18 18 19 20 19 20 20 20 20 20 22 22 21 22 22
33 32 28 26 26 26 25 22 21 21 20 22 23 24 23 23 22 21 17 17 20 21 19 18 18 18 17 17 17 17 18 18 19 19 19 19 21 21 21 21 21 22 22
33 29 29 28 27 26 24 23 21 21 20 19 18 19 18 19 19 20 20 22 18 18 17 17 17 16 15 15 15 15 16 18 18 20 19 21 21 21 21 22 22 23 25
30 28 27 26 25 24 22 22 22 22 21 19 17 16 16 16 18 19 20 19 18 16 15 15 14 14 13 13 14 16 17 18 18 19 20 20 21 23 22 23 23 23 23
25 25 25 24 23 22 22 22 22 21 21 18 17 19 17 17 17 17 16 15 15 14 13 12 11 11 12 13 14 16 16 17 18 19 20 21 23 23 23 23 23 24 24
22 24 24 24 23 24 22 21 20 20 18 16 15 16 14 15 15 14 13 12 11 10 10 9 9 10 11 12 14 14 16 17 19 20 22 24 23 23 23 23 25 24 24
25 25 25 24 23 23 22 20 19 18 17 16 14 13 13 13 13 11 10 9 8 8 9 8 8 9 10 12 12 13 15 17 19 22 24 24 23 23 25 24 24 25 24
24 24 22 22 22 22 21 20 19 17 16 14 13 13 12 11 9 9 8 8 8 8 8 8 9 10 13 13 15 15 16 17 20 26 27 23 23 22 24 25 25 26 26
23 22 21 20 20 19 19 17 17 15 14 13 11 10 8 8 7 7 8 8 8 10 9 10 10 12 14 16 16 16 17 23 23 24 26 25 25 27 27 25 25 24 26
21 20 19 19 18 18 17 16 15 14 11 9 8 7 7 6 5 6 8 8 12 11 10 10 11 13 15 17 16 19 24 25 25 28 28 24 24 24 23 24 27 26 25

GFSGL_925_spd_105.txt.gz
Wind_Speed
25 27 27 27 24 24 27 30 29 29 28 31 33 33 31 32 34 33 33 36 31 34 32 30 32 32 34 36 35 35 32 29 22 31 32 36 34 33 32 35 34 39 44
25 23 27 27 28 29 28 30 32 32 31 34 35 35 34 33 35 35 38 35 35 33 32 31 34 33 36 38 36 34 32 32 30 29 32 30 21 23 25 29 34 33 38
28 26 25 28 29 30 32 31 31 32 33 32 34 36 35 36 37 38 38 35 36 35 30 31 30 28 25 24 19 14 11 13 11 13 8 14 11 16 16 17 19 22 24
31 29 26 28 29 29 31 32 35 30 30 32 31 30 31 35 38 38 35 35 32 27 22 17 16 15 14 12 8 6 7 11 7 12 12 9 8 14 16 16 20 21 24
30 30 30 29 29 30 30 28 28 31 29 30 30 29 29 26 28 28 28 25 22 16 9 7 7 9 10 8 6 9 9 9 11 12 12 9 13 12 15 17 15 21 21
31 30 29 30 32 29 31 31 26 27 27 28 26 23 19 15 14 21 21 15 13 13 14 12 12 14 18 19 18 19 19 17 18 12 12 9 14 13 16 17 15 15 6
30 29 28 31 29 29 30 30 28 25 22 21 19 17 14 11 11 12 14 16 18 18 18 18 19 19 16 16 17 19 23 23 21 18 15 12 9 14 17 16 17 15 13
28 29 30 32 29 28 26 24 24 25 24 24 22 22 23 21 21 23 24 25 28 26 24 22 21 19 16 17 16 17 20 20 20 19 17 14 15 16 16 15 13 16 15
25 27 28 29 28 30 30 29 28 31 30 29 28 27 29 28 26 28 30 32 31 29 25 22 22 21 17 15 15 16 19 20 18 17 15 14 14 13 18 20 22 18 12
19 20 27 31 33 33 35 35 35 37 38 36 37 35 32 30 27 28 30 32 31 29 27 25 23 22 20 20 21 21 23 21 19 18 18 17 17 18 21 22 22 17 17
23 27 31 33 37 38 38 37 41 42 42 39 40 37 36 31 26 24 24 27 27 25 24 23 22 19 18 19 22 24 21 16 18 17 18 18 20 22 23 22 21 21 18
29 32 31 31 32 36 39 37 40 41 39 36 35 33 33 33 30 27 26 26 25 28 25 23 20 19 22 22 23 20 18 18 18 19 20 20 19 19 19 19 19 20 20
34 32 33 34 34 34 37 34 30 32 31 28 28 25 25 26 27 25 23 25 24 26 25 24 22 20 21 23 22 22 21 21 21 20 16 17 17 17 18 19 20 19 19
34 33 32 35 35 34 33 30 28 26 25 25 24 28 25 27 23 22 22 23 21 21 19 20 21 21 21 21 22 22 22 22 19 17 17 16 17 18 18 20 21 22 21
33 31 33 33 35 39 38 30 36 31 27 27 26 24 23 24 21 20 20 21 21 19 19 21 23 21 21 21 20 19 21 18 18 18 18 17 17 18 19 21 20 20 19
31 29 30 32 37 37 43 43 39 39 36 35 32 32 25 24 23 23 22 22 19 16 24 24 24 22 19 19 18 18 19 19 19 18 19 19 19 19 20 19 19 19 19
29 29 30 30 32 32 33 37 34 35 34 34 34 28 24 21 20 22 22 22 19 20 24 23 21 19 17 16 16 17 17 20 19 20 20 22 22 19 19 19 20 20 20
35 33 28 27 32 30 29 28 28 28 28 28 27 26 24 23 22 19 17 19 21 21 22 21 19 17 16 17 17 18 17 17 18 19 20 21 22 20 21 20 20 21 23
29 28 26 25 27 30 29 29 28 26 25 24 22 23 23 22 21 20 20 23 20 19 17 17 16 16 16 15 14 14 14 16 17 19 20 21 23 25 21 20 21 22 24
33 32 31 29 28 30 28 26 25 24 24 24 23 20 19 20 23 22 20 19 19 16 15 15 14 13 12 12 13 13 14 16 18 18 20 23 26 26 22 22 22 23 23
29 27 29 29 28 26 25 24 24 25 23 23 25 20 17 21 20 19 18 16 14 12 11 10 11 10 10 12 12 11 13 14 16 19 23 26 28 26 22 21 22 23 23
28 29 28 27 28 27 24 24 25 24 23 23 22 19 16 18 16 15 14 11 10 10 9 9 9 9 10 12 10 13 15 14 17 21 26 30 28 24 24 24 23 22 24
29 28 27 27 27 27 26 26 25 24 23 22 20 18 16 14 13 12 11 9 9 9 9 9 8 8 10 9 13 12 13 15 17 23 26 24 28 28 25 22 24 25 23
29 29 29 30 30 29 29 27 25 23 22 20 18 16 14 13 12 10 10 10 11 11 7 6 6 6 10 12 10 11 12 15 22 21 22 25 29 27 24 24 23 23 24
30 29 27 25 26 25 25 24 22 20 18 17 16 13 11 10 9 8 7 9 11 5 2 3 6 8 10 10 11 12 16 19 21 23 27 24 21 22 23 24 24 24 27
25 26 25 24 25 24 24 22 19 17 15 13 12 10 9 8 7 5 5 8 9 5 7 7 7 7 10 12 11 14 18 22 26 24 17 20 22 23 23 25 26 26 25

GFSGL_925_spd_108.txt.gz
Wind_Speed
26 26 26 27 25 22 23 24 27 28 28 31 32 33 32 31 30 30 30 30 31 32 31 32 31 34 32 34 36 36 31 27 18 30 30 35 33 34 28 28 24 20 20
27 27 26 28 26 25 22 23 25 27 28 31 31 28 29 27 30 32 32 28 30 32 33 32 37 32 34 36 35 32 31 29 25 23 24 18 6 2 6 9 13 15 17
28 28 26 28 29 27 27 27 27 28 28 28 30 28 28 29 31 31 33 33 32 32 31 29 28 27 28 24 20 16 11 9 7 3 0 0 3 9 14 13 14 16 17
28 25 27 27 29 29 28 29 29 28 29 29 30 32 32 32 33 35 34 33 31 24 20 18 15 12 14 12 10 6 5 3 2 7 4 8 9 11 10 18 19 21 21
29 27 25 27 28 28 28 27 26 28 28 27 28 28 30 30 29 30 30 26 24 20 10 8 7 12 13 8 9 10 8 10 11 14 15 8 10 12 16 16 13 21 19
29 28 26 26 28 29 27 29 28 25 23 25 24 23 23 22 25 27 27 24 19 18 18 18 18 19 20 20 21 20 18 16 17 16 15 12 12 12 14 15 16 15 7
28 29 28 29 27 29 28 26 25 26 24 23 21 21 17 14 15 20 22 20 20 19 20 20 20 19 19 19 21 21 24 24 22 17 18 13 10 13 14 14 13 13 12
24 28 28 28 26 28 26 26 25 27 26 25 22 20 20 18 22 25 24 25 27 26 25 24 23 21 17 18 18 21 22 23 18 18 19 17 16 14 13 11 14 17 18
16 19 27 28 26 28 27 27 28 30 28 27 25 25 26 25 26 30 31 33 35 32 27 24 23 21 18 17 20 20 19 20 19 20 17 13 17 18 17 19 22 18 11
16 14 21 28 31 30 30 30 29 32 34 33 32 28 29 30 28 30 35 40 38 34 31 29 26 25 20 19 20 18 20 16 13 12 12 13 15 16 18 20 20 16 17
19 23 24 28 34 35 36 36 38 38 39 36 35 33 31 30 28 29 31 32 34 32 30 28 24 24 23 21 20 20 17 12 14 14 14 16 17 19 21 21 19 17 16
23 29 27 28 30 33 36 36 36 37 36 32 34 33 34 32 30 30 32 33 29 34 29 30 26 24 24 19 20 17 14 14 16 17 18 18 18 20 19 20 19 17 17
27 28 29 31 30 30 35 31 29 30 33 30 29 29 27 33 32 29 30 35 32 34 32 29 26 22 21 23 22 20 19 20 19 20 17 16 16 16 16 18 17 16 18
29 28 29 31 31 30 29 25 25 25 28 29 24 25 26 26 31 31 30 30 29 29 26 25 23 22 22 20 20 20 19 18 18 17 16 15 15 17 17 18 18 20 20
27 27 28 29 31 34 33 29 32 29 31 29 32 23 25 27 19 24 26 27 26 26 26 23 22 21 21 19 18 17 16 17 17 16 15 14 15 15 17 18 17 18 17
27 26 27 31 32 35 39 40 39 38 35 33 36 36 29 27 30 25 26 23 22 21 26 26 24 21 18 17 18 15 16 16 15 14 16 16 18 17 19 18 17 18 19
29 29 30 32 31 33 35 35 35 36 36 31 30 30 32 26 26 25 25 25 23 22 29 25 21 19 17 15 14 13 13 13 12 14 16 18 21 20 20 18 18 18 19
34 30 30 29 31 31 30 30 30 29 30 28 26 29 27 25 23 24 24 25 27 23 23 21 18 16 14 13 11 11 10 10 12 13 16 19 23 23 21 17 18 19 21
33 30 29 29 29 30 30 29 27 26 27 27 28 28 24 23 23 22 20 24 21 18 17 17 16 14 12 11 9 7 8 9 11 14 17 20 24 24 22 19 18 20 22
33 31 29 29 27 26 25 25 25 22 20 20 21 22 22 25 27 25 22 21 20 17 15 15 13 11 9 8 6 6 7 10 12 15 19 23 23 22 22 21 21 22 21
31 29 28 27 24 24 24 23 23 22 18 19 20 20 21 25 24 22 20 17 15 14 12 10 9 8 7 6 5 7 8 9 12 17 23 23 22 25 25 25 25 22 21
28 26 26 26 26 26 25 23 22 21 18 21 24 22 20 22 21 19 17 13 11 10 8 6 6 6 7 7 8 8 8 11 14 20 22 22 25 26 25 24 24 22 24
27 28 28 26 27 27 25 23 22 21 22 23 23 22 20 20 18 16 13 10 8 6 7 5 4 3 5 7 6 7 10 12 17 19 22 25 27 24 23 24 23 24 23
26 26 27 26 26 27 27 26 25 24 23 23 22 19 18 15 14 13 10 8 6 5 6 4 1 3 5 6 6 8 9 14 17 20 23 24 22 22 23 23 24 24 25
26 26 25 24 24 26 27 26 24 23 22 20 19 17 14 11 10 8 6 5 4 3 2 2 3 5 6 6 8 8 11 15 18 22 21 17 19 20 21 23 24 26 26
26 25 26 26 26 26 26 25 23 20 19 17 15 12 9 7 7 4 2 4 4 2 2 2 3 4 6 8 9 11 15 18 21 18 16 17 19 21 22 23 24 25 26

GFSGL_925_spd_111.txt.gz
Wind_Speed
27 26 25 24 20 18 17 19 20 23 29 28 34 33 37 39 39 35 33 34 31 25 21 24 29 29 29 30 29 25 26 26 15 29 25 25 18 14 14 12 9 7 7
27 25 24 23 22 18 18 20 20 22 26 32 28 30 33 36 39 37 33 26 26 25 24 28 30 26 28 29 28 28 24 21 19 20 18 5 4 4 3 5 10 13 13
26 25 23 22 22 21 18 19 20 22 23 25 29 26 27 27 29 31 30 29 28 27 24 24 23 21 22 20 19 18 17 15 13 5 2 2 4 10 12 14 14 14 16
26 25 22 22 24 23 21 18 19 20 22 24 27 28 30 28 29 29 27 26 21 18 17 16 15 15 15 15 12 10 8 5 1 6 6 8 12 14 14 17 20 23 21
19 23 22 24 26 24 20 19 19 20 22 24 24 25 23 24 25 26 25 22 20 16 12 9 5 4 6 6 4 5 7 9 11 14 13 9 10 12 14 15 13 22 12
19 17 17 21 27 26 23 22 22 20 18 19 19 20 20 21 22 22 24 21 20 19 19 20 21 23 24 23 21 18 15 16 17 18 14 14 14 14 13 16 16 14 8
23 18 16 19 22 25 25 23 22 23 21 20 19 20 18 17 19 21 22 21 23 23 26 25 25 24 23 24 25 25 25 23 21 16 22 15 17 15 14 17 18 13 10
20 22 19 21 19 21 22 23 23 22 22 21 19 18 19 18 18 20 22 25 26 26 26 26 27 24 22 22 23 28 28 24 19 21 20 19 17 14 15 15 15 18 20
23 20 21 24 22 22 22 23 23 24 22 21 20 21 22 22 24 28 29 32 33 31 29 27 27 25 21 19 21 24 25 22 20 20 20 17 16 18 18 19 23 20 10
24 28 25 25 27 26 26 25 25 26 26 25 23 21 23 26 26 29 33 39 39 35 31 28 24 25 21 19 22 21 23 18 12 11 13 14 17 16 19 20 19 16 15
19 28 27 26 29 30 30 30 30 31 31 31 31 28 27 26 26 28 30 34 33 31 28 28 25 25 25 23 22 22 18 14 13 14 17 17 17 18 19 19 17 14 15
22 24 27 25 26 27 31 30 30 33 35 32 33 33 32 31 29 30 33 36 33 34 30 30 26 24 25 23 25 21 17 16 17 17 16 15 16 19 19 18 16 14 14
24 28 27 28 27 28 30 28 27 28 24 28 28 30 32 33 33 33 33 35 36 38 33 29 26 23 21 25 24 21 19 20 18 17 16 17 18 16 16 19 18 16 20
30 27 31 31 31 29 29 27 28 23 27 21 24 28 30 33 36 37 35 35 35 36 30 23 22 23 21 20 20 21 19 18 19 19 18 17 17 18 19 20 20 23 24
29 28 29 30 32 33 34 31 33 30 33 34 25 26 23 25 23 33 33 29 29 26 28 23 19 18 19 16 15 15 17 18 20 18 18 17 18 20 22 22 20 19 16
27 26 26 30 31 34 37 40 37 36 34 34 31 29 29 26 27 26 26 24 22 22 27 23 19 17 14 12 13 17 19 17 16 14 15 17 19 20 21 21 19 17 18
28 28 29 29 30 31 33 35 38 37 36 33 33 31 30 29 26 24 25 25 22 19 26 22 20 16 14 15 16 16 17 14 12 13 14 17 20 19 20 21 19 18 19
31 30 30 30 30 30 30 31 30 31 30 30 28 31 26 26 25 23 22 23 24 21 21 20 18 16 15 14 15 14 12 10 10 13 15 17 17 19 21 21 20 19 20
28 28 30 30 30 31 31 31 29 29 28 29 31 29 24 23 21 17 15 23 22 19 17 17 15 14 14 13 12 10 8 9 11 13 15 16 17 20 22 21 20 22 21
31 31 32 31 30 30 28 27 26 25 25 24 24 25 23 23 24 22 20 20 20 18 15 15 14 11 10 10 8 6 6 7 9 12 16 17 19 20 20 21 22 21 20
28 28 30 29 27 26 26 25 25 25 23 21 20 19 20 25 24 22 21 18 17 15 14 12 11 9 7 7 5 6 6 7 9 14 16 17 20 22 19 20 22 24 23
28 27 25 26 26 25 25 25 25 25 23 22 21 20 21 23 22 21 19 16 13 11 10 9 8 7 6 4 4 4 6 7 11 14 17 20 22 19 20 22 25 26 26
27 27 25 25 25 26 25 25 26 25 25 24 23 21 20 20 19 17 15 12 9 8 8 6 5 3 2 3 4 5 5 9 12 15 20 22 20 20 21 24 25 26 26
27 26 25 24 25 26 26 25 25 25 24 22 20 19 19 17 16 14 11 7 6 7 5 4 4 3 2 2 3 5 7 10 13 16 20 18 18 20 21 23 24 25 26
27 27 26 25 26 26 27 26 25 23 22 21 19 18 16 14 12 9 7 6 6 5 5 6 6 6 5 5 7 8 9 11 14 17 16 16 17 18 20 22 24 25 25
25 26 26 26 25 24 24 24 22 21 20 18 17 14 13 12 10 6 3 3 1 2 4 5 5 6 7 8 9 10 12 14 15 15 16 16 17 19 21 22 23 24 24

GFSGL_925_spd_114.txt.gz
Wind_Speed
21 24 23 25 22 18 17 14 18 20 23 28 35 36 36 44 44 42 40 38 39 36 37 37 34 32 26 25 27 24 22 22 12 18 16 13 10 6 2 3 3 4 5
20 19 22 24 24 19 16 14 13 15 21 24 27 31 33 36 42 42 40 40 38 35 31 29 29 31 30 27 26 25 24 24 21 20 9 1 3 2 3 5 7 10 9
23 22 20 21 23 20 18 15 14 14 18 19 21 24 28 31 36 40 36 38 36 33 31 30 25 26 24 23 21 20 19 16 13 7 5 3 2 5 7 9 11 13 9
24 22 20 21 22 22 19 18 17 14 15 19 21 23 23 30 31 32 35 29 29 29 27 24 24 21 20 20 18 16 13 11 8 10 7 5 5 7 7 14 17 18 11
25 22 18 19 21 22 21 18 17 17 16 17 20 18 22 22 21 27 29 28 23 23 21 18 14 14 15 14 13 10 10 12 13 13 12 11 13 14 14 15 13 18 8
24 23 20 18 20 20 20 18 17 16 16 18 18 18 19 20 22 22 23 26 27 27 24 19 16 12 12 13 15 15 14 16 17 17 16 16 13 11 13 15 15 12 7
21 21 21 20 20 21 19 18 16 18 18 18 18 18 17 16 18 20 22 26 26 24 25 25 25 26 26 27 28 27 25 22 20 18 20 12 13 13 10 12 14 10 7
21 21 22 22 21 22 20 20 18 20 21 20 19 18 16 14 18 21 24 26 26 25 25 26 28 27 25 26 27 28 28 25 23 22 21 20 15 11 11 10 11 14 10
22 25 28 25 24 25 24 22 21 21 21 21 19 18 18 18 22 26 27 30 32 31 28 26 27 28 24 23 26 31 30 28 24 23 22 19 19 18 17 15 19 17 7
20 23 28 29 30 29 27 27 25 25 25 24 22 21 21 23 23 26 31 38 40 38 34 31 27 27 25 22 24 24 25 16 14 15 17 17 15 18 20 20 15 13 11
12 16 19 25 30 29 30 28 29 28 29 29 30 26 24 21 23 28 33 37 38 35 33 32 29 25 23 24 23 22 22 16 15 15 15 15 15 18 17 15 15 13 10
20 22 21 20 26 28 31 29 31 34 34 32 32 31 31 30 29 29 33 39 38 41 35 34 30 27 27 27 27 23 20 19 17 18 17 16 14 15 18 18 16 13 12
23 24 23 25 27 30 30 28 30 30 30 28 30 31 32 32 34 35 36 37 38 41 37 33 32 29 28 27 25 24 22 21 20 19 15 15 18 17 17 17 17 19 19
24 27 26 25 33 33 30 29 29 26 25 27 33 31 30 35 35 34 34 38 38 37 32 29 28 29 27 25 22 23 23 21 20 18 16 16 16 15 17 19 19 23 24
25 23 26 27 30 36 32 30 31 26 28 28 30 31 32 29 29 36 35 32 32 32 30 26 26 24 24 22 21 18 19 19 20 17 17 15 15 15 18 19 18 18 14
21 21 22 26 30 33 35 38 36 36 37 37 32 38 31 32 32 31 30 29 27 27 28 24 22 22 21 17 17 17 17 17 15 14 15 16 17 18 19 19 17 17 18
21 22 25 27 29 32 33 35 38 40 39 39 37 36 35 32 31 31 29 26 21 23 28 23 24 23 21 17 16 15 16 13 12 13 15 15 15 16 20 18 20 21 25
28 25 24 25 26 28 30 32 34 34 32 34 34 33 32 31 28 27 26 26 24 21 24 24 23 20 17 16 15 14 13 11 11 12 12 13 16 18 20 21 23 24 22
25 24 25 26 25 28 29 31 32 32 31 31 33 30 27 27 23 20 18 26 25 23 20 19 19 18 17 16 14 12 10 9 9 10 11 13 17 19 20 21 21 23 23
30 28 28 28 28 29 29 30 30 29 29 27 26 27 25 25 25 24 24 25 24 23 21 19 18 17 15 13 10 8 7 6 7 10 12 15 16 17 18 20 23 24 23
27 29 29 28 25 26 26 26 25 26 25 25 24 20 21 26 25 23 22 21 20 20 19 17 16 14 12 9 7 7 4 5 8 10 12 15 18 17 18 20 22 23 22
28 26 25 26 25 24 24 24 25 26 25 25 24 21 23 25 25 24 22 20 18 17 14 14 14 11 8 6 5 3 3 4 8 10 13 17 17 16 18 20 21 22 22
28 28 26 25 25 27 27 26 26 26 25 25 25 24 23 24 22 21 19 17 15 13 12 9 8 7 4 2 2 2 4 6 9 12 15 17 16 16 17 19 21 22 23
25 25 25 25 25 25 25 25 26 26 26 26 24 23 22 21 20 17 15 13 12 10 8 5 3 1 1 2 3 5 7 9 10 13 15 16 15 16 17 18 20 21 22
23 24 25 25 25 25 26 26 26 25 25 24 23 22 20 18 16 14 12 10 9 6 3 2 2 4 4 5 6 8 9 10 12 14 14 14 15 15 16 18 19 21 21
23 24 25 25 25 25 26 26 25 23 23 22 20 19 17 15 13 10 8 6 5 2 2 2 3 4 6 7 9 10 11 13 13 13 14 14 15 15 16 17 18 19 20

GFSGL_925_spd_117.txt.gz
Wind_Speed
23 23 20 18 19 19 18 17 15 17 17 19 25 29 35 44 42 40 36 34 36 35 36 36 32 27 25 22 21 22 18 15 10 8 9 7 7 7 7 7 6 3 4
24 23 21 20 20 18 19 14 12 14 17 20 24 30 35 33 43 45 40 39 39 36 40 36 33 32 34 35 30 26 26 26 19 14 9 7 7 7 6 5 6 5 4
22 23 20 20 21 19 17 14 11 10 10 12 18 22 23 34 37 41 43 42 41 38 39 38 36 35 33 31 30 26 26 25 22 18 7 7 6 5 4 4 6 7 3
19 22 22 20 21 21 18 13 12 8 9 11 12 17 15 22 27 32 34 40 37 35 33 34 32 35 31 31 29 29 23 19 15 13 9 9 7 5 6 8 9 9 3
21 21 20 18 21 22 19 15 12 10 9 9 10 11 14 17 26 26 28 31 34 35 33 31 26 26 27 25 23 17 16 14 12 11 11 11 10 9 8 9 9 9 3
20 20 21 22 21 21 21 17 14 12 10 11 13 13 15 14 22 28 35 33 35 35 32 25 19 17 17 17 17 16 14 15 16 18 19 19 15 10 11 13 13 8 3
22 20 21 24 23 22 22 19 15 15 14 14 14 15 14 15 16 25 35 36 32 29 29 28 26 25 23 24 25 26 25 22 21 21 24 14 14 12 9 12 11 8 6
22 22 22 24 24 24 23 23 20 21 20 18 18 17 18 20 21 25 29 31 33 30 29 29 30 29 28 32 34 34 32 30 27 27 26 22 17 13 12 10 9 9 4
19 22 22 24 25 26 27 27 25 25 25 23 21 21 22 24 27 31 32 35 35 32 30 29 30 31 29 29 34 39 36 33 27 27 27 24 20 19 16 11 13 13 6
20 22 22 22 28 31 32 31 29 29 29 27 26 23 24 27 27 31 35 39 41 39 35 33 30 33 28 28 31 32 30 20 19 18 19 19 18 17 18 16 12 11 9
2 21 25 27 29 31 33 34 35 34 33 31 32 27 25 25 27 30 33 37 38 37 34 33 30 28 28 26 27 28 28 22 19 17 17 16 15 15 14 13 12 10 9
7 20 27 28 31 33 35 32 35 37 35 31 34 31 30 30 29 31 36 38 36 39 36 35 32 30 30 28 28 26 24 22 18 17 16 16 14 14 12 11 10 10 6
16 15 25 28 29 30 32 31 28 28 30 27 29 30 31 33 36 37 40 42 43 43 39 36 34 32 31 31 26 24 22 21 20 18 17 15 12 11 11 11 11 12 9
24 23 22 27 32 29 29 24 20 27 24 27 29 31 32 31 31 38 41 43 41 44 39 34 33 32 30 28 27 24 20 17 17 17 15 12 10 11 12 13 14 16 14
19 22 21 28 26 32 31 28 28 21 31 28 31 29 33 32 28 38 42 41 39 39 40 34 29 24 21 20 21 19 17 15 16 14 13 12 11 10 11 12 12 12 12
17 20 23 24 23 30 34 37 34 34 35 36 36 36 33 38 34 34 34 35 37 36 31 25 22 20 19 18 19 17 15 14 14 13 12 11 10 11 10 10 11 12 14
19 21 24 25 23 24 31 35 37 39 40 38 37 35 38 38 36 34 31 30 26 25 27 23 22 19 19 18 17 15 15 13 13 12 11 11 10 9 10 11 13 14 15
23 23 25 24 26 26 29 31 32 34 33 36 36 36 37 35 32 30 27 27 25 23 20 21 20 18 17 17 15 14 13 11 10 10 10 10 11 9 10 11 11 13 15
24 23 24 26 26 27 29 31 31 32 33 33 35 33 31 30 26 21 19 22 22 21 18 18 17 17 16 16 15 14 12 11 10 9 9 10 11 8 8 8 10 12 13
28 29 28 28 28 28 29 30 30 28 26 26 25 23 25 22 20 19 19 19 19 18 17 17 16 16 17 16 15 13 11 8 8 8 8 8 8 6 6 8 11 13 13
25 27 27 27 26 26 25 25 24 25 25 25 22 16 16 18 20 19 18 16 17 17 16 16 16 16 15 13 11 10 8 8 6 5 5 7 7 5 7 8 10 11 12
24 24 23 24 24 25 26 26 26 25 24 23 20 19 21 19 19 19 18 17 18 18 17 16 15 12 10 9 9 8 7 4 3 4 5 7 6 6 7 8 10 11 13
23 25 24 24 26 27 26 24 24 23 22 20 18 17 17 18 18 18 18 17 16 16 16 14 13 11 9 7 6 5 3 1 1 4 6 7 6 7 7 8 10 12 13
21 21 22 21 21 22 22 22 21 20 20 19 18 17 18 18 18 18 18 17 15 14 13 11 9 6 5 4 2 1 1 2 4 6 8 8 7 9 9 9 10 12 12
18 21 22 22 21 23 23 20 19 19 18 18 18 18 18 19 18 17 16 14 13 11 9 6 5 3 2 2 2 3 5 6 7 9 8 8 9 10 10 10 11 11 11
18 19 20 20 19 20 20 20 19 18 18 18 18 17 16 16 16 14 12 11 9 7 5 4 3 2 2 2 4 6 7 8 9 10 9 9 10 10 9 10 11 11 11

GFSGL_925_spd_120.txt.gz
Wind_Speed
19 24 23 22 21 20 18 16 14 15 17 19 26 30 31 33 34 34 36 32 33 32 32 33 31 27 29 27 24 19 13 13 7 5 13 12 9 8 7 6 3 2 3
20 23 22 20 21 20 19 17 14 13 13 16 18 21 26 36 38 36 35 33 36 34 34 32 31 30 33 31 27 21 20 20 19 15 13 10 8 8 8 7 7 4 2
22 23 21 20 20 20 19 16 12 11 11 14 18 19 21 24 27 40 42 39 38 36 35 36 35 36 32 27 28 26 26 27 23 17 7 10 9 10 8 8 9 4 3
20 21 19 20 20 20 19 15 13 11 10 12 13 13 13 17 24 39 42 40 39 40 39 37 33 38 34 32 26 25 24 24 25 19 12 14 14 10 9 7 6 4 2
20 21 19 19 19 19 19 15 14 11 8 9 8 7 8 10 16 31 32 34 31 28 30 32 33 31 32 29 28 27 29 27 19 18 16 15 12 9 7 6 5 3 4
19 21 21 20 20 20 19 16 14 13 10 10 8 8 6 7 13 20 27 27 29 33 35 31 28 31 29 31 30 24 21 23 23 17 12 17 14 14 10 9 7 3 2
17 20 21 21 20 21 20 18 17 17 15 14 14 14 15 16 16 24 27 31 36 33 34 34 31 28 27 26 24 23 21 17 15 21 27 19 15 10 10 9 7 5 5
21 19 22 22 20 21 21 20 23 22 21 20 18 19 21 23 21 31 36 35 35 33 31 32 35 30 28 30 33 36 34 31 28 28 27 24 19 13 10 8 6 5 5
22 19 23 24 21 20 24 27 26 27 25 22 21 24 26 27 30 33 38 39 37 33 31 31 34 34 32 35 37 43 39 36 31 31 29 26 21 17 13 10 11 8 4
19 10 26 25 23 24 28 30 28 30 29 27 25 24 28 32 33 38 39 43 40 38 35 34 32 34 32 32 38 40 36 27 25 24 24 22 19 19 17 14 11 9 6
22 17 22 26 30 31 30 31 33 33 32 30 31 26 27 29 30 34 39 41 41 36 34 33 32 31 32 32 33 34 33 29 24 21 19 17 15 14 14 12 10 8 6
17 9 15 31 32 32 35 30 32 36 32 29 31 29 28 27 27 27 34 39 37 42 36 35 33 33 34 34 35 31 28 27 23 19 17 16 15 13 10 8 7 6 4
14 17 17 20 28 31 34 32 28 27 29 26 25 27 27 30 33 34 38 39 41 43 41 40 37 36 34 32 29 25 24 21 20 19 17 14 12 10 8 6 6 7 5
21 19 21 24 25 25 27 25 26 24 24 26 26 28 30 30 31 34 40 43 44 46 42 35 35 36 34 29 24 21 19 18 18 18 15 12 10 9 9 9 9 9 5
17 18 22 24 31 24 25 24 28 24 24 25 24 29 29 27 26 33 41 42 40 42 45 38 29 26 24 23 21 20 18 17 17 15 14 11 10 8 9 9 9 9 9
15 17 23 22 23 29 29 37 35 36 37 33 31 29 33 33 34 31 35 39 39 38 30 27 24 21 21 21 19 18 16 16 14 13 12 10 10 9 7 7 8 9 10
17 18 24 26 22 23 28 28 33 38 42 37 39 33 37 38 37 37 35 34 28 27 27 24 22 20 20 19 18 17 16 13 12 11 11 9 8 6 6 7 9 10 10
24 23 23 21 25 24 29 31 28 34 35 37 38 39 38 36 35 32 31 30 25 22 23 23 22 19 19 18 17 16 14 12 11 10 9 7 6 5 6 8 9 10 11
23 25 25 25 27 26 30 31 33 33 36 34 36 35 32 31 27 24 20 22 22 22 21 21 19 19 19 17 15 14 13 12 10 8 7 6 5 5 5 7 8 10 12
27 28 26 26 28 29 29 31 30 29 28 28 26 25 22 23 21 19 19 20 20 20 19 19 19 18 17 16 14 12 12 10 8 7 6 4 4 4 5 7 8 10 11
21 23 26 26 26 26 27 27 26 27 25 24 21 18 17 21 20 19 19 19 19 18 18 18 17 17 15 13 11 10 9 8 6 5 4 4 4 4 5 6 8 9 11
18 20 20 22 22 23 24 24 23 24 24 25 23 21 19 20 20 20 19 19 18 17 16 17 16 15 12 11 9 9 8 7 5 4 3 3 3 4 5 6 8 9 10
19 20 21 21 23 24 23 22 22 22 22 21 20 20 18 19 19 19 19 18 17 16 14 14 13 12 10 9 8 7 6 4 3 2 2 3 3 4 5 7 8 9 11
18 19 20 19 20 21 21 21 21 20 20 19 19 19 18 17 18 18 17 16 15 14 13 12 10 10 10 7 6 5 4 3 1 1 3 3 4 6 6 7 8 9 11
16 16 18 18 18 19 20 19 19 19 19 18 18 17 17 17 17 16 14 14 13 12 11 9 8 8 6 7 5 5 4 3 3 4 4 5 6 8 7 8 8 10 11
15 16 17 17 17 17 18 18 18 17 18 17 17 16 16 15 14 14 13 12 11 10 9 7 7 6 5 3 2 3 4 5 5 6 6 5 7 7 7 8 9 10 11

GFSGL_925_spd_123.txt.gz
Wind_Speed
9 13 15 20 25 21 19 19 17 18 18 20 26 28 29 30 33 35 29 35 32 30 30 31 30 27 24 20 19 19 20 20 14 7 11 15 13 13 13 11 10 7 8
14 12 16 22 21 20 18 17 15 15 15 17 25 28 30 32 35 36 33 31 32 29 29 29 31 28 25 21 22 27 27 24 16 15 14 11 11 12 14 10 9 7 6
15 14 17 20 21 21 22 20 20 17 15 18 20 20 24 29 33 36 37 36 35 32 32 32 33 31 28 26 26 26 23 22 15 14 10 15 11 14 14 14 9 6 4
16 15 17 18 20 20 19 20 19 16 15 14 14 15 16 26 32 33 33 34 37 38 38 35 33 32 31 29 30 31 20 15 19 22 17 17 19 17 17 14 10 5 5
17 14 18 19 21 19 19 21 18 16 15 12 12 13 13 17 23 29 35 38 39 36 34 35 33 31 30 30 33 22 21 28 24 24 17 13 14 15 11 8 7 6 6
19 13 16 20 21 20 23 22 21 18 13 12 11 12 11 13 17 20 26 32 31 33 37 33 34 38 35 33 24 20 32 33 27 20 13 16 15 16 14 12 13 6 3
20 15 18 21 19 23 24 22 19 16 17 17 14 13 10 9 14 18 21 27 31 32 34 34 34 30 32 30 29 29 20 21 24 26 30 24 22 19 18 16 12 10 6
20 15 18 21 24 22 23 22 20 21 21 20 17 16 16 17 19 24 28 30 31 29 30 29 33 31 29 32 30 30 29 26 23 26 26 26 25 21 17 15 14 12 9
19 17 17 20 24 22 21 27 26 25 23 21 20 21 21 23 25 28 31 33 34 30 28 28 32 34 35 39 41 44 42 38 33 33 32 28 24 20 17 16 13 10 5
23 24 22 27 22 19 28 29 26 27 26 25 24 22 22 27 28 33 37 40 39 38 33 31 31 34 36 37 42 45 41 32 36 34 31 27 23 20 16 12 11 9 5
25 24 21 27 15 33 31 32 32 30 29 28 29 25 25 26 25 28 35 39 41 36 34 33 31 30 31 34 37 39 40 37 34 30 27 24 22 17 14 12 10 8 6
23 19 19 11 28 35 36 31 33 36 31 27 29 27 27 25 24 23 29 36 36 42 34 33 33 33 35 37 40 37 36 34 30 28 24 20 18 13 11 9 9 7 6
19 15 13 12 8 35 36 32 28 28 29 24 24 25 26 29 31 31 34 36 38 42 39 39 38 39 38 37 32 28 31 30 25 22 20 17 14 12 10 8 8 6 4
17 15 14 22 21 20 23 25 27 25 24 25 26 26 27 28 29 32 37 42 44 49 44 38 37 39 37 35 29 25 21 18 19 19 18 15 12 10 10 8 7 7 4
18 17 16 24 27 26 30 23 22 18 22 30 26 29 30 26 24 30 34 34 35 38 42 38 34 31 29 26 23 21 19 18 18 17 16 14 12 10 9 8 8 7 6
16 16 16 17 19 31 31 35 35 33 33 33 31 36 38 39 32 33 36 38 35 31 31 28 26 25 25 23 22 20 18 17 16 15 14 12 11 9 9 9 9 9 8
15 16 18 17 21 24 30 31 32 39 38 37 36 36 38 45 43 39 36 34 31 31 29 24 22 22 22 21 20 19 18 15 14 14 13 11 10 9 8 9 9 9 10
21 24 20 22 23 25 27 27 30 31 34 36 36 41 40 42 40 38 34 34 31 25 24 23 21 21 20 20 19 19 17 15 13 12 11 10 9 8 8 7 8 9 9
22 23 25 26 27 26 30 30 31 33 33 35 35 36 33 36 34 29 24 24 25 23 22 22 20 20 19 19 19 17 16 13 12 11 10 9 8 7 7 6 7 8 9
25 25 26 25 26 27 28 30 29 28 28 28 28 27 26 28 27 25 23 23 22 22 21 21 20 18 18 17 16 15 15 13 11 10 9 7 6 6 5 5 7 8 10
19 23 24 26 26 25 26 25 27 27 24 21 22 22 23 27 25 24 22 21 20 20 20 19 19 18 17 16 15 14 12 11 9 8 7 5 5 4 5 5 6 7 9
17 18 22 23 23 25 26 25 25 27 25 24 25 25 25 26 25 24 21 20 19 18 17 18 17 16 14 14 13 12 11 10 8 6 4 4 3 4 5 5 6 7 9
18 20 21 22 23 23 24 24 24 23 23 23 22 22 22 23 23 22 22 20 18 17 16 16 16 15 14 13 11 10 9 8 6 5 4 3 3 3 4 5 6 7 8
18 19 20 19 19 20 22 22 22 22 22 21 21 21 21 20 20 20 19 17 17 16 15 14 14 14 13 12 10 8 9 8 5 2 3 2 2 3 3 4 6 7 9
17 17 18 18 19 20 20 20 20 19 19 19 19 19 18 18 17 17 16 16 15 14 13 12 12 12 15 14 12 9 6 5 3 2 3 2 2 3 4 5 7 8 9
16 17 17 17 17 17 18 18 18 17 18 17 17 17 16 16 15 15 14 14 13 13 11 11 10 10 9 7 5 4 2 1 0 0 1 1 2 3 5 6 8 9 9